[[{"header":{"parameterUnit":"m.s-1","parameterCategory":1,"la1":30.6,"la2":28.766,"lo1":-90.7593,"lo2":-88.6598,"dy":0.0162,"dx":0.0183,"nx":116,"ny":114,"refTime":"2024-03-06T06:00:00:Z","depth":0,"parameterNumber":2,"parameterNumberName":"U-component_of_WINDS"},"data":[0.0,0.0,0.0,0.0,0.0,0.0,0.0,0.0,0.0,0.0,0.0,0.0,0.0,0.0,0.0,0.0,0.0,0.0,0.0,0.0,0.0,0.0,0.0,0.0,0.0,0.0,0.0,0.0,0.0,0.0,0.0,0.0,0.0,0.0,0.0,0.0,0.0,0.0,0.0,0.0,0.0,0.0,0.0,0.0,0.0,0.0,0.0,0.0,0.0,0.0,0.0,0.0,0.0,0.0,0.0,0.0,0.0,0.0,0.0,0.0,0.0,0.0,0.0,0.0,0.0,0.0,0.0,0.0,0.0,0.0,0.0,0.0,0.0,0.0,0.0,0.0,0.0,0.0,0.0,0.0,0.0,0.0,0.0,0.0,0.0,0.0,0.0,0.0,0.0,0.0,0.0,0.0,0.0,0.0,0.0,0.0,0.0,0.0,0.0,0.0,0.0,0.0,0.0,0.0,0.0,0.0,0.0,0.0,0.0,0.0,0.0,0.0,0.0,0.0,0.0,0.0,0.0,0.0,0.0,0.0,0.0,0.0,0.0,0.0,0.0,0.0,0.0,0.0,0.0,0.0,0.0,0.0,0.0,0.0,0.0,0.0,0.0,0.0,0.0,0.0,0.0,0.0,0.0,0.0,0.0,0.0,0.0,0.0,0.0,0.0,0.0,0.0,0.0,0.0,0.0,0.0,0.0,0.0,0.0,0.0,0.0,0.0,0.0,0.0,0.0,0.0,0.0,0.0,0.0,0.0,0.0,0.0,0.0,0.0,0.0,0.0,0.0,0.0,0.0,0.0,0.0,0.0,0.0,0.0,0.0,0.0,0.0,0.0,0.0,0.0,0.0,0.0,0.0,0.0,0.0,0.0,0.0,0.0,0.0,0.0,0.0,0.0,0.0,0.0,0.0,0.0,0.0,0.0,0.0,0.0,0.0,0.0,0.0,0.0,0.0,0.0,0.0,0.0,0.0,0.0,0.0,0.0,0.0,0.0,0.0,0.0,0.0,0.0,0.0,0.0,0.0,0.0,0.0,0.0,0.0,0.0,0.0,0.0,0.0,0.0,0.0,0.0,0.0,0.0,0.0,0.0,0.0,0.0,0.0,0.0,0.0,0.0,0.0,0.0,0.0,0.0,0.0,0.0,0.0,0.0,0.0,0.0,0.0,0.0,0.0,0.0,0.0,0.0,0.0,0.0,0.0,0.0,0.0,0.0,0.0,0.0,0.0,0.0,0.0,0.0,0.0,0.0,0.0,0.0,0.0,0.0,0.0,0.0,0.0,0.0,0.0,0.0,0.0,0.0,0.0,0.0,0.0,0.0,0.0,0.0,0.0,0.0,0.0,0.0,0.0,0.0,0.0,0.0,0.0,0.0,0.0,0.0,0.0,0.0,0.0,0.0,0.0,0.0,0.0,0.0,0.0,0.0,0.0,0.0,0.0,0.0,0.0,0.0,0.0,0.0,0.0,0.0,0.0,0.0,0.0,0.0,0.0,0.0,0.0,0.0,0.0,0.0,0.0,0.0,0.0,0.0,0.0,0.0,0.0,0.0,0.0,0.0,0.0,0.0,0.0,0.0,0.0,0.0,0.0,0.0,0.0,0.0,0.0,0.0,0.0,0.0,0.0,0.0,0.0,0.0,0.0,0.0,0.0,0.0,0.0,0.0,0.0,0.0,0.0,0.0,0.0,0.0,0.0,0.0,0.0,0.0,0.0,0.0,0.0,0.0,0.0,0.0,0.0,0.0,0.0,0.0,0.0,0.0,0.0,0.0,0.0,0.0,0.0,0.0,0.0,0.0,0.0,0.0,0.0,0.0,0.0,0.0,0.0,0.0,0.0,0.0,0.0,0.0,0.0,0.0,0.0,0.0,0.0,0.0,0.0,0.0,0.0,0.0,0.0,0.0,0.0,0.0,0.0,0.0,0.0,0.0,0.0,0.0,0.0,0.0,0.0,0.0,0.0,0.0,0.0,0.0,0.0,0.0,0.0,0.0,0.0,0.0,0.0,0.0,0.0,0.0,0.0,0.0,0.0,0.0,0.0,0.0,0.0,0.0,0.0,0.0,0.0,0.0,0.0,0.0,0.0,0.0,0.0,0.0,0.0,0.0,0.0,0.0,0.0,0.0,0.0,0.0,0.0,0.0,0.0,0.0,0.0,0.0,0.0,0.0,0.0,0.0,0.0,0.0,0.0,0.0,0.0,0.0,0.0,0.0,0.0,0.0,0.0,0.0,0.0,0.0,0.0,0.0,0.0,0.0,0.0,0.0,0.0,0.0,0.0,0.0,0.0,0.0,0.0,0.0,0.0,0.0,0.0,0.0,0.0,0.0,0.0,0.0,0.0,0.0,0.0,0.0,0.0,0.0,0.0,0.0,0.0,0.0,0.0,0.0,0.0,0.0,0.0,0.0,0.0,0.0,0.0,0.0,0.0,0.0,0.0,0.0,0.0,0.0,0.0,0.0,0.0,0.0,0.0,0.0,0.0,0.0,0.0,0.0,0.0,0.0,0.0,0.0,0.0,0.0,0.0,0.0,0.0,0.0,0.0,0.0,0.0,0.0,0.0,0.0,0.0,0.0,0.0,0.0,0.0,0.0,0.0,0.0,0.0,0.0,0.0,0.0,0.0,0.0,0.0,0.0,0.0,0.0,0.0,0.0,0.0,0.0,0.0,0.0,0.0,0.0,0.0,0.0,0.0,0.0,0.0,0.0,0.0,0.0,0.0,0.0,0.0,0.0,0.0,0.0,0.0,0.0,0.0,0.0,0.0,0.0,0.0,0.0,0.0,0.0,0.0,0.0,0.0,0.0,0.0,0.0,0.0,0.0,0.0,0.0,0.0,0.0,0.0,0.0,0.0,0.0,0.0,0.0,0.0,0.0,0.0,0.0,0.0,0.0,0.0,0.0,0.0,0.0,0.0,0.0,0.0,0.0,0.0,0.0,0.0,0.0,0.0,0.0,0.0,0.0,0.0,0.0,0.0,0.0,0.0,0.0,0.0,0.0,0.0,0.0,0.0,0.0,0.0,0.0,0.0,0.0,0.0,0.0,0.0,0.0,0.0,0.0,0.0,0.0,0.0,0.0,0.0,0.0,0.0,0.0,0.0,0.0,0.0,0.0,0.0,0.0,0.0,0.0,0.0,0.0,0.0,0.0,0.0,0.0,0.0,0.0,0.0,0.0,0.0,0.0,0.0,0.0,0.0,0.0,0.0,0.0,0.0,0.0,0.0,0.0,0.0,0.0,0.0,0.0,0.0,0.0,0.0,0.0,0.0,0.0,0.0,0.0,0.0,0.0,0.0,0.0,0.0,0.0,0.0,0.0,0.0,0.0,0.0,0.0,0.0,0.0,0.0,0.0,0.0,0.0,0.0,0.0,0.0,0.0,0.0,0.0,0.0,0.0,0.0,0.0,0.0,0.0,0.0,0.0,0.0,0.0,0.0,0.0,0.0,0.0,0.0,0.0,0.0,0.0,0.0,0.0,0.0,0.0,0.0,0.0,0.0,0.0,0.0,0.0,0.0,0.0,0.0,0.0,0.0,0.0,0.0,0.0,0.0,0.0,0.0,0.0,0.0,0.0,0.0,0.0,0.0,0.0,0.0,0.0,0.0,0.0,0.0,0.0,0.0,0.0,0.0,0.0,0.0,0.0,0.0,0.0,0.0,0.0,0.0,0.0,0.0,0.0,0.0,0.0,0.0,0.0,0.0,0.0,0.0,0.0,0.0,0.0,0.0,0.0,0.0,0.0,0.0,0.0,0.0,0.0,0.0,0.0,0.0,0.0,0.0,0.0,0.0,0.0,0.0,0.0,0.0,0.0,0.0,0.0,0.0,0.0,0.0,0.0,0.0,0.0,0.0,0.0,0.0,0.0,0.0,0.0,0.0,0.0,0.0,0.0,0.0,0.0,0.0,0.0,0.0,0.0,0.0,0.0,0.0,0.0,0.0,0.0,0.0,0.0,0.0,0.0,0.0,0.0,0.0,0.0,0.0,0.0,0.0,0.0,0.0,0.0,0.0,0.0,0.0,0.0,0.0,0.0,0.0,0.0,0.0,0.0,0.0,0.0,0.0,0.0,0.0,0.0,0.0,0.0,0.0,0.0,0.0,0.0,0.0,0.0,0.0,0.0,0.0,0.0,0.0,0.0,0.0,0.0,0.0,0.0,0.0,0.0,0.0,0.0,0.0,0.0,0.0,0.0,0.0,0.0,0.0,0.0,0.0,0.0,0.0,0.0,0.0,0.0,0.0,0.0,0.0,0.0,0.0,0.0,0.0,0.0,0.0,0.0,0.0,0.0,0.0,0.0,0.0,0.0,0.0,0.0,0.0,0.0,0.0,0.0,0.0,0.0,0.0,0.0,0.0,0.0,0.0,0.0,0.0,0.0,0.0,0.0,0.0,0.0,0.0,0.0,0.0,0.0,0.0,0.0,0.0,0.0,0.0,0.0,0.0,0.0,0.0,0.0,0.0,0.0,0.0,0.0,0.0,0.0,0.0,0.0,0.0,0.0,0.0,0.0,0.0,0.0,0.0,0.0,0.0,0.0,0.0,0.0,0.0,0.0,0.0,0.0,0.0,0.0,0.0,0.0,0.0,0.0,0.0,0.0,0.0,0.0,0.0,0.0,0.0,0.0,0.0,0.0,0.0,0.0,0.0,0.0,0.0,0.0,0.0,0.0,0.0,0.0,0.0,0.0,0.0,0.0,0.0,0.0,0.0,0.0,0.0,0.0,0.0,0.0,0.0,0.0,0.0,0.0,0.0,0.0,0.0,0.0,0.0,0.0,0.0,0.0,0.0,0.0,0.0,0.0,0.0,0.0,0.0,0.0,0.0,0.0,0.0,0.0,0.0,0.0,0.0,0.0,0.0,0.0,0.0,0.0,0.0,0.0,0.0,0.0,0.0,0.0,0.0,0.0,0.0,0.0,0.0,0.0,0.0,0.0,0.0,0.0,0.0,0.0,0.0,0.0,0.0,0.0,0.0,0.0,0.0,0.0,0.0,0.0,0.0,0.0,0.0,0.0,0.0,0.0,0.0,0.0,0.0,0.0,0.0,0.0,0.0,0.0,0.0,0.0,0.0,0.0,0.0,0.0,0.0,0.0,0.0,0.0,0.0,0.0,0.0,0.0,0.0,0.0,0.0,0.0,0.0,0.0,0.0,0.0,0.0,0.0,0.0,0.0,0.0,0.0,0.0,0.0,0.0,0.0,0.0,0.0,0.0,0.0,0.0,0.0,0.0,0.0,0.0,0.0,0.0,0.0,0.0,0.0,0.0,0.0,0.0,0.0,0.0,0.0,0.0,0.0,0.0,0.0,0.0,0.0,0.0,0.0,0.0,0.0,0.0,0.0,0.0,0.0,0.0,0.0,0.0,0.0,0.0,0.0,0.0,0.0,0.0,0.0,0.0,0.0,0.0,0.0,0.0,0.0,0.0,0.0,0.0,0.0,0.0,0.0,0.0,0.0,0.0,0.0,0.0,0.0,0.0,0.0,0.0,0.0,0.0,0.0,0.0,0.0,0.0,0.0,0.0,0.0,0.0,0.0,0.0,0.0,0.0,0.0,0.0,0.0,0.0,0.0,0.0,0.0,0.0,0.0,0.0,0.0,0.0,0.0,0.0,0.0,0.0,0.0,0.0,0.0,0.0,0.0,0.0,0.0,0.0,0.0,0.0,0.0,0.0,0.0,0.0,0.0,0.0,0.0,0.0,0.0,0.0,0.0,0.0,0.0,0.0,0.0,0.0,0.0,0.0,0.0,0.0,0.0,0.0,0.0,0.0,0.0,0.0,0.0,0.0,0.0,0.0,0.0,0.0,0.0,0.0,0.0,0.0,0.0,0.0,0.0,0.0,0.0,0.0,0.0,0.0,0.0,0.0,0.0,0.0,0.0,0.0,0.0,0.0,0.0,0.0,0.0,0.0,0.0,0.0,0.0,0.0,0.0,0.0,0.0,0.0,0.0,0.0,0.0,0.0,0.0,0.0,0.0,0.0,0.0,0.0,0.0,0.0,0.0,0.0,0.0,0.0,0.0,0.0,0.0,0.0,0.0,0.0,0.0,0.0,0.0,0.0,0.0,0.0,0.0,0.0,0.0,0.0,0.0,0.0,0.0,2.9804,0.0,0.0,0.0,0.0,0.0,0.0,0.0,0.0,0.0,0.0,0.0,0.0,0.0,0.0,0.0,0.0,0.0,0.0,0.0,0.0,0.0,0.0,0.0,0.0,0.0,0.0,0.0,0.0,0.0,0.0,0.0,0.0,0.0,0.0,0.0,0.0,0.0,3.8751,3.8392,3.7764,3.6956,3.6028,3.6357,3.6327,3.5998,0.0,0.0,0.0,0.0,0.0,0.0,0.0,0.0,0.0,0.0,0.0,0.0,0.0,0.0,0.0,0.0,0.0,0.0,0.0,0.0,0.0,0.0,0.0,0.0,0.0,0.0,0.0,0.0,0.0,0.0,0.0,0.0,0.0,0.0,0.0,0.0,0.0,0.0,0.0,0.0,0.0,0.0,0.0,0.0,0.0,0.0,0.0,0.0,0.0,0.0,0.0,0.0,0.0,0.0,0.0,0.0,0.0,0.0,0.0,0.0,0.0,0.0,0.0,0.0,0.0,0.0,0.0,0.0,0.0,0.0,0.0,2.9443,0.0,0.0,0.0,0.0,0.0,0.0,0.0,0.0,0.0,0.0,0.0,0.0,0.0,0.0,0.0,0.0,0.0,0.0,0.0,0.0,0.0,0.0,0.0,3.9409,3.9409,3.9409,3.9409,3.9409,0.0,0.0,0.0,0.0,0.0,3.9379,3.926,3.8691,3.8272,3.8063,3.6896,3.6028,3.5519,3.5519,3.5519,3.5519,3.5519,0.0,0.0,0.0,0.0,0.0,0.0,0.0,0.0,0.0,0.0,0.0,0.0,0.0,0.0,0.0,0.0,0.0,0.0,0.0,0.0,0.0,0.0,0.0,0.0,0.0,0.0,0.0,0.0,0.0,0.0,0.0,0.0,0.0,0.0,0.0,0.0,0.0,0.0,0.0,0.0,0.0,0.0,0.0,0.0,0.0,0.0,0.0,0.0,0.0,0.0,0.0,0.0,0.0,0.0,0.0,0.0,0.0,0.0,0.0,0.0,0.0,0.0,0.0,2.9804,2.9184,2.8084,2.8084,2.7522,2.6565,2.845,2.9209,2.9131,2.8028,0.0,0.0,0.0,0.0,0.0,0.0,0.0,0.0,0.0,0.0,0.0,0.0,0.0,0.0,0.0,0.0,0.0,0.0,0.0,0.0,0.0,3.9409,3.9409,3.9409,3.9409,3.9409,3.9409,0.0,3.9409,3.9409,3.9409,3.914,3.8542,3.8452,3.7853,3.6746,3.5998,3.5579,3.5519,3.5519,3.5519,3.5519,3.5519,3.5519,3.5519,0.0,0.0,0.0,0.0,0.0,0.0,0.0,0.0,0.0,0.0,0.0,0.0,0.0,0.0,0.0,0.0,0.0,0.0,0.0,0.0,0.0,0.0,0.0,0.0,0.0,0.0,0.0,0.0,0.0,0.0,0.0,0.0,0.0,0.0,0.0,0.0,0.0,0.0,0.0,0.0,0.0,2.9804,2.9804,0.0,0.0,0.0,0.0,0.0,0.0,0.0,0.0,0.0,0.0,0.0,0.0,0.0,2.9804,2.9804,2.9804,2.9804,2.9804,2.9804,2.9184,2.8084,2.8084,2.7522,2.6483,2.6812,0.0,2.6894,2.5714,0.0,0.0,0.0,0.0,0.0,0.0,0.0,0.0,0.0,0.0,0.0,0.0,0.0,0.0,0.0,0.0,0.0,0.0,0.0,0.0,0.0,3.9409,3.9409,3.9409,3.9409,3.9409,3.9409,3.9409,3.9409,3.9409,3.9409,3.911,3.8392,3.8392,3.7764,3.6477,3.5818,3.5519,3.5519,3.5519,3.5519,3.5519,3.5519,3.5519,3.5519,3.5519,0.0,0.0,0.0,0.0,0.0,0.0,0.0,0.0,0.0,0.0,0.0,0.0,0.0,0.0,0.0,0.0,0.0,0.0,0.0,0.0,0.0,0.0,0.0,0.0,0.0,0.0,0.0,0.0,0.0,0.0,0.0,0.0,0.0,0.0,0.0,0.0,0.0,0.0,0.0,2.9804,2.9804,2.9804,2.9804,2.9804,0.0,0.0,0.0,0.0,0.0,0.0,0.0,0.0,0.0,2.9804,2.9184,2.9106,2.9779,2.9184,2.8846,2.8846,2.8846,2.7924,2.6273,2.6273,2.563,2.4553,2.4553,2.4553,2.4638,2.4702,2.4787,2.4702,0.0,0.0,0.0,0.0,2.3144,2.3144,0.0,0.0,0.0,0.0,0.0,0.0,0.0,0.0,0.0,0.0,0.0,0.0,3.9409,3.9409,3.9409,3.9409,3.9409,3.9409,3.9409,3.9409,3.9409,3.9409,3.926,3.8841,3.8153,3.7823,3.7195,3.6237,3.5759,3.5519,3.5519,3.5519,3.5519,3.5519,3.5519,3.5519,3.5519,3.5519,3.5519,3.5519,0.0,0.0,0.0,0.0,0.0,0.0,0.0,0.0,0.0,0.0,0.0,0.0,0.0,0.0,0.0,0.0,0.0,0.0,0.0,0.0,0.0,0.0,0.0,0.0,0.0,0.0,0.0,0.0,0.0,0.0,0.0,0.0,0.0,0.0,0.0,0.0,0.0,2.9804,2.9804,2.9804,2.9804,2.9804,0.0,0.0,0.0,0.0,0.0,0.0,2.9804,2.9804,2.9804,2.9804,2.8949,2.8949,2.9804,2.8949,2.8505,2.8505,2.8267,2.7093,2.521,2.4957,2.4211,2.3144,2.3144,2.3144,2.3125,2.4039,2.4382,2.4296,2.3474,2.3144,2.3144,2.3144,2.3144,2.3144,0.0,0.0,0.0,0.0,0.0,0.0,0.0,0.0,0.0,0.0,0.0,3.9409,3.9409,3.9409,3.9409,3.9409,3.9409,3.9409,3.9409,3.9409,3.9409,3.9409,3.8781,3.8123,3.7464,3.6267,3.5609,3.5549,3.5519,3.5519,3.5519,3.5519,3.5519,3.5519,3.5519,3.5519,3.5519,3.5519,3.5519,3.5519,3.5519,0.0,0.0,0.0,0.0,0.0,0.0,0.0,0.0,0.0,0.0,0.0,0.0,0.0,0.0,0.0,0.0,0.0,0.0,0.0,0.0,0.0,0.0,0.0,0.0,0.0,0.0,0.0,0.0,0.0,0.0,0.0,0.0,0.0,0.0,0.0,0.0,0.0,0.0,2.9804,2.9804,0.0,0.0,0.0,0.0,2.9804,2.9804,2.9804,2.9804,2.9804,2.9804,2.9804,2.9702,2.9702,2.9804,2.9702,2.9702,2.9702,2.8609,2.7522,2.64,2.5294,2.4211,2.3144,2.3144,2.3144,2.3144,2.3144,2.3232,2.3212,2.3144,2.3144,2.3144,2.3144,2.3144,2.3144,0.0,0.0,0.0,0.0,0.0,0.0,0.0,0.0,3.9409,3.9409,3.9409,3.9409,3.9409,3.9409,3.9409,3.9409,3.9409,3.9409,3.9409,3.9409,3.9409,3.9409,3.8751,3.8093,3.7434,3.6567,3.6118,3.6118,3.5699,3.5519,3.5519,3.5519,3.5519,3.5519,3.5519,3.5519,3.5519,3.5519,3.5519,3.5519,3.5519,3.5519,0.0,0.0,0.0,0.0,0.0,0.0,0.0,0.0,0.0,0.0,0.0,0.0,0.0,0.0,0.0,0.0,0.0,0.0,0.0,0.0,0.0,0.0,0.0,0.0,0.0,0.0,0.0,0.0,0.0,0.0,0.0,0.0,0.0,0.0,0.0,0.0,0.0,2.9804,2.9804,0.0,2.9804,2.9804,2.9804,2.9804,2.9804,2.9804,2.9804,2.9804,2.9804,2.9804,2.9106,2.9028,2.9779,2.9106,2.8371,2.7626,2.7302,2.613,2.4317,2.3887,2.3474,2.3144,2.3144,2.3144,2.3144,2.3144,2.3144,2.3144,2.3144,2.3144,2.3144,2.3144,2.3144,2.3144,0.0,0.0,0.0,0.0,0.0,0.0,0.0,0.0,3.9409,3.9409,3.9409,3.9409,3.9409,3.9409,3.9409,3.9409,3.9409,3.9409,3.9409,3.9409,3.9409,3.9409,3.8751,3.7973,3.7135,3.6686,3.6387,3.6148,3.5729,3.5519,3.5519,3.5519,3.5519,3.5519,3.5519,3.5519,3.5519,3.5519,3.5519,3.5519,3.5519,3.5519,3.5359,0.0,0.0,0.0,0.0,0.0,0.0,0.0,0.0,0.0,0.0,0.0,0.0,0.0,0.0,0.0,0.0,0.0,0.0,0.0,0.0,0.0,0.0,0.0,0.0,0.0,0.0,0.0,0.0,0.0,0.0,0.0,0.0,0.0,0.0,0.0,2.9804,2.9804,2.9804,2.9804,2.9804,2.9804,2.9804,2.9804,2.9804,2.9804,2.9804,2.9804,2.9804,2.9804,2.9106,2.8846,2.9184,2.8505,2.7522,2.6483,2.613,2.5147,2.3627,2.3299,2.3144,2.3144,2.3144,2.3144,2.3144,2.3144,2.3144,2.3144,2.3144,2.3144,2.3144,2.3144,2.3144,2.3144,0.0,0.0,0.0,0.0,0.0,0.0,0.0,3.9858,3.9409,3.9409,3.9409,3.9409,3.9409,3.9409,3.9409,3.9409,3.9409,3.9409,3.9409,3.9409,3.9409,3.9379,3.8781,3.7823,3.6507,3.6507,3.6178,3.5519,3.5519,3.5519,3.5519,3.5519,3.5519,3.5519,3.5519,3.5519,3.5519,3.5519,3.5519,3.5519,3.5519,3.5519,3.5294,0.0,0.0,0.0,0.0,0.0,0.0,0.0,0.0,0.0,0.0,0.0,0.0,0.0,0.0,0.0,0.0,0.0,0.0,0.0,0.0,0.0,0.0,0.0,0.0,0.0,0.0,0.0,0.0,0.0,0.0,0.0,0.0,0.0,2.9804,2.9804,2.9804,2.9804,2.9804,2.9804,2.9804,2.9804,2.9804,2.9804,2.9804,2.9804,2.9804,2.9804,2.9804,2.9804,2.9804,2.9287,2.8164,2.8164,2.7602,2.6483,2.5378,2.4787,2.4702,2.3627,2.3144,2.3144,2.3144,2.3144,2.3144,2.3144,2.3144,2.3144,2.3144,2.3144,2.3144,2.3144,2.3144,2.3144,0.0,0.0,0.0,0.0,0.0,0.0,4.1145,4.0157,3.9409,3.9409,3.9409,3.9409,3.9409,3.9409,3.9409,3.9409,3.9409,3.9409,3.9409,3.9409,3.92,3.8691,3.896,3.8302,3.6537,3.6926,3.6626,3.5519,3.5519,3.5519,3.5519,3.5519,3.5519,3.5519,3.5519,3.5519,3.5519,3.5519,3.5519,3.5519,3.5519,3.5519,3.5359,0.0,0.0,0.0,0.0,0.0,0.0,0.0,0.0,0.0,0.0,0.0,0.0,0.0,0.0,0.0,0.0,0.0,0.0,0.0,0.0,0.0,0.0,0.0,0.0,0.0,0.0,0.0,0.0,0.0,0.0,0.0,0.0,2.9804,2.9804,2.9804,2.9804,2.9804,2.9804,2.9804,2.9804,2.9804,2.9804,2.9804,2.9804,2.9804,2.9804,2.9804,2.9804,2.9804,2.9804,2.9624,2.9365,2.9365,2.8371,2.6483,2.6152,2.5147,2.356,2.3212,2.3144,2.3144,2.3144,2.3144,2.3144,2.3144,2.3144,2.3144,2.3144,2.3144,2.3144,2.3144,2.3144,2.3144,0.0,0.0,0.0,0.0,0.0,0.0,4.1384,4.0277,3.9409,3.9409,3.9409,3.9409,3.9409,3.9409,3.9409,3.9409,3.9409,3.9409,3.9409,3.9409,3.923,3.8841,3.92,3.8751,3.7315,3.7375,3.6926,3.5908,3.5639,3.5519,3.5519,3.5519,3.5519,3.5519,3.5519,3.5519,3.5519,3.5519,3.5519,3.5424,3.5067,3.5133,3.5359,3.438,3.3671,3.3017,3.1683,3.0846,3.0343,2.9934,0.0,0.0,0.0,0.0,0.0,0.0,0.0,0.0,0.0,0.0,0.0,0.0,0.0,0.0,0.0,0.0,0.0,0.0,0.0,0.0,0.0,0.0,0.0,0.0,2.9804,2.9804,2.9804,2.9804,2.9804,2.9804,2.9804,2.9804,2.9804,2.9804,2.9804,2.9804,2.9804,2.9804,2.9804,2.9804,2.9804,2.9804,2.9804,2.9546,2.9106,2.8633,2.7545,2.5797,2.5316,2.4382,2.3144,2.3144,2.3144,0.0,2.3144,2.3144,2.3144,2.3144,2.3144,0.0,0.0,0.0,0.0,0.0,2.3144,2.3144,0.0,0.0,0.0,0.0,0.0,0.0,4.1384,4.0337,3.9499,3.9439,3.9409,3.9409,3.9409,3.9409,3.9409,3.9409,3.9409,3.9409,3.9409,3.9409,3.9409,3.9409,3.9409,3.911,3.8392,3.7734,3.7105,3.6477,3.5818,3.5519,3.5519,3.5519,3.5519,3.5519,3.5519,3.5519,3.5519,3.5519,3.5519,3.5424,3.4543,3.461,3.5198,3.4245,3.3808,3.3463,3.1829,3.1093,3.0895,3.0062,0.0,0.0,0.0,0.0,0.0,0.0,0.0,0.0,0.0,0.0,0.0,0.0,0.0,0.0,0.0,0.0,0.0,0.0,0.0,0.0,0.0,0.0,0.0,0.0,2.9804,2.9804,2.9804,2.9804,2.9804,2.9804,2.9804,2.9804,2.9804,2.9804,2.9804,2.9804,2.9804,2.9804,2.9804,0.0,0.0,0.0,0.0,2.9287,2.8267,2.7197,2.613,2.4957,2.38,2.3212,2.3144,2.3144,2.3144,2.3144,2.3144,2.3144,2.3144,2.3144,2.3164,2.3203,2.3164,2.3164,2.3203,2.3203,2.3242,2.3281,0.0,0.0,0.0,0.0,0.0,0.0,4.1474,4.0726,4.0008,3.9499,3.9409,3.9409,3.9409,3.9409,3.9409,3.9409,3.9409,3.9409,3.9409,3.9409,3.9409,3.9409,3.9409,3.911,3.8392,3.7734,3.7105,3.6477,3.5818,3.5519,3.5519,3.5519,3.5519,3.5519,3.5519,3.5519,3.5519,3.5519,3.5519,3.5489,3.5294,3.4839,3.4177,3.3227,3.2379,3.1683,3.1315,3.0696,3.0062,2.9856,2.9804,2.9804,2.9804,2.9804,0.0,0.0,0.0,0.0,0.0,0.0,0.0,0.0,0.0,0.0,0.0,0.0,0.0,0.0,0.0,0.0,0.0,0.0,0.0,2.9804,2.9804,2.9804,2.9804,2.9804,2.9804,2.9804,2.9804,2.9804,2.9804,2.9804,2.9804,2.9804,2.9804,2.9804,2.9804,2.9804,2.9804,2.9804,2.9804,2.9702,2.9443,2.8347,2.7279,2.613,0.0,0.0,2.3144,2.3144,2.3144,2.3144,2.3144,2.3144,2.3144,2.3144,2.334,2.3633,2.3281,2.3359,2.3672,2.3672,2.3867,2.416,0.0,0.0,0.0,0.0,0.0,0.0,4.1474,4.0816,4.0157,3.9499,3.9409,3.9409,3.9409,3.9409,3.9409,3.9409,3.9409,3.9409,3.9409,3.9409,3.9409,3.9409,3.9409,3.926,3.8901,3.8242,3.7584,3.6956,3.6297,3.5818,3.5519,3.5519,3.5519,3.5519,3.5519,3.5699,3.5998,3.5998,3.5882,3.5673,3.5131,3.4327,3.3477,3.4269,3.3945,3.3046,3.288,3.2004,3.083,3.0337,3.003,2.9804,2.9804,2.9804,2.9804,0.0,0.0,0.0,0.0,0.0,0.0,0.0,0.0,0.0,0.0,0.0,0.0,0.0,0.0,2.9804,2.9804,0.0,2.9804,2.9804,2.9804,2.9804,2.9804,2.9804,2.9804,2.9804,2.9804,2.9804,2.9804,2.9804,2.9804,2.9804,2.9804,2.9804,2.9804,2.9804,2.9804,2.9804,2.9804,2.9804,2.9804,2.8688,2.7844,2.7279,2.563,2.4532,2.3973,2.3387,2.3144,2.3144,2.3144,2.3262,2.3477,2.3691,2.3906,2.4082,2.3867,2.3906,2.4102,2.4102,2.4238,2.4414,0.0,0.0,0.0,0.0,0.0,0.0,0.0,4.0935,4.0307,3.9529,3.9409,3.9409,3.9409,3.9409,3.9409,3.9409,3.9409,3.9409,3.9409,3.9409,3.9409,3.9409,3.9409,3.9409,3.9409,3.8751,3.8123,3.7584,3.6985,3.6387,3.5878,3.5878,3.5878,3.5878,3.5878,3.6178,3.6656,3.6454,3.6241,3.5798,3.479,3.3887,3.3322,3.5439,3.5449,3.4147,3.3923,3.2978,3.1759,3.0972,3.0482,3.0105,3.0105,3.003,2.9955,2.9955,2.988,0.0,0.0,0.0,0.0,0.0,0.0,0.0,0.0,0.0,2.9804,2.9804,2.9804,2.9804,2.9804,2.9804,2.9804,2.9804,2.9804,2.9804,2.9804,2.9804,2.9804,2.9804,2.9804,2.9804,2.9804,2.9804,2.9804,2.9804,2.9804,2.9804,2.9804,2.9804,2.9804,2.9804,2.9804,2.9804,2.9804,2.8688,2.8084,2.8084,2.5859,2.4787,2.4787,2.3627,2.3144,2.3144,2.3223,2.3516,2.3945,2.4375,2.4551,2.4551,2.4648,2.4668,2.4668,2.457,2.459,2.4668,0.0,0.0,0.0,0.0,0.0,0.0,0.0,0.0,4.0816,3.9589,3.9409,3.9409,3.9409,3.9409,3.9409,3.9409,3.9409,3.9409,3.9409,3.9409,3.9409,3.9409,3.9409,3.9409,3.9409,3.8751,3.8362,3.8272,3.7614,3.7255,3.7195,3.7195,3.7195,3.7195,3.7195,3.7225,3.7246,3.6353,3.5956,3.5798,3.4743,3.4218,3.4197,3.5121,3.388,3.1771,3.1741,3.1661,3.1448,3.1392,3.126,3.121,3.121,3.0884,3.0532,3.0532,3.0181,2.9804,2.9804,2.9804,2.9804,2.9804,2.9804,2.9804,0.0,0.0,2.9804,2.9804,2.9804,2.9804,2.9804,2.9804,2.9804,2.9804,2.9804,2.9804,2.9804,2.9804,2.9804,2.9804,2.9804,2.9804,2.9804,2.9804,2.9804,2.9804,2.9804,2.9804,2.9804,2.9804,2.9804,2.9804,2.9804,2.9804,2.9804,2.8688,2.8084,2.8084,2.5859,2.4787,2.4787,2.3627,2.3144,2.3164,2.3555,2.3965,2.4375,2.4805,2.5,2.5039,2.543,2.5586,2.5547,2.5137,2.5254,2.5586,0.0,0.0,0.0,0.0,0.0,0.0,0.0,0.0,0.0,3.9529,3.9409,3.9409,3.9409,3.9409,3.9409,3.9409,3.9409,3.9409,3.9409,3.9409,3.9409,3.9409,3.9409,3.9409,3.9409,3.914,3.8781,3.8392,3.8123,3.7793,3.7404,3.7404,3.7404,3.7404,3.7404,3.7614,3.7973,3.7523,3.7229,3.6962,3.6514,3.5571,3.4606,3.4848,3.3904,3.2449,3.3065,3.2695,0.0,3.1863,3.1662,3.1386,3.1386,3.1235,3.106,3.106,3.0683,3.0206,2.988,2.9804,2.9804,0.0,2.9804,2.9804,2.9804,2.9804,2.9804,2.9804,2.9804,2.9804,2.9804,2.9804,2.9804,0.0,2.9804,2.9804,2.9804,2.9804,2.9804,2.9804,2.9804,2.9804,2.9804,2.9804,2.9804,2.9804,2.9804,2.9804,2.9804,2.9804,2.9804,2.9804,2.9804,2.9804,2.9804,2.9365,2.9106,2.9106,2.7522,2.6356,2.5735,2.4843,2.4255,2.3906,2.4336,2.4629,2.4824,2.5273,2.5449,2.5469,2.5664,2.5742,2.5723,2.5527,2.5586,2.5742,0.0,0.0,0.0,0.0,0.0,0.0,0.0,0.0,0.0,0.0,3.9409,3.9409,3.9409,3.9409,3.9409,3.9409,3.9409,3.9409,3.9409,3.9409,3.9409,3.9409,3.9409,3.9409,3.9409,3.9409,3.917,3.8691,3.8691,3.8422,3.7973,3.7973,3.7973,3.7973,3.7973,3.8212,3.8661,3.8347,3.8106,3.7738,3.751,3.6318,3.4677,3.4677,3.4037,3.324,3.3953,3.3444,3.2466,3.2466,3.219,3.1863,3.1863,3.1738,3.1612,3.1612,3.1235,3.0708,3.0156,3.003,0.0,2.9829,2.9804,2.9804,2.9804,2.9804,2.9804,2.9804,2.9804,2.9804,2.9804,2.9804,2.9804,2.9804,2.9804,2.9804,2.9804,2.9804,2.9804,2.9804,2.9804,2.9804,2.9804,2.9804,2.9804,2.9804,2.9804,2.9804,2.9804,2.9804,2.9804,2.9804,2.9804,2.9804,2.9804,2.9804,2.9804,2.9779,2.8435,2.7405,2.6601,2.5567,2.4887,2.4609,2.4922,2.5137,2.5273,2.5605,2.5742,2.5742,2.5742,2.5742,2.5742,2.5742,2.5742,2.5742,0.0,0.0,0.0,0.0,0.0,0.0,0.0,0.0,0.0,0.0,0.0,0.0,0.0,3.9409,3.9409,3.9409,3.9409,3.9409,3.9409,3.9409,3.9409,3.9409,3.9409,3.9409,3.9409,3.9409,3.9409,3.9379,3.9379,3.9379,3.9349,3.9349,3.9349,3.9349,3.9349,3.9379,3.9307,3.8264,3.7814,3.7663,3.6682,3.5601,3.4677,3.4677,3.4037,3.3068,3.3154,3.3154,3.3043,3.3043,3.3043,3.3018,3.3018,3.2641,3.219,3.219,3.1813,3.126,3.0733,3.0583,3.0457,2.993,2.9804,2.9804,2.9804,2.9804,2.9804,2.9804,2.9804,2.9804,2.9804,2.9804,2.9804,2.9804,2.9804,2.9804,2.9804,2.9804,2.9804,2.9804,2.9804,2.9804,0.0,2.9804,2.9804,2.9804,2.9804,2.9804,2.9804,2.9804,2.9804,2.9804,2.9804,2.9804,2.9804,2.9804,2.9804,2.9804,2.7952,2.7093,2.7008,2.5247,2.4629,2.5059,2.5059,2.5312,2.5723,2.5723,2.5742,2.5742,2.5742,2.5742,2.5742,2.5742,2.5742,2.5742,0.0,0.0,0.0,0.0,0.0,0.0,0.0,0.0,0.0,0.0,0.0,0.0,0.0,0.0,0.0,0.0,3.9409,3.9409,3.9409,3.9409,3.9409,3.9409,3.9409,3.9409,3.9409,3.9409,3.9409,3.9409,3.9409,3.9409,3.9409,3.9409,3.9409,3.9409,3.9409,3.9409,3.9337,3.9017,3.887,3.887,3.8472,3.7663,3.6632,3.6001,3.5034,3.4037,0.0,3.3068,3.3068,3.3068,3.3068,3.3068,3.3068,3.2943,3.2717,3.2315,3.2089,3.1813,3.1286,3.1135,3.1085,3.0909,3.0583,3.0331,3.0331,3.0055,2.9804,2.9804,2.9804,2.9804,2.9804,2.9804,2.9804,2.9804,2.9804,2.993,3.0281,3.0331,3.0457,3.0809,3.0859,0.0,0.0,0.0,0.0,2.9804,2.9804,2.9804,2.9804,2.9804,2.9804,2.9804,2.9804,2.9804,2.9804,3.0156,3.0331,3.0331,2.8486,2.7763,2.801,2.586,2.5098,2.5508,2.5508,2.5605,2.5742,2.5742,2.5742,2.5742,2.5742,2.5742,2.5742,2.5742,2.5742,2.5742,0.0,0.0,0.0,0.0,0.0,0.0,0.0,0.0,0.0,0.0,0.0,0.0,0.0,0.0,0.0,0.0,0.0,3.9409,3.9409,3.9409,3.9409,3.9409,3.9409,3.9409,3.9409,3.9409,3.9409,3.9409,3.9409,3.9409,3.9409,3.9409,3.9409,3.9409,3.9409,3.9409,3.9409,3.9409,3.9409,3.9409,3.9409,3.8797,3.7663,3.6604,3.5601,0.0,3.3471,3.3068,3.3068,3.3068,3.3068,3.3068,3.3068,3.3068,3.2993,3.2641,3.2516,3.239,3.1838,3.1687,3.1637,3.1436,3.1135,3.0884,3.0884,3.0482,3.008,3.008,2.993,2.9804,2.9804,2.9804,2.9804,2.9804,2.9955,3.0206,3.0557,3.0783,3.1009,3.1361,3.1386,3.1386,0.0,0.0,0.0,3.0357,3.0357,3.0357,3.0357,3.0357,3.0357,3.0357,3.0357,3.0357,3.0357,3.0708,3.0555,2.9904,2.8746,2.792,2.7487,2.6034,2.5469,2.5742,2.5742,2.5742,2.5742,2.5742,2.5742,2.5742,2.5742,2.5742,2.5742,2.5742,2.5742,2.5742,0.0,0.0,0.0,0.0,0.0,0.0,0.0,0.0,0.0,0.0,0.0,0.0,0.0,0.0,0.0,0.0,0.0,0.0,3.9409,3.9409,3.9409,3.9409,3.9409,3.9409,3.9409,3.9409,3.9409,3.9409,3.9409,3.9409,3.9409,3.9409,3.9409,3.9409,3.9409,3.9409,3.9409,3.9409,3.9409,3.9409,3.9409,3.8797,3.7738,3.6604,3.5574,3.4677,3.3471,3.3068,3.3068,3.3068,3.3068,3.3068,3.3068,3.3068,3.3068,3.3068,3.3068,3.2968,3.2416,3.2265,3.2139,3.1612,3.1461,3.1436,3.1436,3.1035,3.0658,3.0658,3.0231,2.988,0.0,0.0,2.9829,2.9829,3.0281,3.0633,3.0658,3.111,3.1436,0.0,0.0,0.0,0.0,0.0,0.0,3.1486,0.0,3.1386,3.1386,3.1386,3.1386,3.1386,3.1386,3.1386,3.1386,3.1411,3.0579,2.8791,2.8791,2.7785,2.6014,2.582,2.582,2.5839,2.5742,2.5742,2.5742,2.5742,2.5742,2.5742,2.5742,2.5742,2.5742,2.5742,2.5742,2.5742,0.0,0.0,0.0,0.0,0.0,0.0,0.0,0.0,0.0,0.0,0.0,0.0,0.0,0.0,0.0,0.0,0.0,0.0,3.9409,3.9409,3.9409,3.9409,3.9409,3.9409,3.9409,3.9409,3.9409,3.9409,3.9409,3.9409,3.9409,3.9409,3.9409,3.9409,3.9409,3.9409,3.9409,3.9409,3.9409,3.9409,3.9409,3.9265,3.8767,3.6916,3.6053,3.5574,3.3784,3.3068,3.3068,3.3068,0.0,0.0,0.0,3.3068,3.3068,3.3068,3.3068,3.3043,3.2893,3.2867,3.2817,3.2692,3.2315,3.2014,3.2014,3.1587,3.1185,3.1185,3.1085,3.0984,0.0,0.0,0.0,3.0407,3.0532,0.0,3.1135,3.1662,0.0,3.2591,0.0,3.2641,3.2641,3.2641,0.0,0.0,3.1863,3.1386,3.1386,3.1386,3.1386,3.1386,3.1386,3.1386,3.1386,3.1813,3.2012,3.1956,3.1032,3.0279,2.9761,2.7955,2.7125,2.703,2.611,2.5742,2.5742,2.5742,2.5742,2.5742,2.5742,2.5742,2.5742,2.5742,2.5742,2.5742,0.0,0.0,0.0,0.0,0.0,0.0,0.0,0.0,0.0,0.0,0.0,0.0,0.0,0.0,0.0,0.0,0.0,0.0,0.0,3.9409,3.9409,3.9409,3.9409,3.9409,3.9409,3.9409,3.9409,3.9409,3.9409,3.9409,3.9409,3.9409,3.9409,3.9409,3.9409,3.9409,3.9409,3.9409,3.9409,0.0,0.0,3.9409,3.9192,3.7587,3.6604,3.5974,3.4345,3.3471,3.3154,0.0,0.0,3.3068,3.3068,3.3068,3.3068,3.3068,0.0,3.3068,3.3068,3.3068,3.3068,3.3068,3.2842,3.2591,3.2591,3.2164,3.1763,3.1763,3.1562,0.0,3.1386,0.0,0.0,0.0,0.0,0.0,3.1712,3.224,3.2717,0.0,3.3068,0.0,3.3068,3.3068,3.3068,0.0,3.2491,3.2139,3.2139,3.2139,3.2139,3.2139,3.2139,3.2139,3.2139,3.2441,3.2486,3.2239,3.1512,3.0956,3.0395,2.905,2.8143,2.76,0.0,2.6207,2.5742,2.5742,2.5742,2.5742,2.5742,2.5742,2.5742,2.5742,2.5742,2.5742,0.0,0.0,0.0,0.0,0.0,0.0,0.0,0.0,0.0,0.0,3.9409,0.0,0.0,0.0,0.0,0.0,0.0,0.0,0.0,0.0,3.9409,3.9409,3.9409,3.9409,3.9409,3.9409,3.9409,3.9409,3.9409,3.9409,3.9409,3.9409,3.9409,3.9409,3.9409,3.9409,3.9409,3.9409,3.9409,3.9409,3.9409,3.9409,3.9265,0.0,3.7252,3.629,3.5142,3.4204,0.0,0.0,3.3953,3.3154,3.324,3.324,3.3068,3.3068,3.3068,3.3068,3.3068,3.3068,3.3068,3.3068,3.3068,3.3068,3.3068,3.2692,3.2315,3.2315,0.0,3.1612,3.1612,3.1537,3.1486,3.1486,0.0,3.2215,3.2215,3.2717,3.3068,3.3068,3.3068,3.3068,3.3068,3.3068,3.3068,3.3068,3.3068,3.3068,3.3068,3.3068,3.3068,3.3068,3.3068,3.3068,3.3068,3.3068,3.2525,3.14,3.14,3.0866,2.9875,2.967,2.8958,2.7861,2.7673,0.0,2.5742,2.5742,2.5742,2.5742,2.5742,2.5742,2.5742,2.5742,2.5742,2.5742,0.0,0.0,0.0,0.0,0.0,0.0,0.0,0.0,0.0,0.0,3.9409,3.9409,0.0,0.0,0.0,0.0,0.0,0.0,0.0,0.0,0.0,3.9409,3.9409,3.9409,3.9409,3.9409,3.9409,3.9409,3.9409,3.9409,3.9409,3.9409,3.9409,3.9409,3.9409,3.9409,3.9409,3.9409,3.9409,3.9409,3.9409,3.9409,3.9265,3.8219,0.0,0.0,3.5386,0.0,0.0,0.0,3.3953,3.324,3.4121,3.3784,3.3068,3.3068,3.3068,3.3068,3.3068,3.3068,3.3068,3.3068,3.3068,3.3068,3.3068,3.2993,0.0,0.0,3.2842,3.2792,3.2792,3.239,3.2064,3.2064,0.0,0.0,0.0,0.0,3.3068,0.0,0.0,0.0,0.0,0.0,0.0,0.0,0.0,3.3068,3.3068,3.3068,3.3068,3.3068,3.3068,3.3068,3.3068,3.3068,3.2982,3.2785,3.2785,3.2698,3.2438,3.14,3.0214,2.905,2.8049,0.0,2.5742,2.5742,2.5742,2.5742,2.5742,2.5742,2.5742,2.5742,2.5742,2.5742,0.0,0.0,0.0,0.0,0.0,0.0,0.0,3.9409,3.9409,3.9409,3.9409,3.9409,3.9409,3.9409,3.9409,0.0,0.0,0.0,0.0,0.0,0.0,0.0,3.9409,3.9409,3.9409,3.9409,3.9409,3.9409,0.0,3.9409,3.9409,3.9409,3.9409,3.9409,3.9409,3.9409,3.9409,3.9409,3.9409,3.9409,3.9409,3.9409,3.9337,3.887,0.0,0.0,0.0,0.0,0.0,0.0,3.5601,3.4733,3.465,3.3953,3.3068,3.3068,3.3068,3.3068,3.3068,3.3068,3.3068,3.3068,3.3068,3.3068,3.3068,0.0,0.0,0.0,3.3068,3.3068,3.3068,0.0,0.0,0.0,0.0,0.0,0.0,0.0,0.0,0.0,0.0,0.0,0.0,0.0,0.0,0.0,0.0,3.3068,3.3068,3.3068,3.3068,3.3068,3.3068,3.3068,3.3068,3.3068,3.3068,3.3068,3.3068,3.3068,3.3068,3.2438,3.1512,3.0305,2.905,0.0,2.6668,2.6014,2.5742,2.5742,2.5742,2.5742,2.5742,2.5742,2.5742,2.5742,0.0,0.0,0.0,0.0,0.0,0.0,0.0,3.9409,3.9409,3.9409,3.9409,3.9409,3.9409,3.9409,3.9409,0.0,0.0,0.0,0.0,0.0,0.0,0.0,0.0,0.0,0.0,0.0,0.0,0.0,3.9409,0.0,0.0,0.0,0.0,0.0,3.9409,3.9409,3.9409,3.9409,3.9409,0.0,0.0,3.9409,0.0,0.0,0.0,0.0,0.0,0.0,0.0,0.0,3.7252,3.6369,3.5601,3.4677,3.37,3.324,3.324,3.3386,3.3154,3.3068,3.3068,3.3068,3.3068,3.3068,3.3068,3.3068,0.0,0.0,3.3068,3.3068,3.3068,0.0,0.0,0.0,0.0,0.0,0.0,0.0,0.0,0.0,0.0,0.0,0.0,0.0,0.0,0.0,0.0,0.0,3.3068,3.3068,3.3068,3.3068,3.3068,3.3068,3.3068,3.3068,3.3068,3.3068,3.3068,3.3068,3.3068,3.3068,3.2413,3.1134,3.0214,0.0,0.0,2.6476,2.5917,2.5742,2.5742,2.5742,2.5742,2.5742,2.5742,2.5742,0.0,0.0,0.0,0.0,0.0,0.0,0.0,3.9409,3.9409,3.9409,3.9409,3.9409,3.9409,3.9409,3.9409,0.0,0.0,0.0,0.0,0.0,0.0,0.0,0.0,0.0,0.0,0.0,0.0,0.0,0.0,0.0,0.0,0.0,0.0,0.0,0.0,0.0,3.9409,3.9409,0.0,0.0,0.0,0.0,0.0,0.0,0.0,0.0,0.0,0.0,0.0,0.0,0.0,3.7663,3.751,3.6788,3.5574,3.3615,0.0,0.0,3.3411,3.3068,3.3068,3.3068,3.3068,3.3068,3.3068,0.0,3.3068,3.3068,3.3068,3.3068,3.3068,3.3068,0.0,0.0,0.0,3.3068,0.0,0.0,0.0,0.0,0.0,0.0,0.0,0.0,0.0,0.0,0.0,0.0,3.3068,3.3068,3.3068,3.3068,3.3068,3.3068,3.3068,3.3068,3.3068,3.3068,3.3068,3.3068,3.3068,3.3068,3.2413,3.1223,3.1045,0.0,0.0,2.7505,2.6764,2.5742,2.5742,2.5742,2.5742,2.5742,2.5742,2.5742,0.0,0.0,0.0,0.0,0.0,0.0,4.0157,3.9679,3.9409,3.9409,3.9409,3.9409,3.9409,3.9409,3.9409,3.9409,0.0,0.0,0.0,0.0,0.0,0.0,0.0,0.0,0.0,0.0,3.9409,3.9409,0.0,0.0,0.0,0.0,0.0,0.0,0.0,0.0,0.0,3.9409,0.0,0.0,0.0,0.0,0.0,0.0,0.0,0.0,0.0,0.0,0.0,0.0,0.0,0.0,3.7994,3.7965,0.0,0.0,3.5278,3.5359,3.4345,3.4037,3.3869,3.324,3.3068,3.3068,3.3068,0.0,3.3068,3.3068,3.3068,3.3068,3.3068,3.3068,3.3068,3.3068,3.3068,0.0,0.0,0.0,0.0,0.0,0.0,0.0,0.0,0.0,0.0,0.0,0.0,0.0,3.3068,3.3068,3.3068,3.3068,3.3068,3.3068,3.3068,3.3068,3.3068,3.3068,3.3068,3.3068,3.3068,3.3068,3.2785,3.2326,3.1488,0.0,0.0,2.8236,2.7315,2.6764,2.6014,2.5742,2.5742,2.5742,2.5742,2.5742,0.0,0.0,0.0,0.0,0.0,4.1384,4.0516,4.0008,3.9649,3.9439,3.9409,3.9409,3.9409,3.9409,3.9409,3.9409,3.9409,0.0,0.0,0.0,0.0,0.0,0.0,0.0,0.0,0.0,3.9409,3.9409,3.9409,3.9409,0.0,0.0,0.0,0.0,0.0,0.0,0.0,0.0,0.0,0.0,0.0,0.0,0.0,0.0,0.0,0.0,0.0,0.0,0.0,0.0,0.0,0.0,0.0,0.0,0.0,0.0,3.6448,3.6448,3.544,3.5116,3.4979,3.4178,3.3784,3.3556,0.0,0.0,3.3068,3.3068,3.3068,3.3068,3.3068,3.3068,3.3068,3.3068,3.3068,3.3068,3.3068,0.0,0.0,0.0,0.0,0.0,0.0,0.0,0.0,0.0,0.0,0.0,3.3068,3.3068,3.3068,3.3068,3.3068,3.3068,3.3068,3.3068,3.3068,3.3068,3.3068,3.3068,3.3068,3.3068,3.3068,3.3068,3.2152,0.0,0.0,2.8958,2.7955,2.7505,2.6207,2.5742,2.5742,2.5742,2.5742,2.5742,0.0,0.0,0.0,0.0,0.0,0.0,4.0606,4.0397,4.0157,3.9499,3.9409,3.9409,3.9409,3.9409,3.9409,3.9409,3.9409,0.0,0.0,0.0,0.0,0.0,0.0,0.0,0.0,0.0,3.9409,3.9409,3.9409,3.9409,3.9409,3.9409,3.9409,0.0,0.0,0.0,0.0,0.0,0.0,0.0,0.0,0.0,0.0,0.0,0.0,0.0,0.0,0.0,0.0,0.0,0.0,0.0,0.0,3.9409,3.9017,3.6838,3.6944,3.751,3.6448,3.6212,3.6212,3.6212,3.544,3.4677,0.0,0.0,3.3068,3.3068,3.3068,3.3068,3.3068,3.3068,3.3068,3.3068,3.3068,3.3068,3.3068,0.0,0.0,0.0,0.0,0.0,0.0,0.0,0.0,0.0,0.0,0.0,3.3068,3.3068,3.3068,3.3068,3.3068,3.3068,3.3068,3.3068,3.3068,3.3068,3.3068,3.3068,3.3068,3.3068,3.3068,3.3068,0.0,0.0,0.0,2.9852,2.868,2.7505,2.6207,2.5742,2.5742,2.5742,2.5742,2.5742,0.0,0.0,0.0,0.0,0.0,0.0,0.0,4.0965,4.0337,4.0127,3.9709,3.9595,4.0239,3.9737,3.9595,4.0239,3.9737,0.0,0.0,0.0,0.0,0.0,0.0,0.0,0.0,3.9409,3.9409,3.9409,3.9409,3.9409,3.9409,3.9409,3.9409,3.9409,3.9409,0.0,0.0,0.0,0.0,0.0,0.0,0.0,0.0,0.0,0.0,0.0,0.0,0.0,0.0,0.0,0.0,0.0,0.0,0.0,0.0,3.862,3.862,3.862,3.7587,3.7252,3.6944,3.5521,3.4979,3.4511,3.3784,0.0,3.3068,3.3068,3.3068,3.3068,3.3068,3.3068,3.3068,3.3068,3.3068,3.3068,0.0,0.0,0.0,0.0,0.0,0.0,0.0,0.0,0.0,0.0,0.0,0.0,3.3068,3.3068,3.3068,3.3068,3.3068,3.3068,3.3068,3.3068,3.3068,3.3068,3.3068,3.3068,3.3068,3.3068,3.3068,0.0,0.0,0.0,0.0,3.1134,3.0395,2.9852,2.7767,2.703,2.6839,2.6014,2.5742,2.5742,0.0,0.0,0.0,0.0,0.0,0.0,0.0,4.1957,4.1085,4.094,4.0516,4.0475,4.1095,4.0721,4.0585,4.1131,4.0378,0.0,0.0,0.0,0.0,0.0,0.0,0.0,3.9409,3.9409,3.9409,3.9409,3.9409,3.9409,3.9409,3.9409,3.9409,3.9409,3.9409,3.9409,0.0,0.0,0.0,0.0,0.0,0.0,4.0157,0.0,0.0,0.0,0.0,0.0,0.0,0.0,0.0,0.0,0.0,0.0,0.0,0.0,3.9409,3.9265,3.862,3.8397,3.8069,3.6816,3.5842,3.5116,0.0,0.0,3.3068,3.3068,3.3068,3.3068,3.3068,3.3068,3.3068,3.3068,3.3068,3.3068,0.0,0.0,0.0,0.0,0.0,0.0,0.0,0.0,0.0,0.0,0.0,0.0,3.3068,3.3068,3.3068,3.3068,3.3068,3.3068,3.3068,3.3068,3.3068,3.3068,3.3068,3.3194,3.3395,3.3395,3.3495,0.0,0.0,0.0,0.0,3.2091,3.1413,3.0956,2.8495,2.76,2.7431,2.6386,2.5977,2.5996,0.0,0.0,0.0,0.0,0.0,0.0,0.0,4.3076,4.2349,4.1913,4.1736,4.1841,4.2141,4.2078,4.1981,4.2078,4.1295,0.0,0.0,0.0,0.0,0.0,0.0,0.0,3.9409,3.9409,3.9409,3.9409,3.9409,3.9409,3.9409,3.9409,3.9409,3.9409,3.9469,3.9529,0.0,0.0,0.0,0.0,4.1145,4.1384,0.0,0.0,0.0,0.0,0.0,0.0,0.0,0.0,0.0,0.0,0.0,0.0,0.0,0.0,0.0,0.0,0.0,3.9409,3.9337,3.9337,3.7814,3.629,3.6212,0.0,0.0,0.0,0.0,3.3154,3.3068,3.3068,3.3068,3.3068,3.3068,0.0,0.0,0.0,0.0,0.0,0.0,0.0,0.0,0.0,0.0,0.0,0.0,0.0,3.3068,3.3119,3.3144,3.3144,3.3169,3.3169,3.3068,3.3068,3.3093,3.3144,3.3144,3.342,3.3947,3.3947,3.4248,0.0,0.0,0.0,0.0,3.2738,3.195,3.1181,2.8861,2.7967,2.7746,2.6843,2.6526,2.6484,0.0,0.0,0.0,0.0,0.0,0.0,0.0,0.0,0.0,0.0,4.2395,4.227,4.3679,4.2781,4.2269,0.0,0.0,0.0,0.0,0.0,0.0,0.0,0.0,0.0,3.9409,3.9409,3.9409,3.9409,3.9409,3.9409,3.9409,3.9409,3.9409,3.9439,3.9948,4.0457,0.0,0.0,0.0,0.0,4.1324,4.1384,0.0,0.0,0.0,0.0,4.1384,4.1294,0.0,0.0,0.0,0.0,0.0,0.0,0.0,0.0,3.9409,3.9409,3.9409,0.0,3.9192,3.8397,3.7814,3.7175,0.0,0.0,0.0,0.0,0.0,0.0,0.0,0.0,3.3068,0.0,0.0,0.0,0.0,0.0,0.0,0.0,0.0,0.0,0.0,0.0,0.0,0.0,0.0,3.3068,3.3068,3.347,3.3696,3.3696,3.4123,3.3922,3.3093,3.3068,3.3294,3.3696,3.3696,3.3997,3.4525,3.4525,3.46,0.0,0.0,0.0,3.3922,3.408,3.3727,3.3192,3.2085,3.1012,2.9987,2.8852,2.7723,2.6875,0.0,0.0,0.0,0.0,0.0,0.0,0.0,0.0,0.0,0.0,4.4341,4.43,4.5369,4.4395,4.3845,0.0,0.0,0.0,0.0,0.0,0.0,0.0,0.0,4.0378,3.999,3.999,3.9809,3.9409,3.9409,3.9409,3.9439,3.9738,3.9858,3.9888,4.0546,4.1055,0.0,0.0,0.0,4.1863,4.2162,0.0,0.0,0.0,0.0,0.0,4.2282,4.2073,0.0,4.1414,4.1085,4.0726,0.0,0.0,0.0,0.0,3.9409,3.9409,3.9409,3.9409,3.9265,3.8694,3.8144,3.7663,3.7098,0.0,0.0,0.0,0.0,0.0,0.0,0.0,0.0,0.0,0.0,0.0,0.0,0.0,0.0,0.0,0.0,0.0,0.0,0.0,0.0,0.0,0.0,3.3822,3.3822,3.4123,3.4274,3.4274,3.4575,3.4424,3.3847,3.3822,3.3972,3.4274,3.4274,3.4575,3.5102,3.5102,3.5228,0.0,0.0,0.0,3.4675,3.4977,3.4776,3.4209,3.3276,3.2418,3.159,2.9968,2.8876,2.8228,0.0,0.0,0.0,0.0,0.0,0.0,0.0,0.0,0.0,0.0,0.0,0.0,0.0,0.0,0.0,0.0,0.0,0.0,0.0,0.0,0.0,0.0,4.252,4.1658,4.0863,4.0758,4.0378,3.9625,3.9481,3.9469,3.9589,4.0127,4.0516,4.0726,4.1415,4.1716,4.1713,4.2282,4.2521,4.2551,4.312,0.0,0.0,0.0,0.0,0.0,0.0,0.0,0.0,4.2402,4.1983,4.1384,4.0636,0.0,0.0,0.0,0.0,0.0,3.9409,3.9409,3.9409,3.9409,3.8694,3.8069,3.8069,0.0,0.0,0.0,0.0,0.0,0.0,0.0,0.0,0.0,0.0,0.0,0.0,0.0,0.0,0.0,0.0,0.0,0.0,0.0,0.0,0.0,0.0,3.4726,3.4726,3.4801,3.4851,3.4851,3.4926,3.4977,3.4977,3.4801,3.4776,3.4851,3.4851,3.5127,3.568,3.568,3.5931,3.6358,0.0,0.0,3.5554,3.5629,3.5353,3.476,3.3801,3.3335,3.2913,3.0899,2.9944,2.9599,0.0,0.0,0.0,0.0,0.0,0.0,0.0,0.0,0.0,0.0,0.0,0.0,0.0,0.0,0.0,0.0,0.0,0.0,0.0,0.0,0.0,4.4384,4.2831,4.1949,4.1788,4.1095,4.0622,4.0485,3.9737,3.9709,4.0247,4.0337,4.0995,4.2149,4.3057,4.3274,4.303,4.315,4.318,4.318,4.3299,0.0,0.0,0.0,0.0,0.0,0.0,0.0,0.0,4.2551,4.2282,4.1983,4.0786,0.0,0.0,0.0,0.0,0.0,3.9409,3.9409,3.9409,3.9409,3.9265,3.9192,3.9192,0.0,0.0,0.0,0.0,0.0,0.0,0.0,0.0,0.0,0.0,0.0,0.0,0.0,0.0,0.0,0.0,0.0,0.0,0.0,0.0,0.0,0.0,3.4726,3.4726,3.5177,3.5429,3.5429,3.5855,3.6107,3.6107,3.5177,3.4951,3.5429,3.5429,3.5705,3.6232,3.6232,3.6282,3.6358,0.0,3.6056,3.5579,3.6031,3.5906,3.5361,3.5744,3.5135,3.3953,3.2497,3.1229,3.0016,0.0,0.0,0.0,0.0,0.0,0.0,0.0,0.0,0.0,0.0,0.0,0.0,0.0,0.0,0.0,0.0,0.0,0.0,0.0,0.0,4.5196,4.5196,4.4397,4.3563,4.274,4.1853,4.135,4.1248,4.0353,4.054,4.1759,4.2571,4.321,4.3701,4.4198,4.393,4.3329,4.3329,4.3329,4.3329,0.0,0.0,0.0,0.0,0.0,0.0,0.0,0.0,0.0,0.0,4.288,4.2731,4.1773,0.0,0.0,0.0,0.0,0.0,3.9409,3.9409,3.9409,3.9409,3.9409,3.9409,3.9409,0.0,0.0,0.0,0.0,0.0,0.0,0.0,0.0,0.0,0.0,0.0,0.0,0.0,0.0,0.0,0.0,0.0,0.0,0.0,0.0,0.0,0.0,0.0,3.5604,3.5855,3.5981,3.5981,3.6232,3.6358,3.6358,3.5855,3.573,3.5981,3.5981,3.6107,3.6358,3.6358,3.6358,3.6358,0.0,3.6207,3.6006,3.6257,3.6207,3.6006,3.6257,3.6048,3.5259,3.3032,3.1418,3.012,0.0,0.0,0.0,0.0,0.0,0.0,0.0,0.0,0.0,0.0,0.0,0.0,0.0,0.0,0.0,0.0,0.0,0.0,0.0,4.6278,4.5974,4.5974,4.5974,4.5278,4.3886,4.3193,4.2749,4.2585,4.1709,4.1976,4.338,4.4984,4.5553,4.5153,4.5374,4.493,4.3974,4.3771,4.3615,4.3615,0.0,0.0,0.0,0.0,0.0,0.0,0.0,0.0,0.0,0.0,0.0,0.0,0.0,0.0,0.0,4.0636,4.0038,3.9619,3.9469,3.9409,3.9409,3.9409,0.0,3.9409,3.9409,0.0,0.0,0.0,0.0,0.0,0.0,0.0,0.0,0.0,0.0,0.0,0.0,0.0,0.0,0.0,0.0,0.0,0.0,0.0,0.0,0.0,0.0,0.0,3.6452,3.6615,3.6709,3.6452,3.6358,3.6358,3.6358,3.6358,3.6358,3.6358,3.6358,3.6358,3.6358,3.6358,3.6358,3.6358,3.6358,3.6358,3.6358,3.6358,3.6358,3.6358,3.6358,3.6263,3.5667,3.3231,3.1418,3.012,0.0,0.0,0.0,0.0,0.0,0.0,0.0,0.0,0.0,0.0,0.0,0.0,0.0,0.0,0.0,0.0,0.0,0.0,0.0,4.6752,4.6718,4.6718,4.6718,4.638,4.5578,4.5341,4.5203,4.5206,4.4331,4.4313,4.5053,4.668,4.6971,4.6103,4.7036,4.6867,4.5961,4.5079,4.4662,4.4586,4.3693,0.0,0.0,0.0,0.0,0.0,0.0,0.0,0.0,0.0,0.0,0.0,0.0,0.0,4.2043,4.0756,4.0367,4.0187,3.9589,3.9409,3.9409,3.9409,3.9409,0.0,3.9409,3.9409,0.0,0.0,0.0,0.0,0.0,0.0,0.0,0.0,0.0,0.0,0.0,0.0,0.0,0.0,0.0,0.0,0.0,0.0,0.0,0.0,0.0,0.0,3.6546,3.7402,3.7494,3.6452,3.6358,3.6358,3.6358,3.6358,3.6358,3.6358,3.6358,3.6358,3.6358,3.6358,3.6358,3.6358,3.6358,3.6358,3.6358,3.6358,3.6358,3.6358,3.6358,3.5667,3.4385,3.2855,3.1418,3.012,0.0,0.0,0.0,0.0,0.0,0.0,0.0,0.0,0.0,0.0,0.0,0.0,0.0,0.0,0.0,0.0,0.0,0.0,0.0,4.7733,4.7496,4.7496,4.7496,4.7361,4.709,4.6062,4.5692,4.6123,4.6291,4.6419,4.6713,4.7899,4.7933,4.7104,4.744,4.7104,4.6103,4.5227,4.4812,4.4737,4.4358,4.3849,0.0,0.0,0.0,0.0,0.0,0.0,0.0,0.0,4.3329,4.3299,4.303,4.2671,4.2192,4.1265,4.0726,4.0247,3.9589,3.9409,3.9409,3.9409,0.0,0.0,0.0,0.0,0.0,0.0,0.0,0.0,0.0,0.0,0.0,0.0,0.0,0.0,0.0,0.0,0.0,0.0,0.0,0.0,0.0,0.0,0.0,0.0,0.0,0.0,3.8675,3.9006,3.8649,3.7494,3.7494,3.715,3.6452,3.6358,3.6358,3.6358,3.6358,3.6358,3.6358,3.6358,3.6358,3.6358,3.6358,3.6358,3.6358,3.6358,3.6358,3.6358,3.6358,3.6073,3.5475,3.4068,3.2755,3.1316,0.0,0.0,0.0,0.0,0.0,0.0,0.0,0.0,0.0,0.0,0.0,0.0,0.0,0.0,0.0,0.0,0.0,0.0,4.9018,4.8545,4.8274,4.8274,4.8274,4.8274,4.8274,4.7178,4.6832,4.7301,4.7766,4.7998,4.8096,4.8702,4.8639,4.7998,4.7998,4.7671,4.7036,4.6064,4.5706,4.5634,4.5005,4.4586,0.0,0.0,0.0,0.0,0.0,0.0,0.0,0.0,4.3536,4.3329,4.3329,4.288,4.2299,4.1564,4.0905,4.0247,3.9589,3.9409,3.9409,0.0,0.0,0.0,0.0,0.0,0.0,0.0,0.0,0.0,0.0,0.0,0.0,0.0,0.0,0.0,0.0,0.0,0.0,0.0,0.0,0.0,0.0,0.0,0.0,0.0,0.0,0.0,0.0,4.0232,3.9711,3.8107,3.8107,3.7586,3.6452,3.6358,3.6358,3.6358,3.6358,3.6358,3.6358,3.6358,3.6358,3.6358,3.6358,3.6358,3.6358,3.6358,3.6358,3.6358,3.6358,3.6358,3.6263,3.4872,3.3773,3.2755,0.0,0.0,0.0,0.0,0.0,0.0,0.0,0.0,0.0,0.0,0.0,0.0,0.0,0.0,0.0,0.0,0.0,0.0,4.9018,4.9018,4.9018,4.9018,4.9018,4.9018,4.9018,4.9018,4.9018,4.9018,4.9018,4.9018,4.9018,4.9018,4.9018,4.9018,4.9018,4.9018,4.8923,4.7998,4.7572,4.744,4.5561,4.5342,4.6103,0.0,0.0,0.0,0.0,0.0,0.0,0.0,4.4128,4.3329,4.3329,4.288,4.2299,4.1564,4.0905,4.0247,3.9589,3.9409,0.0,0.0,0.0,0.0,0.0,0.0,0.0,0.0,0.0,0.0,0.0,0.0,0.0,0.0,0.0,0.0,0.0,0.0,0.0,0.0,0.0,0.0,0.0,0.0,0.0,0.0,0.0,0.0,0.0,4.1,4.0547,3.8198,3.8107,3.7586,3.6452,3.6358,3.6358,3.6358,3.6358,3.6358,3.6358,3.6358,3.6358,3.6358,3.6358,3.6358,3.6358,3.6358,3.6358,3.6358,3.6358,3.6358,3.6263,3.4872,3.4385,3.397,0.0,0.0,0.0,0.0,0.0,0.0,0.0,0.0,0.0,0.0,0.0,0.0,0.0,0.0,0.0,0.0,0.0,0.0,4.9018,4.9018,4.9018,4.9018,4.9018,4.9018,4.9018,4.9018,4.9018,4.9018,4.9018,4.9018,4.9018,4.9018,4.9018,4.9018,4.9018,4.9018,4.8923,4.7998,4.7572,4.7506,4.6968,4.6523,4.6244,0.0,0.0,0.0,0.0,0.0,0.0,0.0,0.0,0.0,4.4705,4.3987,4.3174,4.1965,4.1031,4.0247,3.9589,0.0,0.0,0.0,0.0,0.0,0.0,0.0,0.0,0.0,0.0,0.0,0.0,0.0,0.0,0.0,0.0,0.0,0.0,0.0,0.0,0.0,0.0,0.0,0.0,0.0,0.0,0.0,0.0,0.0,0.0,4.2629,4.2111,4.0632,3.9357,3.8397,3.7586,3.6421,3.5981,3.6358,3.6358,3.6358,3.6358,3.6358,3.6358,3.6358,3.6358,3.6358,3.6358,3.6358,3.6358,3.6358,3.6358,3.6358,3.6358,3.5953,3.5162,3.4288,0.0,0.0,0.0,0.0,0.0,0.0,0.0,0.0,0.0,0.0,4.9018,4.9018,0.0,0.0,0.0,0.0,0.0,0.0,4.9018,4.9018,4.9018,4.9018,4.9018,4.9018,4.9018,4.9018,4.9018,4.9018,4.9018,4.9018,4.9018,4.9018,4.9018,4.9018,4.9018,4.9018,4.8923,4.8386,4.8161,4.8161,4.7737,4.744,4.7306,0.0,0.0,0.0,0.0,0.0,0.0,0.0,0.0,0.0,4.4793,4.385,4.2869,4.2379,4.1137,3.9991,3.9899,0.0,0.0,0.0,0.0,0.0,0.0,0.0,0.0,0.0,0.0,0.0,0.0,0.0,0.0,0.0,0.0,0.0,0.0,0.0,0.0,0.0,0.0,0.0,0.0,0.0,0.0,0.0,0.0,0.0,0.0,4.294,4.2317,4.0838,3.981,3.8721,3.7674,3.6638,3.6243,3.6358,3.6358,3.6358,3.6358,3.6358,3.6358,3.6358,3.6358,3.6358,3.6358,3.6358,3.6358,3.6358,3.6358,3.6358,3.6358,3.6358,3.5858,3.5066,0.0,0.0,4.9018,4.9018,0.0,0.0,0.0,0.0,0.0,0.0,4.9018,4.9018,0.0,0.0,0.0,0.0,0.0,0.0,0.0,4.9018,4.9018,4.9018,4.9018,4.9018,4.9018,4.9018,4.9018,4.9018,4.9018,4.9018,4.9018,4.9018,4.9018,4.9018,4.9018,4.9018,4.9018,4.9018,4.9018,4.8923,4.803,4.8125,4.8821,4.7897,0.0,0.0,0.0,0.0,0.0,0.0,0.0,0.0,4.4163,4.3178,4.206,4.2842,4.1392,3.9809,0.0,0.0,0.0,0.0,0.0,0.0,0.0,0.0,0.0,0.0,0.0,0.0,0.0,0.0,0.0,0.0,0.0,0.0,0.0,0.0,0.0,0.0,0.0,0.0,0.0,0.0,0.0,0.0,0.0,0.0,0.0,4.2282,4.1488,3.9823,3.9578,3.8863,3.7414,3.721,3.6897,3.6546,3.6452,3.6358,3.6358,3.6358,3.6358,3.6358,3.6358,3.6358,3.6358,3.6358,3.6358,3.6358,3.6358,3.6358,3.6358,3.6358,3.6358,3.6263,0.0,0.0,4.9018,4.9018,0.0,0.0,0.0,0.0,0.0,0.0,0.0,0.0,0.0,0.0,0.0,0.0,0.0,0.0,0.0,4.9018,4.9018,4.9018,4.9018,4.9018,4.9018,4.9018,4.9018,4.9018,4.9018,4.9018,4.9018,4.9018,4.9018,4.9018,4.9018,4.9018,4.9018,4.9018,4.9018,4.8951,4.8158,4.7956,4.801,4.7282,4.6978,0.0,0.0,0.0,0.0,0.0,0.0,0.0,4.5511,4.4632,4.3714,4.3379,4.2397,4.1494,0.0,0.0,0.0,0.0,0.0,0.0,0.0,0.0,0.0,0.0,0.0,0.0,0.0,0.0,0.0,0.0,0.0,0.0,0.0,0.0,0.0,0.0,0.0,0.0,0.0,0.0,0.0,0.0,0.0,0.0,4.1624,4.1594,4.1428,4.105,3.9722,3.9276,3.9869,3.7628,3.6928,0.0,3.6803,3.6358,3.6358,3.6358,3.6358,3.6358,3.6358,3.6358,3.6358,3.6358,3.6358,3.6358,3.6358,3.6358,3.6358,3.6358,3.6358,3.6358,0.0,0.0,0.0,0.0,0.0,0.0,0.0,0.0,0.0,0.0,0.0,0.0,0.0,0.0,0.0,0.0,0.0,0.0,4.9018,4.9018,4.9018,4.9018,4.9018,4.9018,4.9018,4.9018,4.9018,4.9018,4.9018,4.9018,4.9018,4.9018,4.9018,4.9018,4.9018,4.9018,4.9018,4.9018,4.8815,4.8443,4.8071,4.7699,4.7327,4.6955,4.6583,4.6278,4.6278,0.0,0.0,0.0,0.0,0.0,0.0,0.0,4.3905,4.3931,4.3047,4.2045,0.0,0.0,0.0,0.0,0.0,0.0,0.0,0.0,0.0,0.0,0.0,0.0,0.0,0.0,0.0,0.0,0.0,0.0,0.0,0.0,0.0,0.0,0.0,0.0,0.0,0.0,0.0,0.0,0.0,4.1594,4.0935,4.0905,4.0756,4.0457,3.955,3.917,3.9363,3.7781,3.7148,3.7243,3.6709,3.6358,3.6358,3.6358,3.6358,3.6358,3.6358,3.6358,3.6358,3.6358,3.6358,3.6358,3.6358,3.6358,3.6358,3.6358,3.6358,3.6358,0.0,0.0,0.0,0.0,0.0,0.0,0.0,0.0,0.0,0.0,0.0,0.0,0.0,0.0,0.0,0.0,0.0,0.0,4.9018,4.9018,4.9018,4.9018,4.9018,4.9018,4.9018,4.9018,4.9018,4.9018,4.9018,4.9018,4.9018,4.9018,4.9018,4.9018,4.9018,4.9018,4.8984,4.8883,4.8477,4.7902,4.7631,4.7158,4.6583,4.6447,4.6041,4.55,4.55,4.5128,4.4587,4.4587,0.0,0.0,0.0,0.0,4.368,4.4384,4.3588,4.2583,0.0,0.0,0.0,0.0,0.0,0.0,0.0,0.0,0.0,0.0,0.0,0.0,0.0,0.0,0.0,0.0,0.0,0.0,0.0,0.0,0.0,0.0,0.0,0.0,0.0,0.0,0.0,0.0,0.0,4.0935,4.0277,4.0217,3.9978,3.9439,3.9409,3.9086,3.8529,3.8145,3.7558,3.6989,3.664,3.6358,3.6358,3.6358,3.6358,3.6358,3.6358,3.6358,3.6358,3.6358,3.6358,3.6358,3.6358,3.6358,3.6358,3.6358,3.6358,3.6358,0.0,0.0,0.0,0.0,0.0,0.0,0.0,0.0,0.0,0.0,4.9018,4.9018,0.0,0.0,4.9018,4.9018,4.9018,4.9018,4.9018,0.0,0.0,4.9018,4.9018,4.9018,4.9018,4.9018,4.9018,4.9018,4.9018,4.9018,4.9018,4.9018,4.9018,4.9018,4.9018,4.9018,4.8951,4.8342,4.8003,4.78,4.6515,4.594,4.5771,4.5128,4.4823,4.4722,4.4722,4.4654,4.4587,4.4587,4.4587,0.0,0.0,0.0,4.444,4.4587,4.444,0.0,0.0,0.0,0.0,0.0,0.0,0.0,0.0,0.0,0.0,0.0,0.0,0.0,0.0,0.0,0.0,0.0,0.0,0.0,0.0,0.0,0.0,0.0,0.0,0.0,0.0,0.0,0.0,0.0,4.0576,4.0247,3.9589,3.9559,3.9499,3.9409,3.9409,3.9891,4.0944,3.8883,3.8416,3.936,3.7335,3.6358,3.6358,3.6358,3.6358,3.6358,3.6358,3.6358,3.6358,3.6358,3.6358,3.6358,3.6358,3.6358,3.6358,3.6358,3.6358,3.6358,0.0,0.0,0.0,0.0,0.0,0.0,0.0,0.0,0.0,0.0,0.0,4.9018,0.0,4.9018,4.9018,4.9018,4.9018,4.9018,4.9018,4.9018,4.9018,4.9018,4.9018,4.9018,4.9018,4.9018,4.9018,4.9018,4.9018,4.9018,4.9018,4.9018,4.9018,4.9018,4.9018,4.9018,4.8951,4.824,4.7665,4.7192,4.6143,4.5466,4.5026,4.4688,4.4587,4.4587,4.4587,4.4587,4.4587,0.0,4.4587,4.4587,4.4587,0.0,0.0,0.0,0.0,0.0,0.0,0.0,0.0,0.0,0.0,0.0,0.0,0.0,0.0,0.0,0.0,0.0,0.0,0.0,0.0,0.0,0.0,0.0,0.0,0.0,0.0,0.0,0.0,0.0,0.0,0.0,0.0,0.0,4.0068,3.9738,3.9439,3.9409,3.9409,3.9409,3.9409,3.9713,4.0373,3.8721,3.7903,3.7952,3.6896,3.6358,3.6358,3.6358,3.6358,3.6358,3.6358,3.6358,3.6358,3.6358,3.6358,3.6358,3.6358,3.6358,3.6358,3.6358,3.6358,3.6358,0.0,0.0,0.0,0.0,0.0,0.0,0.0,0.0,0.0,0.0,0.0,0.0,0.0,0.0,0.0,0.0,4.9018,4.9018,4.9018,4.9018,4.9018,4.9018,4.9018,4.9018,4.9018,4.9018,4.9018,4.9018,4.9018,4.9018,4.9018,4.9018,4.9018,4.9018,4.9018,4.8917,4.868,4.7936,4.7192,4.6447,4.5703,4.5094,4.4587,4.4587,4.4587,4.4587,4.4587,4.4587,0.0,0.0,0.0,0.0,0.0,0.0,0.0,0.0,0.0,0.0,0.0,0.0,0.0,0.0,0.0,0.0,0.0,0.0,0.0,0.0,0.0,0.0,0.0,0.0,0.0,0.0,0.0,0.0,0.0,0.0,0.0,0.0,0.0,0.0,0.0,0.0,0.0,0.0,3.9709,3.9409,3.9409,3.9409,3.9409,3.9409,3.9409,3.9639,4.0031,3.8947,3.7678,3.6358,3.6358,3.6358,3.6358,3.6358,3.6358,3.6358,3.6358,3.6358,3.6358,3.6358,3.6358,3.6358,3.6358,3.6358,3.6358,3.6358,3.6358,3.6358,0.0,0.0,0.0,0.0,0.0,0.0,0.0,0.0,0.0,0.0,0.0,0.0,4.9018,4.9018,4.9018,4.9018,4.9018,4.9018,4.9018,4.9018,4.9018,4.9018,4.9018,0.0,4.9018,4.9018,4.9018,4.9018,4.9018,4.9018,4.9018,4.9018,4.9018,4.9018,4.9018,4.8612,4.7936,4.7158,4.6413,4.5703,4.4925,4.4621,4.4587,4.4587,4.4587,4.4587,4.4587,0.0,0.0,0.0,0.0,0.0,0.0,0.0,0.0,0.0,0.0,0.0,0.0,0.0,0.0,0.0,0.0,0.0,0.0,0.0,0.0,0.0,0.0,0.0,0.0,0.0,0.0,0.0,0.0,0.0,0.0,0.0,0.0,0.0,0.0,0.0,0.0,0.0,0.0,0.0,3.9439,3.9409,3.9409,3.9409,3.9409,3.9409,3.9409,3.9964,4.1279,4.0319,3.8684,3.6358,3.6358,3.6358,3.6358,3.6358,3.6358,3.6358,3.6358,3.6358,3.6358,3.6358,3.6358,3.6358,3.6358,3.6358,3.6358,3.6358,3.6358,3.6358,0.0,0.0,0.0,0.0,0.0,0.0,0.0,0.0,0.0,0.0,0.0,0.0,0.0,4.9018,4.9018,4.9018,4.9018,4.9018,4.9018,4.9018,4.9018,4.9018,4.9018,4.9018,4.9018,4.9018,4.9018,4.9018,4.9018,4.9018,4.9018,4.9018,4.9018,4.9018,4.9018,4.8612,4.7868,4.7124,4.638,4.5635,4.4891,4.4587,4.4587,4.4587,0.0,0.0,0.0,0.0,0.0,0.0,0.0,0.0,0.0,0.0,0.0,0.0,0.0,0.0,0.0,0.0,0.0,0.0,0.0,0.0,0.0,0.0,0.0,0.0,0.0,0.0,0.0,0.0,0.0,0.0,0.0,0.0,0.0,0.0,0.0,0.0,0.0,0.0,0.0,0.0,0.0,0.0,0.0,3.9409,3.9409,3.9409,3.9409,3.9409,3.9409,3.9312,3.9126,3.9619,3.8738,3.6358,3.6358,3.6358,3.6358,3.6358,3.6358,3.6358,3.6358,3.6358,3.6358,3.6358,3.6358,3.6358,3.6358,3.6358,3.6358,3.6358,3.6358,3.6358,0.0,0.0,0.0,0.0,0.0,0.0,0.0,0.0,0.0,4.9018,0.0,0.0,0.0,0.0,4.9018,4.9018,4.9018,4.9018,4.9018,4.9018,4.9018,4.9018,4.9018,0.0,4.9018,4.8781,4.8748,4.9018,4.8748,4.8781,4.9018,4.9018,4.9018,4.9018,4.9018,4.8443,4.7496,0.0,0.0,4.5297,4.479,4.4587,4.4587,0.0,0.0,0.0,0.0,0.0,0.0,0.0,0.0,0.0,0.0,0.0,0.0,0.0,0.0,0.0,4.4587,0.0,0.0,0.0,0.0,0.0,0.0,0.0,0.0,0.0,0.0,0.0,0.0,0.0,0.0,0.0,0.0,0.0,0.0,0.0,0.0,0.0,0.0,0.0,0.0,0.0,0.0,0.0,0.0,0.0,3.9409,3.9409,3.9409,3.9409,3.9858,3.9601,3.8447,3.9788,3.9536,3.7612,3.715,3.6964,3.6989,3.6546,3.6358,3.6358,3.6358,3.6358,3.6358,3.6358,3.6358,3.6358,3.6358,3.6358,3.6358,3.6358,3.6358,3.6358,0.0,0.0,0.0,0.0,0.0,0.0,0.0,0.0,4.9018,4.9018,0.0,0.0,0.0,0.0,0.0,4.9018,4.9018,4.9018,4.9018,4.9018,4.9018,4.9018,4.9018,4.9018,4.9018,4.8308,4.8308,4.9018,4.8308,4.8308,4.9018,4.9018,4.9018,4.9018,4.9018,4.8173,4.6786,0.0,4.594,4.4587,0.0,4.4587,4.4587,0.0,0.0,0.0,4.4587,4.4587,0.0,0.0,0.0,0.0,0.0,0.0,0.0,0.0,0.0,0.0,0.0,0.0,0.0,0.0,0.0,0.0,4.4587,0.0,4.329,4.3323,4.1917,4.0758,4.069,3.999,3.9619,4.0277,3.9828,3.9409,3.9409,3.9409,3.9409,3.9409,3.9409,3.9409,3.9409,3.9409,3.9409,0.0,3.9409,3.9409,3.9409,3.9409,3.9409,3.9409,4.0696,4.079,3.9635,4.0953,4.1,3.9913,3.8738,3.8107,3.8017,3.6989,3.6452,3.6358,3.6358,3.6358,3.6358,3.6358,3.6358,3.6358,3.6358,3.6358,3.6358,3.6358,3.6358,3.6358,0.0,0.0,0.0,0.0,0.0,4.9018,4.9018,4.9018,4.9018,0.0,0.0,0.0,4.9018,4.9018,4.9018,4.9018,4.9018,4.9018,4.9018,4.9018,4.9018,4.9018,4.9018,4.9018,4.9018,4.8815,4.8815,4.9018,4.8815,4.8815,4.9018,4.9018,4.9018,4.9018,4.9018,4.8173,4.6786,4.6786,0.0,0.0,4.4587,4.4587,0.0,0.0,0.0,0.0,0.0,4.4587,0.0,0.0,4.4587,4.4587,0.0,0.0,0.0,0.0,0.0,0.0,4.4587,0.0,0.0,0.0,0.0,0.0,4.4587,4.4384,4.4064,4.3443,4.2925,4.2205,4.0961,4.0485,4.0161,3.9721,3.9529,3.9409,3.9409,3.9409,3.9409,3.9409,3.9409,3.9409,3.9409,3.9409,3.9409,0.0,3.9409,3.9409,3.9409,3.9409,3.9409,3.9409,4.0696,4.079,3.9635,4.0953,4.1,3.9913,3.9536,3.8917,3.8107,3.7769,3.715,3.6358,3.6358,3.6358,3.6358,3.6358,3.6358,3.6358,3.6358,3.6358,3.6358,3.6358,3.6358,3.6358,0.0,0.0,4.9018,4.9018,4.9018,4.9018,4.9018,4.9018,4.9018,0.0,0.0,0.0,4.9018,4.9018,4.9018,4.9018,4.9018,4.9018,4.9018,4.9018,4.9018,4.9018,4.9018,4.9018,4.9018,4.8714,4.8714,4.9018,4.8714,4.8714,4.9018,4.9018,4.9018,4.9018,4.9018,4.8173,4.6786,0.0,0.0,0.0,4.4587,0.0,0.0,4.4587,4.4587,0.0,0.0,0.0,4.4587,4.4587,4.4587,0.0,0.0,0.0,0.0,0.0,0.0,0.0,4.4587,4.4587,0.0,0.0,0.0,0.0,4.4587,4.4587,4.444,0.0,4.3562,4.2925,4.1462,4.0961,4.0447,3.9553,3.9409,3.9409,3.9409,3.9409,3.9409,3.9409,3.9409,3.9409,3.9409,3.9409,3.9409,3.9409,3.9409,3.9409,3.9409,3.9409,3.9409,3.9409,4.0696,4.105,4.0373,4.1631,4.1947,4.1281,4.0831,4.0232,3.9508,3.8532,3.7769,3.7057,3.6615,3.6358,3.6358,3.6358,3.6358,3.6358,3.6358,3.6358,3.6358,3.6358,3.6358,3.6358,0.0,0.0,4.9018,4.9018,4.9018,4.9018,4.9018,4.9018,4.9018,0.0,4.9018,4.9018,4.9018,4.9018,4.9018,4.9018,4.9018,4.9018,4.9018,4.9018,4.9018,4.9018,4.9018,4.9018,4.9018,4.8376,4.8342,4.9018,4.8342,4.8376,4.9018,4.9018,4.9018,4.9018,4.8917,4.8105,4.6786,0.0,0.0,4.4587,4.4587,4.4587,0.0,0.0,4.4621,0.0,4.4688,4.4688,4.4688,4.4621,4.4587,0.0,0.0,0.0,0.0,0.0,4.4587,0.0,4.4587,4.4587,4.4587,0.0,4.4587,0.0,4.4587,4.4587,4.4587,4.4587,4.4006,4.3169,4.2332,4.1528,4.069,3.9666,3.9553,3.9481,3.9409,3.9409,3.9409,3.9409,3.9409,3.9409,3.9409,3.9409,3.9409,3.9409,3.9409,3.9409,3.9409,3.9409,3.9409,3.9409,4.0696,4.1384,4.1384,4.2671,4.3329,4.325,4.2275,4.167,4.1504,3.942,3.8469,3.8198,3.7057,3.664,3.6546,3.6452,3.6358,3.6358,3.6358,3.6358,3.6358,3.6358,3.6358,3.6358,4.9018,4.9018,4.9018,4.9018,4.9018,4.9018,4.9018,4.9018,4.9018,4.9018,4.9018,4.9018,4.9018,4.9018,4.9018,4.9018,4.9018,4.9018,4.9018,4.9018,4.9018,4.9018,4.9018,4.9018,4.9018,4.8849,4.8849,4.9018,4.8849,4.8849,4.9018,4.9018,4.9018,4.8984,4.8376,4.7631,4.6752,0.0,0.0,4.4587,4.4587,0.0,4.4587,4.4587,4.4959,4.55,4.55,4.55,4.5399,0.0,4.4587,4.4587,0.0,0.0,0.0,0.0,0.0,0.0,0.0,0.0,0.0,0.0,0.0,0.0,4.4587,4.4587,4.4587,4.4587,4.444,4.4064,4.3229,4.2925,4.2269,4.069,4.0447,4.017,3.9481,3.9409,3.9409,3.9409,3.9409,3.9409,3.9409,3.9409,3.9409,3.9409,3.9409,3.9409,3.9409,3.9409,3.9409,3.9409,4.0696,4.1384,4.1384,4.2671,4.3329,4.3329,4.3061,4.2467,4.1587,4.114,4.0376,3.9448,3.8289,3.7769,3.7678,3.6803,3.6358,3.6358,3.6358,3.6358,3.6358,3.6358,3.6358,3.6358,4.9521,4.9195,4.9018,4.9018,4.9018,4.9018,4.9018,4.9018,4.9018,4.9018,4.9018,4.9018,4.9018,4.9018,4.9018,4.9018,4.9018,4.9018,4.9018,4.9018,4.9018,4.9018,4.9018,4.9018,4.9018,4.9018,4.9018,4.9018,4.9018,4.9018,4.9018,4.9018,4.9018,4.8984,4.824,4.7496,4.6752,0.0,4.5263,4.4587,4.4587,0.0,4.4587,4.4587,4.506,4.5703,4.5703,4.5703,4.5635,4.5263,4.4891,0.0,0.0,4.4587,4.4587,0.0,4.4587,4.4587,0.0,0.0,0.0,4.4587,0.0,0.0,0.0,4.3707,4.3436,4.3436,4.3436,4.3182,4.2319,4.1814,4.1459,4.0925,4.0127,3.9664,3.9999,3.9666,3.9409,3.9409,3.9409,3.9409,3.9409,3.9409,3.9409,3.9409,3.9409,3.9409,3.9409,3.9409,3.9409,3.9409,4.0696,4.1384,4.1384,4.2671,4.3329,4.3329,4.3329,4.2981,4.2467,4.1864,4.1253,4.0661,3.9536,3.8649,3.8017,3.7494,3.6896,3.6358,3.6358,3.6358,3.6358,3.6358,3.6358,3.6358,5.0223,4.978,4.9436,4.9436,4.9436,4.9436,4.9436,4.9256,4.9168,4.9018,4.9107,4.9168,4.8984,4.9256,4.9376,4.9195,4.9316,4.9376,4.9195,4.9195,4.9168,4.9018,4.9018,4.9018,4.9018,4.9018,4.9018,4.9018,4.9018,4.9018,4.9018,4.9018,4.8917,4.8781,4.8037,4.7293,0.0,0.0,0.0,4.4587,0.0,4.4587,4.4587,4.4756,4.5263,4.594,4.6075,4.6041,4.5906,4.5771,0.0,4.4587,4.4587,4.4587,0.0,0.0,0.0,0.0,0.0,0.0,0.0,0.0,0.0,4.3403,0.0,0.0,0.0,0.0,0.0,0.0,0.0,0.0,0.0,0.0,0.0,0.0,0.0,3.9716,0.0,3.9409,3.9409,3.9409,3.9409,3.9409,3.9409,3.9409,3.9409,3.9409,3.9409,3.9409,3.9409,3.9409,4.0696,4.1384,4.1384,4.2671,4.3329,4.3329,4.3329,4.3329,4.325,4.2386,4.1947,4.1864,4.0746,3.9711,3.8711,3.8289,3.7586,3.6709,3.6452,3.6358,3.6358,3.6358,3.6358,3.6358,5.1086,5.0929,5.0876,5.0876,5.0876,5.0876,5.0876,5.0314,4.9664,4.9046,4.9521,4.9664,4.9046,5.009,0.0,4.9919,0.0,0.0,4.9919,0.0,4.9605,4.8984,4.9018,4.9018,4.9018,4.9018,4.9018,4.9018,4.9018,4.9018,4.9018,4.9018,4.8646,4.8003,4.7259,0.0,0.0,0.0,4.4654,0.0,4.4587,4.4587,0.0,4.5331,4.6041,4.6752,4.7428,4.7225,4.6583,0.0,4.5196,4.4587,0.0,4.4587,4.4587,0.0,0.0,0.0,0.0,0.0,0.0,0.0,4.4012,0.0,0.0,0.0,4.2286,4.2286,0.0,0.0,0.0,0.0,0.0,0.0,0.0,0.0,3.8061,3.8781,3.9528,3.9421,3.9409,3.9409,3.9409,3.9409,3.9409,3.9409,3.9409,3.9409,3.9409,3.9409,3.9409,3.9409,4.0696,4.1384,4.1384,4.2671,4.3329,4.3329,4.3329,4.3329,4.3329,4.317,4.309,4.3061,4.1864,4.1337,4.1056,3.8979,3.8017,3.7861,3.6803,3.6358,3.6358,3.6358,3.6358,3.6358,5.1825,5.1343,5.1086,5.1086,5.1086,5.0981,5.05,4.9896,4.9316,4.9046,4.9256,4.9316,0.0,0.0,0.0,0.0,0.0,5.0335,0.0,0.0,4.9722,4.8984,4.9018,0.0,4.9018,4.9018,4.9018,4.9018,4.9018,4.9018,4.8984,4.8578,4.8206,4.7868,4.6684,0.0,4.5669,0.0,0.0,0.0,0.0,0.0,0.0,4.5568,4.6413,4.753,4.8274,4.8071,4.7394,0.0,4.621,0.0,0.0,0.0,0.0,0.0,0.0,0.0,0.0,0.0,0.0,0.0,0.0,0.0,4.276,0.0,4.1001,0.0,0.0,0.0,0.0,0.0,0.0,0.0,3.9735,0.0,0.0,0.0,3.8901,0.0,0.0,0.0,3.9409,3.9409,3.9409,3.9409,3.9409,3.9409,3.9409,3.9409,3.9589,3.9978,4.0876,4.1564,4.1953,4.288,4.3329,4.3329,4.3329,4.3329,4.3329,4.3329,4.3329,4.325,4.282,4.2193,4.1504,4.0547,3.9332,3.8017,3.7586,3.6964,3.6358,3.6358,3.6358,3.6358,5.2509,5.2018,5.1679,5.1679,5.1679,5.1393,5.0716,4.9976,4.958,4.958,0.0,0.0,4.9316,4.9639,0.0,0.0,0.0,5.077,0.0,0.0,5.009,0.0,0.0,0.0,0.0,0.0,4.9018,4.9018,4.9018,4.8917,4.8714,4.8173,4.7699,4.7259,0.0,4.5602,4.5365,0.0,0.0,4.4925,4.5466,4.594,4.6312,4.6312,4.709,4.8274,4.8815,4.8545,4.7936,4.7936,4.6921,0.0,4.5703,0.0,0.0,0.0,0.0,0.0,4.4587,0.0,0.0,0.0,0.0,0.0,0.0,0.0,0.0,0.0,0.0,0.0,0.0,0.0,0.0,4.0452,0.0,3.848,0.0,3.8741,0.0,0.0,0.0,0.0,0.0,3.9409,3.9409,3.9409,3.9409,3.9409,3.9409,3.9409,3.9738,4.0367,4.1025,4.1683,4.2419,4.3,4.3329,4.3329,4.3329,4.3329,4.3329,4.3329,4.3329,4.3329,4.3329,4.282,4.2029,4.1753,4.0632,3.9067,3.8738,3.7861,3.6803,3.6546,3.6358,3.6358,5.3146,5.3146,0.0,0.0,0.0,5.2893,5.2159,5.1444,0.0,0.0,0.0,0.0,0.0,0.0,0.0,0.0,0.0,5.2769,5.2065,0.0,5.1034,0.0,0.0,0.0,0.0,0.0,0.0,4.9018,4.9018,4.8646,4.7936,4.7936,4.7158,4.5771,4.5737,4.5297,4.4621,4.4587,4.4993,4.5669,4.5703,4.6583,4.7834,0.0,4.8308,4.8984,4.8984,0.0,0.0,4.7936,4.6921,0.0,0.0,0.0,0.0,0.0,0.0,0.0,0.0,0.0,0.0,4.4587,0.0,0.0,0.0,0.0,4.0967,0.0,0.0,0.0,0.0,0.0,3.985,3.9102,3.9592,0.0,0.0,0.0,0.0,0.0,0.0,0.0,0.0,3.9409,3.9409,0.0,3.9409,3.9409,3.9409,3.9409,3.9738,4.0367,4.1025,4.1683,4.2419,4.3,4.3329,4.3329,4.3329,4.3329,4.3329,4.3329,4.3329,4.3329,4.3329,4.325,4.317,4.2029,4.1587,4.142,4.0232,3.9094,3.7926,3.6803,3.6358,3.6358,5.3225,0.0,0.0,0.0,0.0,0.0,0.0,5.1544,0.0,0.0,0.0,0.0,0.0,0.0,5.1544,0.0,0.0,5.2381,5.2112,5.1494,0.0,0.0,0.0,4.9316,0.0,0.0,0.0,0.0,0.0,4.8612,4.7902,4.7394,4.665,4.5703,0.0,4.4823,0.0,0.0,0.0,0.0,0.0,4.7767,4.8578,0.0,0.0,4.9018,4.9018,4.8849,0.0,4.8646,4.797,4.709,4.6583,4.5906,4.5229,4.4722,4.4587,0.0,0.0,0.0,4.4587,4.4587,0.0,0.0,0.0,0.0,0.0,0.0,0.0,0.0,0.0,0.0,4.0003,3.9714,3.9506,3.9016,0.0,0.0,0.0,0.0,0.0,0.0,0.0,0.0,0.0,0.0,3.9409,0.0,3.9409,3.9409,3.9918,4.1025,4.1265,4.1893,4.3,4.324,4.3329,4.3329,4.3329,4.3329,4.3329,4.3329,4.3329,4.3329,4.3329,4.3329,4.325,4.29,4.2275,4.1587,4.1169,4.0318,3.9183,3.7952,3.7057,3.6358,5.3225,0.0,0.0,0.0,0.0,0.0,0.0,0.0,0.0,0.0,5.1593,0.0,5.1444,0.0,5.1643,0.0,5.2335,5.2509,5.2509,5.1874,0.0,5.1825,5.0535,0.0,0.0,0.0,0.0,0.0,0.0,4.824,4.7496,4.6752,4.6007,4.5297,0.0,0.0,0.0,0.0,4.5399,0.0,0.0,4.8933,0.0,0.0,4.8787,4.9018,0.0,4.9018,4.9018,4.9018,4.8511,4.7834,4.7327,4.6515,4.5602,4.5128,4.479,4.4587,4.4587,4.4587,0.0,4.4587,4.4215,0.0,4.347,0.0,0.0,0.0,0.0,0.0,0.0,0.0,4.0155,4.0426,3.983,3.9362,0.0,3.8925,0.0,0.0,0.0,0.0,0.0,0.0,0.0,0.0,0.0,0.0,0.0,3.9649,4.0277,4.1354,4.1624,4.2252,4.3329,4.3329,4.3329,4.3329,4.3329,4.3329,4.3329,4.3329,4.3329,4.3329,4.3329,4.3329,4.3329,4.3329,4.29,4.2193,4.2193,4.1504,4.0404,3.9183,3.8043,3.6989,5.3225,0.0,0.0,0.0,5.2599,0.0,0.0,0.0,5.2381,0.0,5.2599,5.2159,5.2159,5.2159,5.2159,5.2159,5.2769,0.0,5.3225,5.2509,0.0,0.0,5.1825,5.1393,5.2112,0.0,0.0,0.0,0.0,0.0,4.6786,4.6041,4.5297,4.4587,4.4587,0.0,4.4621,4.5399,4.6143,4.7073,4.916,5.0033,4.9976,4.9976,4.9546,4.9018,4.9018,4.9018,4.9018,4.9018,4.8545,4.797,4.7936,4.6955,4.5805,4.5737,4.5196,4.4621,4.4587,4.4587,4.4587,4.4587,0.0,0.0,0.0,0.0,4.32,0.0,0.0,0.0,0.0,0.0,0.0,4.1035,4.0595,4.0153,4.0216,0.0,0.0,0.0,0.0,0.0,0.0,0.0,0.0,0.0,0.0,0.0,0.0,4.0038,4.0696,4.1354,4.2013,4.2671,4.3329,4.3329,4.3329,4.3329,4.3329,4.3329,4.3329,4.3329,4.3329,4.3329,4.3329,4.3329,4.3329,4.3329,4.3329,4.3329,4.3329,4.2629,4.1504,4.0318,3.9094,3.7926,5.3225,5.3225,5.3225,0.0,5.306,5.298,0.0,0.0,0.0,0.0,5.306,5.2937,5.2937,5.2937,5.2937,5.2937,5.3103,0.0,0.0,0.0,0.0,5.3146,5.1825,5.1393,5.2112,5.0716,0.0,4.9976,0.0,0.0,4.6786,4.6041,4.5297,4.4587,0.0,0.0,4.4621,4.5399,4.6726,4.8493,5.0169,5.05,0.0,0.0,4.9546,4.9018,4.9018,4.9018,4.9018,4.9018,4.8883,4.8612,4.8071,4.7665,4.7124,4.6041,4.5568,4.5297,4.4722,4.4587,4.4587,4.4587,4.4587,4.4519,0.0,0.0,0.0,0.0,0.0,0.0,0.0,0.0,0.0,0.0,4.0663,4.1118,0.0,0.0,0.0,4.1541,0.0,0.0,0.0,0.0,0.0,0.0,0.0,0.0,0.0,0.0,4.0696,4.1354,4.2013,4.2671,4.3329,4.3329,4.3329,4.3329,4.3329,4.3329,4.3329,4.3329,4.3329,4.3329,4.3329,4.3329,4.3329,4.3329,4.3329,4.3329,4.3329,4.317,4.2629,4.0661,3.9094,3.8017,5.3225,0.0,0.0,5.3225,0.0,0.0,5.3225,0.0,0.0,5.3225,5.3225,0.0,5.3225,5.3225,5.3225,5.3225,5.3225,0.0,0.0,0.0,0.0,5.3182,5.2417,5.2196,5.2554,5.1494,0.0,5.05,0.0,0.0,4.6786,4.5703,4.4993,4.4587,0.0,4.4756,0.0,4.6544,4.8169,4.9958,5.1114,0.0,0.0,5.0608,5.0033,4.9402,4.9107,4.9018,4.9018,4.9018,4.9018,4.8951,4.8511,4.8173,4.7699,4.6515,4.594,4.5534,4.479,4.4587,4.4587,4.4587,4.4587,4.4587,4.4587,4.4248,4.391,0.0,0.0,0.0,0.0,0.0,0.0,0.0,0.0,0.0,0.0,0.0,0.0,0.0,4.2199,0.0,0.0,0.0,0.0,0.0,0.0,0.0,0.0,0.0,4.0995,4.1384,4.2312,4.297,4.3329,4.3329,4.3329,4.3329,4.3329,4.3329,4.3329,4.3329,4.3329,4.3329,4.3329,4.3329,4.3329,4.3329,4.3329,4.3329,4.3329,4.3509,4.3588,4.2299,4.1055,3.9919,0.0,0.0,0.0,0.0,0.0,0.0,0.0,5.3225,0.0,5.3225,0.0,5.3225,5.3225,5.3225,5.3225,5.3225,0.0,5.3225,5.3225,5.3225,5.3225,5.3225,5.3225,5.3225,5.3225,5.2509,0.0,0.0,0.0,0.0,4.6752,4.5365,4.4688,4.4587,0.0,0.0,0.0,4.8169,4.9907,5.1292,5.197,5.2159,5.2065,5.1444,5.0716,4.9919,4.9376,4.9046,4.9018,4.9018,4.9018,4.9018,4.9018,4.8578,4.7902,4.7022,4.6346,4.5669,4.4823,4.4587,4.4587,4.4587,4.4587,4.4587,4.4587,4.4587,4.4587,4.4587,4.4045,4.3741,0.0,0.0,0.0,0.0,0.0,0.0,0.0,0.0,0.0,0.0,0.0,0.0,0.0,0.0,0.0,0.0,0.0,0.0,0.0,0.0,4.1414,4.1504,4.2701,4.3329,4.3329,4.3329,4.3329,4.3329,4.3329,4.3329,4.3329,4.3329,4.3329,4.3329,4.3329,4.3329,4.3329,4.3329,4.3389,4.3449,4.3449,4.3868,4.4436,4.4556,4.3867,4.2596,0.0,0.0,0.0,0.0,0.0,5.3225,5.3225,5.3225,5.3225,5.3225,5.3225,5.3225,5.3225,5.3225,5.3225,5.3225,5.3225,0.0,0.0,0.0,0.0,5.3225,5.3225,5.3225,5.3225,5.2509,5.1741,0.0,0.0,0.0,4.6786,4.5906,4.5162,0.0,0.0,0.0,4.8398,4.9398,0.0,5.2018,5.2725,5.2644,5.2112,5.197,5.1102,4.9976,4.9861,4.9462,4.9018,4.9018,4.9018,4.9018,4.9018,4.8917,4.8545,4.7192,4.6718,4.6312,4.4959,4.4587,4.4587,4.4587,4.4587,4.4587,4.4587,4.4587,4.4587,4.4587,4.4485,4.4215,4.3707,0.0,0.0,0.0,0.0,0.0,0.0,0.0,0.0,0.0,0.0,4.3502,0.0,0.0,0.0,0.0,0.0,0.0,0.0,0.0,4.1624,0.0,4.294,0.0,0.0,0.0,4.3329,4.3329,4.3329,4.3329,4.3329,4.3329,4.3329,4.3329,4.3329,4.3329,4.3329,4.3329,4.3658,4.4137,4.4137,4.4556,4.5185,4.5753,4.5138,4.3799,0.0,0.0,0.0,0.0,0.0,0.0,0.0,5.4436,0.0,5.3335,5.3225,5.3225,5.3225,5.3225,5.3225,5.3225,5.3225,5.3225,5.3225,5.3225,5.3225,5.3225,5.3225,0.0,5.3225,5.285,5.2149,5.1086,0.0,0.0,4.7361,4.6616,0.0,4.5828,0.0,4.7898,0.0,0.0,0.0,5.2159,5.2893,5.298,5.2599,5.2242,5.1444,5.05,5.0146,4.958,4.9018,4.9018,4.9018,4.9018,4.9018,4.9018,4.8781,4.7699,4.709,4.6549,4.5466,4.4891,4.4587,4.4587,4.4587,4.4587,4.4587,4.4587,4.4587,4.4587,4.4587,4.4451,4.4079,4.3707,0.0,0.0,0.0,0.0,0.0,0.0,0.0,0.0,0.0,0.0,0.0,0.0,0.0,0.0,0.0,0.0,0.0,0.0,4.2182,0.0,0.0,0.0,4.3329,0.0,4.3329,4.3329,4.3329,4.3329,4.3329,4.3329,4.3329,4.3329,4.3329,4.3329,4.3359,4.3718,4.4018,4.4347,4.4676,4.5244,4.5873,4.6202,4.5697,4.4719,0.0,5.5574,0.0,0.0,5.5574,0.0,5.5574,5.5574,5.5133,5.3885,5.3702,5.3702,5.3702,5.3702,5.3702,5.3702,5.3702,5.3702,5.3702,5.3702,5.3628,5.3482,5.3482,5.3371,5.3225,5.3225,5.259,0.0,0.0,0.0,0.0,4.7285,0.0,0.0,0.0,0.0,0.0,0.0,5.2159,5.2381,5.298,5.3225,5.3146,5.2554,5.1825,5.1034,5.0445,4.9722,4.9018,4.9018,4.9018,4.9018,4.9018,4.9018,4.8849,4.8139,4.7394,4.6616,4.5906,4.5162,4.4587,4.4587,4.4587,4.4587,4.4587,4.4587,4.4587,4.4587,4.4587,4.4587,4.4587,4.4587,0.0,0.0,0.0,0.0,0.0,0.0,0.0,0.0,0.0,0.0,4.3621,0.0,0.0,0.0,0.0,0.0,4.0915,0.0,0.0,0.0,0.0,4.3329,4.3329,0.0,4.3329,4.3329,4.3329,4.3329,4.3329,4.3329,4.3329,4.3329,4.3329,4.3329,4.3389,4.4047,4.4407,4.4586,4.5244,4.5933,4.6531,4.6531,4.5903,4.484,0.0,0.0,0.0,0.0,0.0,0.0,0.0,5.5574,5.5537,5.539,5.5354,5.5354,5.5354,5.5354,5.5354,5.5354,5.5354,5.5354,5.5354,5.5354,5.506,5.4326,5.4289,5.3959,5.3225,5.3225,5.2813,0.0,0.0,0.0,0.0,0.0,0.0,0.0,0.0,0.0,0.0,5.2029,5.2509,5.3103,5.3146,5.3225,5.3225,5.3103,5.2242,5.1086,5.1034,5.0146,4.9018,4.9018,4.9018,4.9018,4.9018,4.9018,4.8849,4.8139,4.7394,4.6616,4.5906,4.5162,4.4587,4.4587,4.4587,4.4587,4.4587,4.4587,4.4587,4.4587,4.4587,4.4587,4.4587,4.4587,4.4587,0.0,0.0,0.0,0.0,0.0,0.0,0.0,0.0,0.0,0.0,4.444,0.0,0.0,4.2643,0.0,0.0,0.0,0.0,4.321,4.3299,4.3329,4.3329,4.3329,4.3329,4.3329,4.3329,4.3329,4.3329,4.3329,4.3329,4.3329,4.3329,4.3329,4.3389,4.4047,4.4676,4.5274,4.5963,4.6621,4.7219,4.7219,4.5721,4.3693,0.0,0.0,0.0,0.0,0.0,0.0,0.0,5.7042,5.7042,5.7042,5.6198,5.5574,5.5574,5.5574,5.5574,5.5574,5.5574,5.5574,5.5574,5.5574,5.5464,5.5133,5.4656,5.4252,5.3922,5.3445,5.2813,0.0,0.0,0.0,0.0,0.0,0.0,0.0,0.0,5.1307,5.2112,5.2554,5.2937,5.3225,5.3225,5.3225,5.3225,5.3225,5.2325,5.1086,5.1086,5.0202,4.9018,4.9018,4.9018,4.9018,4.9018,4.9018,4.8951,4.8646,4.8037,4.7293,4.6549,4.5805,4.5128,4.4688,4.4587,4.4587,4.4587,4.4587,4.4587,4.4587,4.4587,4.4587,4.4587,4.4587,4.4587,0.0,0.0,0.0,0.0,0.0,0.0,0.0,0.0,0.0,0.0,0.0,0.0,0.0,0.0,0.0,0.0,0.0,0.0,4.4205,0.0,4.3329,4.3329,4.3329,4.3329,4.3329,4.3329,4.3329,4.3329,4.3329,4.3329,4.3329,4.3329,4.3569,4.3958,4.4616,4.5304,4.5992,4.6651,4.707,4.7309,4.7309,4.5689,4.3504,5.7997,0.0,5.7997,0.0,5.7997,5.7997,5.7997,5.7997,5.7997,5.7997,5.7005,5.6308,5.6308,5.6308,5.6308,5.6308,5.6308,5.6308,5.6308,5.6308,5.6198,5.5941,5.5427,0.0,5.4399,5.3849,5.3156,5.2427,5.1692,0.0,0.0,0.0,0.0,0.0,5.1886,5.2206,5.2427,5.298,5.3225,5.3225,5.3225,5.3225,5.3225,5.3225,5.2325,5.1086,5.1086,5.0202,4.9018,4.9018,4.9018,4.9018,4.9018,4.9018,4.9018,4.9018,4.8477,4.78,4.7259,4.6583,4.5838,4.5094,4.4925,4.4857,4.4621,4.4587,4.4587,4.4587,4.4587,4.4587,4.4587,4.4587,4.4587,4.4587,0.0,0.0,0.0,0.0,0.0,0.0,4.4587,4.4654,4.4891,4.5399,0.0,0.0,0.0,0.0,0.0,0.0,0.0,0.0,0.0,0.0,4.3329,4.3329,4.3329,4.3329,4.3329,4.3329,4.3329,4.3329,4.3329,4.3329,4.3539,4.3898,4.4377,4.5244,4.5873,4.6381,4.704,4.7309,4.7309,4.7309,4.5689,4.3504,5.7997,5.7997,5.7997,5.7997,5.7997,5.7997,5.7997,5.7997,5.7997,5.7997,5.796,5.796,5.796,5.796,5.796,5.796,5.796,5.796,5.796,5.796,5.7629,0.0,0.0,5.6051,5.4436,5.4399,5.3995,5.3182,0.0,0.0,5.0967,0.0,5.078,5.2112,5.2112,5.2509,5.3182,5.3225,5.3225,5.3225,5.3225,5.3225,5.3225,5.3225,5.2325,5.1086,5.1086,5.0202,4.9018,4.9018,4.9018,4.9018,4.9018,4.9018,4.9018,4.9018,4.8477,4.7936,4.7902,4.7361,4.6616,4.5872,4.5703,4.55,4.4756,4.4587,4.4587,4.4587,4.4587,4.4587,4.4587,4.4587,4.4587,4.4587,0.0,0.0,0.0,0.0,0.0,0.0,4.4587,4.4857,4.5635,4.5703,0.0,0.0,0.0,0.0,0.0,0.0,0.0,4.4812,4.4812,0.0,4.3329,4.3329,4.3329,4.3329,4.3329,4.3329,4.3329,4.3329,4.3329,4.3359,4.4018,4.4317,4.4407,4.5753,4.6322,4.6381,4.704,4.7309,4.7309,4.7309,4.5689,4.3504,5.7997,5.7997,5.7997,5.7997,5.7997,5.7997,5.7997,5.7997,5.7997,5.7997,5.7997,5.7997,5.7997,5.7997,5.7997,0.0,5.7997,5.7997,0.0,5.7997,5.7886,5.7629,5.7079,5.6565,5.6051,5.495,5.4289,5.4032,0.0,0.0,0.0,5.1527,5.1943,5.285,5.285,5.298,5.3225,5.3225,5.3225,5.3225,5.3225,5.3225,5.3146,5.2644,5.1874,5.1034,5.05,4.978,4.9018,4.9018,4.9018,4.9018,4.9018,4.9018,4.9018,4.9018,4.8849,4.8545,4.8071,4.7733,4.7394,4.6616,4.6447,4.6244,4.55,4.4959,4.4587,4.4587,4.4587,4.4587,4.4587,4.4587,4.4587,4.4587,4.4587,0.0,0.0,0.0,0.0,0.0,4.5026,4.5432,4.5703,4.6616,0.0,0.0,0.0,0.0,0.0,0.0,0.0,0.0,4.5447,0.0,4.4282,4.3615,4.3329,4.3329,4.3329,4.3329,4.3329,4.3329,4.3329,4.3359,4.4018,4.4556,4.5065,4.5963,4.6591,4.701,4.7219,4.7309,4.7309,4.7309,4.5689,4.3504,5.7997,5.7997,5.7997,5.7997,5.7997,5.7997,5.7997,5.7997,5.7997,5.7997,5.7997,5.7997,5.7997,5.7997,0.0,5.7997,5.7997,5.7997,5.7997,5.7997,5.7997,5.7997,5.7519,5.7116,5.6822,5.5831,0.0,5.4399,5.3134,5.2509,5.2509,5.2509,5.2769,5.3225,5.3225,5.3225,5.3225,5.3225,5.3225,5.3225,5.3225,5.3225,5.3103,5.2381,5.1692,5.0981,5.0223,4.958,4.9018,4.9018,4.9018,4.9018,4.9018,4.9018,4.9018,4.9018,4.9018,4.8917,4.8443,4.8342,4.8139,4.7394,4.7225,4.6955,4.594,4.5331,4.4925,4.4654,4.4587,4.4587,4.4587,4.4587,4.4587,4.4587,4.4587,4.4587,4.4587,0.0,0.0,0.0,0.0,0.0,0.0,4.7361,4.8037,0.0,0.0,0.0,0.0,0.0,0.0,4.7572,4.6486,4.5706,4.5374,4.4358,4.3849,4.3849,4.3488,4.3329,4.3329,4.3329,4.3329,4.3389,4.4287,4.4915,4.5364,4.6322,4.692,4.7309,4.7309,4.7309,4.7309,4.7309,4.5689,4.3504,5.807,5.8033,5.7997,0.0,5.7997,0.0,5.7997,5.7997,5.7997,5.7997,5.7997,5.7997,5.7997,5.7997,5.7997,5.7997,0.0,0.0,0.0,5.7997,5.7997,5.7997,5.7997,5.7666,5.6895,5.6822,5.6051,5.4473,5.3702,5.3298,5.3298,5.3225,5.3225,5.3225,5.3225,5.3225,5.3225,5.3225,5.3225,5.3225,5.3225,5.3225,5.3103,5.2335,5.1643,5.0981,5.0202,4.9521,4.9018,4.9018,4.9018,4.9018,4.9018,4.9018,4.9018,4.9018,4.9018,4.9018,4.9018,4.9018,4.8849,4.8173,4.797,4.7564,4.6177,4.5805,4.5568,4.4857,4.4688,4.4654,4.4654,4.4621,4.4587,4.4587,4.4587,4.4587,4.4654,0.0,0.0,0.0,0.0,0.0,0.0,4.797,4.8274,0.0,0.0,0.0,0.0,0.0,4.8576,4.7737,4.7638,4.7172,4.6314,4.53,4.4737,4.4662,4.3771,4.3329,4.3329,4.3329,4.3329,4.3389,4.4736,4.5304,4.5394,4.6741,4.7309,4.7309,4.7309,4.7309,4.7309,4.7309,4.5689,4.3504,0.0,0.0,5.7997,5.7997,5.7997,5.7997,5.7997,5.7997,5.7997,5.7997,5.7997,5.7997,5.7997,5.7997,5.7997,5.7997,5.7997,5.7997,5.7997,5.7997,5.7997,5.7997,5.7997,5.7923,5.7703,5.7116,5.6308,5.5317,5.4509,5.4106,5.4106,5.3482,5.3225,5.3225,5.3225,5.3225,5.3225,5.3225,5.3225,5.3225,5.3225,5.3225,5.306,5.1825,5.1241,5.0929,4.9698,4.9168,4.9018,4.9018,4.9018,4.9018,4.9018,4.9018,4.9018,4.9018,4.9018,4.9018,4.9018,4.9018,4.8951,4.8781,4.8342,4.7834,4.7462,4.6955,4.6481,4.6312,4.5838,4.5432,4.5432,4.4959,4.4587,4.4587,4.4587,4.479,4.5365,4.5602,0.0,0.0,4.7192,4.7733,4.7902,4.8409,4.8815,0.0,0.0,0.0,0.0,4.9018,4.8861,4.8639,4.7933,4.7506,4.7306,4.5634,4.4434,4.3615,4.3409,4.3329,4.3329,4.3329,4.3329,4.3389,4.4736,4.5304,4.5394,4.6741,4.7309,4.7309,4.7309,4.7309,4.7309,4.7309,4.5689,4.3504,5.9758,5.9098,5.8547,5.8547,5.8253,5.7997,5.7997,5.7997,5.7997,5.7997,5.7997,5.7997,5.7997,5.7997,5.7997,5.7997,5.7997,5.7997,5.7997,5.7997,5.7997,5.7997,5.7997,5.7997,5.7997,5.7556,5.6969,5.6161,5.4987,5.4399,5.4363,5.3592,5.3225,5.3225,5.3225,5.3225,5.3225,5.3225,5.3225,5.3225,5.3225,5.3225,5.306,5.197,5.1343,5.0929,4.9838,4.9256,4.9018,4.9018,4.9018,4.9018,4.9018,4.9018,4.9018,4.9018,4.9018,4.9018,4.9018,4.9018,4.9018,4.9018,4.8714,4.8342,4.8003,4.7597,4.7225,4.6853,4.6481,4.621,4.621,4.5872,4.5602,4.5602,4.5602,4.5737,4.6143,4.6515,4.6853,4.7259,4.797,4.8409,4.8409,4.8781,4.9018,4.9018,4.9018,0.0,4.9018,4.9018,4.9018,4.9018,4.8513,4.8225,4.8225,4.6416,4.493,4.4004,4.3566,4.3329,4.3329,4.3329,4.3329,4.3389,4.4736,4.5304,4.5394,4.6741,4.7309,4.7309,4.7309,4.7309,4.7309,4.7309,4.6077,4.4256,6.0566,5.9942,5.9355,5.9245,5.8657,5.8143,5.8033,5.7997,5.7997,5.7997,5.7997,5.7997,5.7997,5.7997,5.7997,5.7997,5.7997,5.7997,5.7997,5.7997,5.7997,5.7997,5.7997,5.7997,5.7997,5.7997,5.7666,5.6969,5.55,5.4693,5.4546,5.3775,5.3335,5.3225,5.3225,5.3225,5.3225,5.3225,5.3225,5.3225,5.3225,5.3225,5.3103,5.2289,5.1593,5.0981,5.0146,4.9462,4.9018,4.9018,4.9018,4.9018,4.9018,4.9018,4.9018,4.9018,4.9018,4.9018,4.9018,4.9018,4.9018,4.9018,4.9018,4.8849,4.824,4.8071,4.7902,4.7259,4.7022,4.6955,4.6955,4.6887,4.6786,4.6786,4.6786,4.6819,4.6955,0.0,4.797,4.8071,4.8612,4.9018,4.9018,4.9018,4.9018,4.9018,4.9018,4.9018,4.9018,4.9018,4.9018,4.9018,4.9018,4.8923,4.8798,4.7104,4.5706,4.4812,4.3771,4.3329,4.3329,4.3329,4.3329,4.3389,4.4736,4.5304,4.5394,4.6741,4.7309,4.7309,4.7309,4.7309,4.7309,4.7309,4.6462,4.5207,6.141,6.0786,6.0015,5.9318,5.9098,5.8804,5.8107,5.7997,5.7997,5.7997,5.7997,5.7997,5.7997,5.7997,5.7997,5.7997,5.7997,5.7997,5.7997,5.7997,5.7997,5.7997,5.7997,5.7997,5.7997,5.7997,5.7923,5.7813,5.6895,5.6088,5.539,5.4583,5.3849,5.3225,5.3225,5.3225,5.3225,5.3225,5.3225,5.3225,5.3225,5.3225,5.306,5.1777,5.1189,5.0929,4.9639,4.9107,4.9018,4.9018,4.9018,4.9018,4.9018,4.9018,4.9018,4.9018,4.9018,4.9018,4.9018,4.9018,4.9018,4.9018,4.9018,4.8984,4.8849,4.8849,4.8815,4.868,4.8173,4.7733,4.7733,4.7225,4.6786,4.6786,4.6786,4.7022,4.7665,0.0,4.8139,4.8781,4.8951,4.9018,4.9018,4.9018,4.9018,4.9018,4.9018,4.9018,4.9018,4.9018,4.9018,4.9018,4.9018,4.8639,4.7803,4.673,4.5706,4.4812,4.3771,4.3329,4.3329,4.3329,4.3329,4.3389,4.4736,4.5304,4.5394,4.6741,4.7309,4.7309,4.7309,4.7309,4.7309,4.7309,4.6462,4.5207,6.2254,6.1594,6.0933,6.0566,5.9795,5.9098,5.8694,5.829,5.7997,5.7997,5.7997,5.7997,5.7997,5.7997,5.7997,5.7997,5.7997,5.7997,5.7997,5.7997,5.7997,5.7997,5.7997,5.7997,5.7997,5.7997,5.7997,5.7997,5.7189,5.6381,5.5574,5.4766,5.3959,5.3225,5.3225,5.3225,5.3225,5.3225,5.3225,5.3225,5.3225,5.3225,5.3103,5.2018,5.1393,5.0981,4.9919,4.9316,4.9018,4.9018,4.9018,4.9018,4.9018,4.9018,4.9018,4.9018,4.9018,4.9018,4.9018,4.9018,4.9018,4.9018,4.9018,4.9018,4.9018,4.9018,4.9018,4.9018,4.8748,4.8511,4.8511,4.8206,4.8003,4.797,4.797,0.0,0.0,4.8511,4.8612,4.8951,4.9018,4.9018,4.9018,4.9018,4.9018,4.9018,4.9018,4.9018,4.9018,4.9018,4.9018,4.9018,4.9018,4.8798,4.8353,4.744,4.6454,4.5561,4.4555,4.3849,4.3329,4.3329,4.3329,4.3389,4.4736,4.5304,4.5394,4.6741,4.7309,4.7309,4.7309,4.7309,4.7309,4.7309,4.6931,4.6166,6.2805,6.2291,6.1814,6.163,6.0566,5.9648,5.9281,5.8694,5.8217,5.8033,5.7997,5.7997,5.7997,5.7997,5.7997,5.7997,5.7997,5.7997,5.7997,5.7997,5.7997,5.7997,5.7997,5.7997,5.7997,5.7997,5.7997,5.7997,5.7373,5.6675,5.5868,5.506,5.4252,5.3482,5.3298,5.3225,5.3225,5.3225,5.3225,5.3225,5.3225,5.3225,5.3103,5.2381,5.1692,5.0981,5.0223,4.958,4.9018,4.9018,4.9018,4.9018,4.9018,4.9018,4.9018,4.9018,4.9018,4.9018,4.9018,4.9018,4.9018,4.9018,4.9018,4.9018,4.9018,4.9018,4.9018,4.9018,4.9018,4.9018,4.9018,4.9018,4.9018,4.9018,0.0,0.0,0.0,4.9018,4.9018,4.9018,4.9018,4.9018,4.9018,4.9018,4.9018,4.9018,4.9018,4.9018,4.9018,4.9018,4.9018,4.9018,4.9018,4.9018,4.9018,4.8096,4.7172,4.6173,4.5227,4.4282,4.3329,4.3329,4.3329,4.3389,4.4556,4.5155,4.5394,4.6591,4.716,4.7309,4.7309,4.7309,4.7309,4.7309,4.7309,4.6931,6.2805,6.2768,6.2475,6.1741,6.1484,6.0933,5.9428,5.9171,5.8841,5.8107,5.7997,5.7997,5.7997,5.7997,5.7997,5.7997,5.7997,5.7997,5.7997,5.7997,5.7997,5.7997,5.7997,5.7997,5.7997,5.7997,5.7997,5.7997,5.7923,5.7483,5.6712,5.5904,5.506,5.4289,5.3555,5.3225,5.3225,5.3225,5.3225,5.3225,5.3225,5.3225,5.3103,5.2381,5.1692,5.0981,5.0223,4.958,4.9018,4.9018,4.9018,4.9018,4.9018,4.9018,4.9018,4.9018,4.9018,4.9018,4.9018,4.9018,4.9018,4.9018,4.9018,4.9018,4.9018,4.9018,4.9018,4.9018,4.9018,4.9018,4.9018,4.9018,4.9018,4.9018,0.0,0.0,4.9018,4.9018,4.9018,4.9018,4.9018,4.9018,4.9018,4.9018,4.9018,4.9018,4.9018,4.9018,4.9018,4.9018,4.9018,4.9018,4.9018,4.9018,4.9018,4.8096,4.7172,4.6173,4.5227,4.4282,4.3329,4.3329,4.3329,4.3359,4.4077,4.4736,4.5364,4.6082,4.6741,4.7309,4.7309,4.7309,4.7309,4.7309,4.7309,4.6931,6.2805,6.2805,6.2695,6.2401,6.1924,6.1374,6.0786,5.9832,5.9098,5.8804,5.8327,5.7997,5.7997,5.7997,5.7997,5.7997,5.7997,5.7997,5.7997,5.7997,5.7997,5.7997,5.7997,5.7997,5.7997,5.7997,5.7997,5.7997,5.7997,5.7593,5.6785,5.6492,5.5904,5.5097,5.4289,5.3959,5.3922,5.3408,5.3225,5.3225,5.3225,5.3225,5.3103,5.2381,5.1692,5.0981,5.0223,4.958,4.9018,4.9018,4.9018,4.9086,4.9526,4.9661,4.9661,4.9661,4.9357,4.9018,4.9018,4.9018,4.9018,4.9018,4.9018,4.9018,4.9018,4.9018,4.9018,4.9018,4.9018,4.9018,4.9018,4.9018,4.9018,4.9018,0.0,4.9018,4.9018,4.9018,4.9018,4.9018,4.9018,4.9018,4.9018,4.9018,4.9018,4.9018,4.9018,4.9018,4.9018,4.9018,4.9018,4.9018,4.9018,4.9018,4.9018,4.8639,4.7737,4.6173,4.585,4.4856,4.3329,4.3329,4.3329,4.3359,4.4018,4.4676,4.5334,4.6022,4.6711,4.7309,4.7309,4.7309,4.7309,4.7309,4.7309,4.7019,6.2805,6.2805,6.2805,6.2805,6.2365,6.1887,6.163,6.0676,5.9795,5.9281,5.8731,5.829,5.8033,5.7997,5.7997,5.7997,5.7997,5.7997,5.7997,5.7997,5.7997,5.7997,5.7997,5.7997,5.7997,5.7997,5.7997,5.7997,5.7997,5.7703,5.7189,5.6932,5.6528,5.5941,5.5133,5.4766,5.473,5.4179,5.3812,5.3592,5.3592,5.3445,5.3146,5.2644,5.2162,5.1699,5.0959,5.0379,5.0032,4.9757,4.9695,4.9796,5.0304,5.0439,5.0439,5.0439,5.0101,4.9695,4.9695,4.9526,4.9289,4.9052,4.9018,4.9018,4.9018,4.9018,4.9018,4.9018,4.9018,4.9018,4.9018,4.9018,4.9018,4.9018,4.9018,4.9018,4.9018,4.9018,4.9018,4.9018,4.9018,4.9018,4.9018,4.9018,4.9018,4.9018,4.9018,4.9018,4.9018,4.9018,4.9018,4.9018,4.9018,4.9018,4.9018,4.9018,4.8096,4.6173,4.6173,4.5196,4.3329,4.3329,4.3329,4.3359,4.3808,4.4377,4.5035,4.5723,4.6381,4.701,4.7219,4.7309,4.7309,4.7309,4.7309,4.7106,6.2805,6.2805,6.2805,6.2805,6.2805,6.2548,6.1741,6.1594,6.1043,5.9428,5.9208,5.8914,5.8107,5.7997,5.7997,5.7997,5.7997,5.7997,5.7997,5.7997,5.7997,5.7997,5.7997,5.7997,5.7997,5.7997,5.7997,5.7997,5.7997,5.7997,5.796,5.7189,5.6822,5.6785,5.5978,5.5611,5.5611,5.5574,5.5133,5.4399,5.4399,5.3922,5.3225,5.3225,5.328,5.3219,5.2465,5.2292,5.226,5.1503,5.1217,5.1217,5.1217,5.1217,5.1217,5.1217,5.1217,5.1217,5.1217,5.0676,4.9932,4.9187,4.9018,4.9018,4.9018,4.9018,4.9018,4.9018,4.9018,4.9018,4.9018,4.9018,4.9018,4.9018,4.9018,4.9018,4.9018,4.9018,4.9018,4.9018,4.9018,4.9018,4.9018,4.9018,4.9018,4.9018,4.9018,4.9018,4.9018,4.9018,4.9018,4.9018,4.9018,4.9018,4.9018,4.9018,4.8096,4.6173,4.6173,4.5196,4.3329,4.3329,4.3329,4.3329,4.3329,4.3718,4.4377,4.5005,4.5693,4.6381,4.704,4.7309,4.7309,4.7309,4.7309,4.7106,6.2805,6.2805,6.2805,6.2805,6.2805,6.2732,6.2475,6.1961,6.141,6.0933,5.9905,5.9134,5.8877,5.8327,5.7997,5.7997,5.7997,5.7997,5.7997,5.7997,5.7997,5.7997,5.7997,5.7997,5.7997,5.7997,5.7997,5.7997,5.7997,5.7997,5.7997,5.774,5.7629,5.7593,5.6785,5.6455,5.6418,5.5831,5.5464,5.5244,5.5244,5.5097,5.4876,5.4876,5.4592,5.417,5.3972,5.3245,5.2379,5.2114,5.1657,5.1319,5.1826,5.1961,5.1961,5.1961,5.1623,5.1217,5.1217,5.1048,5.071,4.9965,4.939,4.9018,4.9018,4.9018,4.9018,4.9018,4.9018,4.9018,4.9018,4.9018,4.9018,4.9018,4.9018,4.9018,4.9018,4.9018,4.9018,4.9018,4.9018,4.9018,4.9018,4.9018,4.9018,4.9018,4.9018,4.9018,4.9018,4.9018,4.9018,4.9018,4.9018,4.9018,4.9018,4.9018,4.8096,4.6173,4.6173,4.5196,4.3329,4.3329,4.3329,4.3329,4.3329,4.3718,4.4317,4.4526,4.5005,4.5663,4.6352,4.6621,4.6681,4.713,4.7309,4.7222,6.2805,6.2805,6.2805,6.2805,6.2805,6.2805,6.2805,6.2401,6.1961,6.163,6.075,6.0052,5.9722,5.9245,5.8951,5.8951,5.8951,5.8804,5.851,5.8474,5.8327,5.7997,5.7997,5.7997,5.7997,5.7997,5.7997,5.7997,5.7997,5.7997,5.7997,5.7997,5.7997,5.796,5.7483,5.7262,5.7226,5.6748,5.6345,5.6051,5.6051,5.5868,5.5574,5.5574,5.5533,5.5425,5.5135,5.4668,5.4063,5.346,5.2735,5.2198,5.2638,5.2773,5.2773,5.2773,5.2469,5.2131,5.2131,5.1894,5.1522,5.1082,5.0202,4.9424,4.9424,4.9221,4.9018,4.9018,4.9018,4.9018,4.9018,4.9018,4.9018,4.9018,4.9018,4.9018,4.9018,4.9018,4.9018,4.9018,4.9018,4.9018,4.9018,4.9018,4.9018,4.9018,4.9018,4.9018,4.9018,4.9018,4.9018,4.9018,4.9018,4.9018,4.9018,4.9018,4.8096,4.6173,4.6173,4.5196,4.3329,4.3329,4.3329,4.3329,4.3329,4.3569,4.3958,4.4197,4.4556,4.4975,4.5663,4.6082,4.6381,4.677,4.707,4.7309,6.2805,6.2805,6.2805,6.2805,6.2805,6.2805,6.2805,6.2805,6.2548,6.1777,6.163,6.13,6.0603,6.0456,6.0419,6.0419,6.0419,6.0089,5.9391,5.9245,5.8877,5.8143,5.8033,5.7997,5.7997,5.7997,5.7997,5.7997,5.7997,5.7997,5.7997,5.7997,5.7997,5.7997,5.7997,5.7997,5.7997,5.7997,5.7593,5.6932,5.6932,5.6455,5.5794,5.5794,5.6271,5.6804,5.6164,5.635,5.6668,5.5119,5.4171,5.3618,5.3484,5.3518,5.3518,5.3518,5.3518,5.3518,5.3518,5.2976,5.2401,5.2401,5.1319,5.027,5.0202,4.9627,4.9086,4.9086,4.9052,4.9018,4.9018,4.9018,4.9018,4.9018,4.9018,4.9018,4.9018,4.9018,4.9018,4.9018,4.9018,4.9018,4.9018,4.9018,4.9018,4.9018,4.9018,4.9018,4.9018,4.9018,4.9018,4.9018,4.9018,4.9018,4.9018,4.9018,4.8096,4.6173,4.6173,4.5196,4.3329,4.3329,4.3329,4.3329,4.3329,4.3329,4.3389,4.3988,4.4227,4.4287,4.4945,4.5574,4.6142,4.6202,4.6651,4.7219,6.2805,6.2805,6.2805,6.2805,6.2805,6.2805,6.2805,6.2805,6.2768,6.2585,6.1998,6.152,6.1374,6.0786,6.0419,6.0419,6.0419,6.0346,6.0162,5.9575,5.9134,5.8951,5.8327,5.7997,5.7997,5.7997,5.7997,5.7997,5.7997,5.7997,5.7997,5.7997,5.7997,5.7997,5.7997,5.7997,5.7997,5.7997,5.7886,5.774,5.774,5.7629,5.7483,5.7483,5.7593,5.774,5.7564,5.7255,5.6668,5.5119,5.4482,5.4264,5.3651,5.3518,5.3518,5.3518,5.3518,5.3518,5.3518,5.3382,5.3247,5.3247,5.2536,5.1657,5.1116,5.0405,4.9864,4.9864,4.939,4.9018,4.9018,4.9018,4.9018,4.9018,4.9018,4.9018,4.9018,4.9018,4.9018,4.9018,4.9018,4.9018,4.9018,4.9018,4.9018,4.9018,4.9018,4.9018,4.9018,4.9018,4.9018,4.9018,4.9018,4.9018,4.9018,4.9018,4.8096,4.6173,4.6173,4.5196,4.3329,4.3329,4.3329,4.3329,4.3329,4.3329,4.3329,4.3479,4.3539,4.3599,4.4257,4.4616,4.4825,4.5334,4.5963,4.642,6.2805,6.2805,6.2805,6.2805,6.2805,6.2805,6.2805,6.2805,6.2805,6.2805,6.2438,6.2181,6.2181,6.1814,6.1557,6.1557,6.1557,6.1374,6.1006,6.0566,6.0162,5.9795,5.9024,5.8584,5.8584,5.8217,5.7997,5.7997,5.7997,5.7997,5.7997,5.7997,5.7997,5.7997,5.7997,5.7997,5.7997,5.7997,5.7997,5.7997,5.7997,5.7997,5.7997,5.7997,5.7997,5.7997,5.7997,5.7498,5.6809,5.5984,5.5238,5.4544,5.4171,5.3783,5.3518,5.3518,5.3518,5.3518,5.3518,5.3518,5.3518,5.3518,5.3179,5.2672,5.1928,5.115,5.0507,5.0168,4.9796,4.9424,4.9052,4.9018,4.9018,4.9018,4.9018,4.9018,4.9018,4.9018,4.9018,4.9018,4.9018,4.9018,4.9018,4.9018,4.9018,4.9018,4.9018,4.9018,4.9018,4.9018,4.9018,4.9018,4.9018,4.9018,4.9018,4.9018,4.8289,4.6867,4.6384,4.5384,4.4004,4.3566,4.3329,4.3329,4.3329,4.3329,4.3329,4.3329,4.3329,4.3359,4.3718,4.4047,4.4347,4.4706,4.5244,4.5848,6.2805,6.2805,6.2805,6.2805,6.2805,6.2805,6.2805,6.2805,6.2805,6.2805,6.2805,6.2805,6.2805,6.2805,6.2805,6.2805,6.2805,6.2511,6.1851,6.1667,6.13,6.0639,5.9832,5.9428,5.9428,5.8767,5.829,5.7997,5.7997,5.7997,5.7997,5.7997,5.7997,5.7997,5.7997,5.7997,5.7997,5.7997,5.7997,5.7997,5.7997,5.7997,5.7997,5.7997,5.7997,5.7997,5.7997,5.7631,5.7065,5.6964,5.6039,5.4939,5.4695,5.4136,5.3651,5.3551,5.3518,5.3518,5.3518,5.3518,5.3518,5.3518,5.3518,5.3348,5.2672,5.1928,5.1217,5.0608,5.027,4.9898,4.9289,4.9086,4.9018,4.9018,4.9018,4.9018,4.9018,4.9018,4.9018,4.9018,4.9018,4.9018,4.9018,4.9018,4.9018,4.9018,4.9018,4.9018,4.9018,4.9018,4.9018,4.9018,4.9018,4.9018,4.9018,4.9018,4.8576,4.7803,4.673,4.5706,4.4737,4.3927,4.3488,4.3329,4.3329,4.3329,4.3329,4.3329,4.3329,4.3329,4.3329,4.3658,4.4167,4.4287,4.4646,4.5214,6.2805,6.2805,6.2805,6.2805,6.2805,6.2805,6.2805,6.2805,6.2805,6.2805,6.2805,6.2805,6.2805,6.2805,6.2805,6.2805,6.2805,6.2768,6.2658,6.1998,6.1557,6.1447,6.0676,6.0236,6.0236,6.0126,5.9391,5.7997,5.7997,5.7997,5.7997,5.7997,5.7997,5.7997,5.7997,5.7997,5.7997,5.7997,5.7997,5.7997,5.7997,5.7997,5.7997,5.7997,5.7997,5.7997,5.7997,5.795,5.7774,5.7116,5.6757,5.6349,5.4999,5.4544,5.4328,5.3651,5.3518,5.3518,5.3518,5.3518,5.3518,5.3518,5.3518,5.3484,5.3382,5.2739,5.2131,5.2029,5.098,5.0067,4.9965,4.9424,4.9018,4.9018,4.9018,4.9018,4.9018,4.9018,4.9018,4.9018,4.9018,4.9018,4.9018,4.9018,4.9018,4.9018,4.9018,4.9018,4.9018,4.9018,4.9018,4.9018,4.9018,4.9018,4.9018,4.9018,4.8923,4.8798,4.7036,4.5706,4.4812,4.4662,4.4128,4.3329,4.3329,4.3329,4.3329,4.3329,4.3329,4.3329,4.3329,4.3389,4.3539,4.4107,4.4377,4.4556,6.2805,6.2805,6.2805,6.2805,6.2805,6.2805,6.2805,6.2805,6.2805,6.2805,6.2805,6.2805,6.2805,6.2805,6.2805,6.2805,6.2805,6.2805,6.2805,6.2475,6.2291,6.2291,6.1484,6.108,6.108,6.0639,6.0052,5.9355,5.8877,5.8437,5.7997,5.7997,5.7997,5.7997,5.7997,5.7997,5.7997,5.7997,5.7997,5.7997,5.7997,5.7997,5.7997,5.7997,5.7997,5.7997,5.7997,5.7997,5.795,5.7594,5.7252,5.6809,5.6095,5.5297,5.4544,5.42,5.3849,5.3518,5.3518,5.3518,5.3518,5.3518,5.3518,5.3518,5.3518,5.3247,5.2841,5.2401,5.1792,5.1082,5.0236,4.983,4.9492,4.9086,4.9018,4.9018,4.9018,4.9018,4.9018,4.9018,4.9018,4.9018,4.9018,4.9018,4.9018,4.9018,4.9018,4.9018,4.9018,4.9018,4.9018,4.9018,4.9018,4.9018,4.9018,4.9018,4.9018,4.8984,4.8161,4.7036,4.5561,4.4434,4.3693,4.3329,4.3329,4.3329,4.3329,4.3329,4.3329,4.3329,4.3329,4.3329,4.3359,4.3658,4.3778,4.3868]},{"header":{"parameterUnit":"m.s-1","parameterCategory":1,"la1":30.6,"la2":28.766,"lo1":-90.7593,"lo2":-88.6598,"dy":0.0162,"dx":0.0183,"nx":116,"ny":114,"refTime":"2024-03-06T06:00:00:Z","depth":0,"parameterNumber":3,"parameterNumberName":"V-component_of_WINDS"},"data":[0.0,0.0,0.0,0.0,0.0,0.0,0.0,0.0,0.0,0.0,0.0,0.0,0.0,0.0,0.0,0.0,0.0,0.0,0.0,0.0,0.0,0.0,0.0,0.0,0.0,0.0,0.0,0.0,0.0,0.0,0.0,0.0,0.0,0.0,0.0,0.0,0.0,0.0,0.0,0.0,0.0,0.0,0.0,0.0,0.0,0.0,0.0,0.0,0.0,0.0,0.0,0.0,0.0,0.0,0.0,0.0,0.0,0.0,0.0,0.0,0.0,0.0,0.0,0.0,0.0,0.0,0.0,0.0,0.0,0.0,0.0,0.0,0.0,0.0,0.0,0.0,0.0,0.0,0.0,0.0,0.0,0.0,0.0,0.0,0.0,0.0,0.0,0.0,0.0,0.0,0.0,0.0,0.0,0.0,0.0,0.0,0.0,0.0,0.0,0.0,0.0,0.0,0.0,0.0,0.0,0.0,0.0,0.0,0.0,0.0,0.0,0.0,0.0,0.0,0.0,0.0,0.0,0.0,0.0,0.0,0.0,0.0,0.0,0.0,0.0,0.0,0.0,0.0,0.0,0.0,0.0,0.0,0.0,0.0,0.0,0.0,0.0,0.0,0.0,0.0,0.0,0.0,0.0,0.0,0.0,0.0,0.0,0.0,0.0,0.0,0.0,0.0,0.0,0.0,0.0,0.0,0.0,0.0,0.0,0.0,0.0,0.0,0.0,0.0,0.0,0.0,0.0,0.0,0.0,0.0,0.0,0.0,0.0,0.0,0.0,0.0,0.0,0.0,0.0,0.0,0.0,0.0,0.0,0.0,0.0,0.0,0.0,0.0,0.0,0.0,0.0,0.0,0.0,0.0,0.0,0.0,0.0,0.0,0.0,0.0,0.0,0.0,0.0,0.0,0.0,0.0,0.0,0.0,0.0,0.0,0.0,0.0,0.0,0.0,0.0,0.0,0.0,0.0,0.0,0.0,0.0,0.0,0.0,0.0,0.0,0.0,0.0,0.0,0.0,0.0,0.0,0.0,0.0,0.0,0.0,0.0,0.0,0.0,0.0,0.0,0.0,0.0,0.0,0.0,0.0,0.0,0.0,0.0,0.0,0.0,0.0,0.0,0.0,0.0,0.0,0.0,0.0,0.0,0.0,0.0,0.0,0.0,0.0,0.0,0.0,0.0,0.0,0.0,0.0,0.0,0.0,0.0,0.0,0.0,0.0,0.0,0.0,0.0,0.0,0.0,0.0,0.0,0.0,0.0,0.0,0.0,0.0,0.0,0.0,0.0,0.0,0.0,0.0,0.0,0.0,0.0,0.0,0.0,0.0,0.0,0.0,0.0,0.0,0.0,0.0,0.0,0.0,0.0,0.0,0.0,0.0,0.0,0.0,0.0,0.0,0.0,0.0,0.0,0.0,0.0,0.0,0.0,0.0,0.0,0.0,0.0,0.0,0.0,0.0,0.0,0.0,0.0,0.0,0.0,0.0,0.0,0.0,0.0,0.0,0.0,0.0,0.0,0.0,0.0,0.0,0.0,0.0,0.0,0.0,0.0,0.0,0.0,0.0,0.0,0.0,0.0,0.0,0.0,0.0,0.0,0.0,0.0,0.0,0.0,0.0,0.0,0.0,0.0,0.0,0.0,0.0,0.0,0.0,0.0,0.0,0.0,0.0,0.0,0.0,0.0,0.0,0.0,0.0,0.0,0.0,0.0,0.0,0.0,0.0,0.0,0.0,0.0,0.0,0.0,0.0,0.0,0.0,0.0,0.0,0.0,0.0,0.0,0.0,0.0,0.0,0.0,0.0,0.0,0.0,0.0,0.0,0.0,0.0,0.0,0.0,0.0,0.0,0.0,0.0,0.0,0.0,0.0,0.0,0.0,0.0,0.0,0.0,0.0,0.0,0.0,0.0,0.0,0.0,0.0,0.0,0.0,0.0,0.0,0.0,0.0,0.0,0.0,0.0,0.0,0.0,0.0,0.0,0.0,0.0,0.0,0.0,0.0,0.0,0.0,0.0,0.0,0.0,0.0,0.0,0.0,0.0,0.0,0.0,0.0,0.0,0.0,0.0,0.0,0.0,0.0,0.0,0.0,0.0,0.0,0.0,0.0,0.0,0.0,0.0,0.0,0.0,0.0,0.0,0.0,0.0,0.0,0.0,0.0,0.0,0.0,0.0,0.0,0.0,0.0,0.0,0.0,0.0,0.0,0.0,0.0,0.0,0.0,0.0,0.0,0.0,0.0,0.0,0.0,0.0,0.0,0.0,0.0,0.0,0.0,0.0,0.0,0.0,0.0,0.0,0.0,0.0,0.0,0.0,0.0,0.0,0.0,0.0,0.0,0.0,0.0,0.0,0.0,0.0,0.0,0.0,0.0,0.0,0.0,0.0,0.0,0.0,0.0,0.0,0.0,0.0,0.0,0.0,0.0,0.0,0.0,0.0,0.0,0.0,0.0,0.0,0.0,0.0,0.0,0.0,0.0,0.0,0.0,0.0,0.0,0.0,0.0,0.0,0.0,0.0,0.0,0.0,0.0,0.0,0.0,0.0,0.0,0.0,0.0,0.0,0.0,0.0,0.0,0.0,0.0,0.0,0.0,0.0,0.0,0.0,0.0,0.0,0.0,0.0,0.0,0.0,0.0,0.0,0.0,0.0,0.0,0.0,0.0,0.0,0.0,0.0,0.0,0.0,0.0,0.0,0.0,0.0,0.0,0.0,0.0,0.0,0.0,0.0,0.0,0.0,0.0,0.0,0.0,0.0,0.0,0.0,0.0,0.0,0.0,0.0,0.0,0.0,0.0,0.0,0.0,0.0,0.0,0.0,0.0,0.0,0.0,0.0,0.0,0.0,0.0,0.0,0.0,0.0,0.0,0.0,0.0,0.0,0.0,0.0,0.0,0.0,0.0,0.0,0.0,0.0,0.0,0.0,0.0,0.0,0.0,0.0,0.0,0.0,0.0,0.0,0.0,0.0,0.0,0.0,0.0,0.0,0.0,0.0,0.0,0.0,0.0,0.0,0.0,0.0,0.0,0.0,0.0,0.0,0.0,0.0,0.0,0.0,0.0,0.0,0.0,0.0,0.0,0.0,0.0,0.0,0.0,0.0,0.0,0.0,0.0,0.0,0.0,0.0,0.0,0.0,0.0,0.0,0.0,0.0,0.0,0.0,0.0,0.0,0.0,0.0,0.0,0.0,0.0,0.0,0.0,0.0,0.0,0.0,0.0,0.0,0.0,0.0,0.0,0.0,0.0,0.0,0.0,0.0,0.0,0.0,0.0,0.0,0.0,0.0,0.0,0.0,0.0,0.0,0.0,0.0,0.0,0.0,0.0,0.0,0.0,0.0,0.0,0.0,0.0,0.0,0.0,0.0,0.0,0.0,0.0,0.0,0.0,0.0,0.0,0.0,0.0,0.0,0.0,0.0,0.0,0.0,0.0,0.0,0.0,0.0,0.0,0.0,0.0,0.0,0.0,0.0,0.0,0.0,0.0,0.0,0.0,0.0,0.0,0.0,0.0,0.0,0.0,0.0,0.0,0.0,0.0,0.0,0.0,0.0,0.0,0.0,0.0,0.0,0.0,0.0,0.0,0.0,0.0,0.0,0.0,0.0,0.0,0.0,0.0,0.0,0.0,0.0,0.0,0.0,0.0,0.0,0.0,0.0,0.0,0.0,0.0,0.0,0.0,0.0,0.0,0.0,0.0,0.0,0.0,0.0,0.0,0.0,0.0,0.0,0.0,0.0,0.0,0.0,0.0,0.0,0.0,0.0,0.0,0.0,0.0,0.0,0.0,0.0,0.0,0.0,0.0,0.0,0.0,0.0,0.0,0.0,0.0,0.0,0.0,0.0,0.0,0.0,0.0,0.0,0.0,0.0,0.0,0.0,0.0,0.0,0.0,0.0,0.0,0.0,0.0,0.0,0.0,0.0,0.0,0.0,0.0,0.0,0.0,0.0,0.0,0.0,0.0,0.0,0.0,0.0,0.0,0.0,0.0,0.0,0.0,0.0,0.0,0.0,0.0,0.0,0.0,0.0,0.0,0.0,0.0,0.0,0.0,0.0,0.0,0.0,0.0,0.0,0.0,0.0,0.0,0.0,0.0,0.0,0.0,0.0,0.0,0.0,0.0,0.0,0.0,0.0,0.0,0.0,0.0,0.0,0.0,0.0,0.0,0.0,0.0,0.0,0.0,0.0,0.0,0.0,0.0,0.0,0.0,0.0,0.0,0.0,0.0,0.0,0.0,0.0,0.0,0.0,0.0,0.0,0.0,0.0,0.0,0.0,0.0,0.0,0.0,0.0,0.0,0.0,0.0,0.0,0.0,0.0,0.0,0.0,0.0,0.0,0.0,0.0,0.0,0.0,0.0,0.0,0.0,0.0,0.0,0.0,0.0,0.0,0.0,0.0,0.0,0.0,0.0,0.0,0.0,0.0,0.0,0.0,0.0,0.0,0.0,0.0,0.0,0.0,0.0,0.0,0.0,0.0,0.0,0.0,0.0,0.0,0.0,0.0,0.0,0.0,0.0,0.0,0.0,0.0,0.0,0.0,0.0,0.0,0.0,0.0,0.0,0.0,0.0,0.0,0.0,0.0,0.0,0.0,0.0,0.0,0.0,0.0,0.0,0.0,0.0,0.0,0.0,0.0,0.0,0.0,0.0,0.0,0.0,0.0,0.0,0.0,0.0,0.0,0.0,0.0,0.0,0.0,0.0,0.0,0.0,0.0,0.0,0.0,0.0,0.0,0.0,0.0,0.0,0.0,0.0,0.0,0.0,0.0,0.0,0.0,0.0,0.0,0.0,0.0,0.0,0.0,0.0,0.0,0.0,0.0,0.0,0.0,0.0,0.0,0.0,0.0,0.0,0.0,0.0,0.0,0.0,0.0,0.0,0.0,0.0,0.0,0.0,0.0,0.0,0.0,0.0,0.0,0.0,0.0,0.0,0.0,0.0,0.0,0.0,0.0,0.0,0.0,0.0,0.0,0.0,0.0,0.0,0.0,0.0,0.0,0.0,0.0,0.0,0.0,0.0,0.0,0.0,0.0,0.0,0.0,0.0,0.0,0.0,0.0,0.0,0.0,0.0,0.0,0.0,0.0,0.0,0.0,0.0,0.0,0.0,0.0,0.0,0.0,0.0,0.0,0.0,0.0,0.0,0.0,0.0,0.0,0.0,0.0,0.0,0.0,0.0,0.0,0.0,0.0,0.0,0.0,0.0,0.0,0.0,0.0,0.0,0.0,0.0,0.0,0.0,0.0,0.0,0.0,0.0,0.0,0.0,0.0,0.0,0.0,0.0,0.0,0.0,0.0,0.0,0.0,0.0,0.0,0.0,0.0,0.0,0.0,0.0,0.0,0.0,0.0,0.0,0.0,0.0,0.0,0.0,0.0,0.0,0.0,0.0,0.0,0.0,0.0,0.0,0.0,0.0,0.0,0.0,0.0,0.0,0.0,0.0,0.0,0.0,0.0,0.0,0.0,0.0,0.0,0.0,0.0,0.0,0.0,0.0,0.0,0.0,0.0,0.0,0.0,0.0,0.0,0.0,0.0,0.0,0.0,0.0,0.0,0.0,0.0,0.0,0.0,0.0,0.0,0.0,0.0,0.0,0.0,0.0,0.0,0.0,0.0,0.0,0.0,0.0,0.0,0.0,0.0,0.0,0.0,0.0,0.0,0.0,0.0,0.0,0.0,0.0,0.0,0.0,0.0,0.0,0.0,0.0,0.0,0.0,0.0,0.0,0.0,0.0,0.0,0.0,0.0,0.0,0.0,0.0,0.0,0.0,0.0,0.0,0.0,0.0,0.0,0.0,0.0,0.0,0.0,0.0,0.0,0.0,0.0,0.0,0.0,0.0,0.0,0.0,0.0,0.0,0.0,0.0,0.0,0.0,0.0,0.0,0.0,0.0,0.0,0.0,0.0,0.0,0.0,0.0,0.0,0.0,0.0,0.0,0.0,0.0,0.0,0.0,0.0,0.0,0.0,0.0,0.0,0.0,0.0,0.0,0.0,0.0,0.0,0.0,0.0,0.0,0.0,0.0,0.0,0.0,0.0,0.0,0.0,0.0,0.0,0.0,0.0,0.0,0.0,0.0,0.0,0.0,0.0,0.0,-3.5519,0.0,0.0,0.0,0.0,0.0,0.0,0.0,0.0,0.0,0.0,0.0,0.0,0.0,0.0,0.0,0.0,0.0,0.0,0.0,0.0,0.0,0.0,0.0,0.0,0.0,0.0,0.0,0.0,0.0,0.0,0.0,0.0,0.0,0.0,0.0,0.0,0.0,-3.2516,-3.2215,-3.1687,-3.1009,-3.0231,-3.0507,-3.0482,-3.0206,0.0,0.0,0.0,0.0,0.0,0.0,0.0,0.0,0.0,0.0,0.0,0.0,0.0,0.0,0.0,0.0,0.0,0.0,0.0,0.0,0.0,0.0,0.0,0.0,0.0,0.0,0.0,0.0,0.0,0.0,0.0,0.0,0.0,0.0,0.0,0.0,0.0,0.0,0.0,0.0,0.0,0.0,0.0,0.0,0.0,0.0,0.0,0.0,0.0,0.0,0.0,0.0,0.0,0.0,0.0,0.0,0.0,0.0,0.0,0.0,0.0,0.0,0.0,0.0,0.0,0.0,0.0,0.0,0.0,0.0,0.0,-3.5718,0.0,0.0,0.0,0.0,0.0,0.0,0.0,0.0,0.0,0.0,0.0,0.0,0.0,0.0,0.0,0.0,0.0,0.0,0.0,0.0,0.0,0.0,0.0,-3.3068,-3.3068,-3.3068,-3.3068,-3.3068,0.0,0.0,0.0,0.0,0.0,-3.3043,-3.2943,-3.2466,-3.2114,-3.1938,-3.0959,-3.0231,-2.9804,-2.9804,-2.9804,-2.9804,-2.9804,0.0,0.0,0.0,0.0,0.0,0.0,0.0,0.0,0.0,0.0,0.0,0.0,0.0,0.0,0.0,0.0,0.0,0.0,0.0,0.0,0.0,0.0,0.0,0.0,0.0,0.0,0.0,0.0,0.0,0.0,0.0,0.0,0.0,0.0,0.0,0.0,0.0,0.0,0.0,0.0,0.0,0.0,0.0,0.0,0.0,0.0,0.0,0.0,0.0,0.0,0.0,0.0,0.0,0.0,0.0,0.0,0.0,0.0,0.0,0.0,0.0,0.0,0.0,-3.5519,-3.5879,-3.66,-3.66,-3.7024,-3.7764,-3.6415,-3.591,-3.5973,-3.6692,0.0,0.0,0.0,0.0,0.0,0.0,0.0,0.0,0.0,0.0,0.0,0.0,0.0,0.0,0.0,0.0,0.0,0.0,0.0,0.0,0.0,-3.3068,-3.3068,-3.3068,-3.3068,-3.3068,-3.3068,0.0,-3.3068,-3.3068,-3.3068,-3.2842,-3.234,-3.2265,-3.1763,-3.0834,-3.0206,-2.9854,-2.9804,-2.9804,-2.9804,-2.9804,-2.9804,-2.9804,-2.9804,0.0,0.0,0.0,0.0,0.0,0.0,0.0,0.0,0.0,0.0,0.0,0.0,0.0,0.0,0.0,0.0,0.0,0.0,0.0,0.0,0.0,0.0,0.0,0.0,0.0,0.0,0.0,0.0,0.0,0.0,0.0,0.0,0.0,0.0,0.0,0.0,0.0,0.0,0.0,0.0,0.0,-3.5519,-3.5519,0.0,0.0,0.0,0.0,0.0,0.0,0.0,0.0,0.0,0.0,0.0,0.0,0.0,-3.5519,-3.5519,-3.5519,-3.5519,-3.5519,-3.5519,-3.5879,-3.66,-3.66,-3.7024,-3.7822,-3.7589,0.0,-3.7531,-3.8302,0.0,0.0,0.0,0.0,0.0,0.0,0.0,0.0,0.0,0.0,0.0,0.0,0.0,0.0,0.0,0.0,0.0,0.0,0.0,0.0,0.0,-3.3068,-3.3068,-3.3068,-3.3068,-3.3068,-3.3068,-3.3068,-3.3068,-3.3068,-3.3068,-3.2817,-3.2215,-3.2215,-3.1687,-3.0608,-3.0055,-2.9804,-2.9804,-2.9804,-2.9804,-2.9804,-2.9804,-2.9804,-2.9804,-2.9804,0.0,0.0,0.0,0.0,0.0,0.0,0.0,0.0,0.0,0.0,0.0,0.0,0.0,0.0,0.0,0.0,0.0,0.0,0.0,0.0,0.0,0.0,0.0,0.0,0.0,0.0,0.0,0.0,0.0,0.0,0.0,0.0,0.0,0.0,0.0,0.0,0.0,0.0,0.0,-3.5519,-3.5519,-3.5519,-3.5519,-3.5519,0.0,0.0,0.0,0.0,0.0,0.0,0.0,0.0,0.0,-3.5519,-3.5879,-3.5943,-3.5489,-3.5879,-3.6102,-3.6102,-3.6102,-3.6722,-3.7873,-3.7873,-3.8358,-3.9102,-3.9102,-3.9102,-3.9049,-3.8962,-3.8908,-3.8962,0.0,0.0,0.0,0.0,-4.0087,-4.0087,0.0,0.0,0.0,0.0,0.0,0.0,0.0,0.0,0.0,0.0,0.0,0.0,-3.3068,-3.3068,-3.3068,-3.3068,-3.3068,-3.3068,-3.3068,-3.3068,-3.3068,-3.3068,-3.2943,-3.2591,-3.2014,-3.1738,-3.121,-3.0407,-3.0005,-2.9804,-2.9804,-2.9804,-2.9804,-2.9804,-2.9804,-2.9804,-2.9804,-2.9804,-2.9804,-2.9804,0.0,0.0,0.0,0.0,0.0,0.0,0.0,0.0,0.0,0.0,0.0,0.0,0.0,0.0,0.0,0.0,0.0,0.0,0.0,0.0,0.0,0.0,0.0,0.0,0.0,0.0,0.0,0.0,0.0,0.0,0.0,0.0,0.0,0.0,0.0,0.0,0.0,-3.5519,-3.5519,-3.5519,-3.5519,-3.5519,0.0,0.0,0.0,0.0,0.0,0.0,-3.5519,-3.5519,-3.5519,-3.5519,-3.607,-3.607,-3.5519,-3.607,-3.6322,-3.6322,-3.6508,-3.7291,-3.8635,-3.8799,-3.9315,-4.0087,-4.0087,-4.0087,-4.0054,-3.942,-3.9209,-3.9262,-3.985,-4.0087,-4.0087,-4.0087,-4.0087,-4.0087,0.0,0.0,0.0,0.0,0.0,0.0,0.0,0.0,0.0,0.0,0.0,-3.3068,-3.3068,-3.3068,-3.3068,-3.3068,-3.3068,-3.3068,-3.3068,-3.3068,-3.3068,-3.3068,-3.2541,-3.1989,-3.1436,-3.0432,-2.988,-2.9829,-2.9804,-2.9804,-2.9804,-2.9804,-2.9804,-2.9804,-2.9804,-2.9804,-2.9804,-2.9804,-2.9804,-2.9804,-2.9804,0.0,0.0,0.0,0.0,0.0,0.0,0.0,0.0,0.0,0.0,0.0,0.0,0.0,0.0,0.0,0.0,0.0,0.0,0.0,0.0,0.0,0.0,0.0,0.0,0.0,0.0,0.0,0.0,0.0,0.0,0.0,0.0,0.0,0.0,0.0,0.0,0.0,0.0,-3.5519,-3.5519,0.0,0.0,0.0,0.0,-3.5519,-3.5519,-3.5519,-3.5519,-3.5519,-3.5519,-3.5519,-3.5554,-3.5554,-3.5519,-3.5554,-3.5554,-3.5554,-3.629,-3.7024,-3.7879,-3.858,-3.9315,-4.0087,-4.0087,-4.0087,-4.0087,-4.0087,-4.0037,-4.0003,-4.0087,-4.0087,-4.0087,-4.0087,-4.0087,-4.0087,0.0,0.0,0.0,0.0,0.0,0.0,0.0,0.0,-3.3068,-3.3068,-3.3068,-3.3068,-3.3068,-3.3068,-3.3068,-3.3068,-3.3068,-3.3068,-3.3068,-3.3068,-3.3068,-3.3068,-3.2516,-3.1964,-3.1411,-3.0683,-3.0306,-3.0306,-2.9955,-2.9804,-2.9804,-2.9804,-2.9804,-2.9804,-2.9804,-2.9804,-2.9804,-2.9804,-2.9804,-2.9804,-2.9804,-2.9804,0.0,0.0,0.0,0.0,0.0,0.0,0.0,0.0,0.0,0.0,0.0,0.0,0.0,0.0,0.0,0.0,0.0,0.0,0.0,0.0,0.0,0.0,0.0,0.0,0.0,0.0,0.0,0.0,0.0,0.0,0.0,0.0,0.0,0.0,0.0,0.0,0.0,-3.5519,-3.5519,0.0,-3.5519,-3.5519,-3.5519,-3.5519,-3.5519,-3.5519,-3.5519,-3.5519,-3.5519,-3.5519,-3.5943,-3.6006,-3.5489,-3.5943,-3.6477,-3.6995,-3.7235,-3.8019,-3.9295,-3.9558,-3.985,-4.0087,-4.0087,-4.0087,-4.0087,-4.0087,-4.0087,-4.0087,-4.0087,-4.0087,-4.0087,-4.0087,-4.0087,-4.0087,0.0,0.0,0.0,0.0,0.0,0.0,0.0,0.0,-3.3068,-3.3068,-3.3068,-3.3068,-3.3068,-3.3068,-3.3068,-3.3068,-3.3068,-3.3068,-3.3068,-3.3068,-3.3068,-3.3068,-3.2516,-3.1863,-3.116,-3.0783,-3.0532,-3.0331,-2.998,-2.9804,-2.9804,-2.9804,-2.9804,-2.9804,-2.9804,-2.9804,-2.9804,-2.9804,-2.9804,-2.9804,-2.9804,-2.9804,-2.9934,0.0,0.0,0.0,0.0,0.0,0.0,0.0,0.0,0.0,0.0,0.0,0.0,0.0,0.0,0.0,0.0,0.0,0.0,0.0,0.0,0.0,0.0,0.0,0.0,0.0,0.0,0.0,0.0,0.0,0.0,0.0,0.0,0.0,0.0,0.0,-3.5519,-3.5519,-3.5519,-3.5519,-3.5519,-3.5519,-3.5519,-3.5519,-3.5519,-3.5519,-3.5519,-3.5519,-3.5519,-3.5519,-3.5943,-3.6102,-3.5879,-3.6322,-3.7024,-3.7822,-3.8019,-3.8723,-3.9714,-3.9952,-4.0087,-4.0087,-4.0087,-4.0087,-4.0087,-4.0087,-4.0087,-4.0087,-4.0087,-4.0087,-4.0087,-4.0087,-4.0087,-4.0087,0.0,0.0,0.0,0.0,0.0,0.0,0.0,-3.3445,-3.3068,-3.3068,-3.3068,-3.3068,-3.3068,-3.3068,-3.3068,-3.3068,-3.3068,-3.3068,-3.3068,-3.3068,-3.3068,-3.3043,-3.2541,-3.1738,-3.0633,-3.0633,-3.0357,-2.9804,-2.9804,-2.9804,-2.9804,-2.9804,-2.9804,-2.9804,-2.9804,-2.9804,-2.9804,-2.9804,-2.9804,-2.9804,-2.9804,-2.9804,-3.0011,0.0,0.0,0.0,0.0,0.0,0.0,0.0,0.0,0.0,0.0,0.0,0.0,0.0,0.0,0.0,0.0,0.0,0.0,0.0,0.0,0.0,0.0,0.0,0.0,0.0,0.0,0.0,0.0,0.0,0.0,0.0,0.0,0.0,-3.5519,-3.5519,-3.5519,-3.5519,-3.5519,-3.5519,-3.5519,-3.5519,-3.5519,-3.5519,-3.5519,-3.5519,-3.5519,-3.5519,-3.5519,-3.5519,-3.5519,-3.5846,-3.6538,-3.6538,-3.6964,-3.7822,-3.8525,-3.8908,-3.8962,-3.9714,-4.0087,-4.0087,-4.0087,-4.0087,-4.0087,-4.0087,-4.0087,-4.0087,-4.0087,-4.0087,-4.0087,-4.0087,-4.0087,-4.0087,0.0,0.0,0.0,0.0,0.0,0.0,-3.4525,-3.3696,-3.3068,-3.3068,-3.3068,-3.3068,-3.3068,-3.3068,-3.3068,-3.3068,-3.3068,-3.3068,-3.3068,-3.3068,-3.2893,-3.2466,-3.2692,-3.2139,-3.0658,-3.0984,-3.0733,-2.9804,-2.9804,-2.9804,-2.9804,-2.9804,-2.9804,-2.9804,-2.9804,-2.9804,-2.9804,-2.9804,-2.9804,-2.9804,-2.9804,-2.9804,-2.9934,0.0,0.0,0.0,0.0,0.0,0.0,0.0,0.0,0.0,0.0,0.0,0.0,0.0,0.0,0.0,0.0,0.0,0.0,0.0,0.0,0.0,0.0,0.0,0.0,0.0,0.0,0.0,0.0,0.0,0.0,0.0,0.0,-3.5519,-3.5519,-3.5519,-3.5519,-3.5519,-3.5519,-3.5519,-3.5519,-3.5519,-3.5519,-3.5519,-3.5519,-3.5519,-3.5519,-3.5519,-3.5519,-3.5519,-3.5519,-3.5619,-3.5782,-3.5782,-3.6477,-3.7822,-3.8051,-3.8723,-3.9799,-4.0003,-4.0087,-4.0087,-4.0087,-4.0087,-4.0087,-4.0087,-4.0087,-4.0087,-4.0087,-4.0087,-4.0087,-4.0087,-4.0087,-4.0087,0.0,0.0,0.0,0.0,0.0,0.0,-3.4726,-3.3796,-3.3068,-3.3068,-3.3068,-3.3068,-3.3068,-3.3068,-3.3068,-3.3068,-3.3068,-3.3068,-3.3068,-3.3068,-3.2918,-3.2591,-3.2893,-3.2516,-3.1311,-3.1361,-3.0984,-3.0131,-2.9905,-2.9804,-2.9804,-2.9804,-2.9804,-2.9804,-2.9804,-2.9804,-2.9804,-2.9804,-2.9804,-2.9856,-3.0216,-3.0139,-2.9934,-3.082,-3.1536,-3.2164,-3.3533,-3.4409,-3.4905,-3.5359,0.0,0.0,0.0,0.0,0.0,0.0,0.0,0.0,0.0,0.0,0.0,0.0,0.0,0.0,0.0,0.0,0.0,0.0,0.0,0.0,0.0,0.0,0.0,0.0,-3.5519,-3.5519,-3.5519,-3.5519,-3.5519,-3.5519,-3.5519,-3.5519,-3.5519,-3.5519,-3.5519,-3.5519,-3.5519,-3.5519,-3.5519,-3.5519,-3.5519,-3.5519,-3.5519,-3.5683,-3.5943,-3.6321,-3.7055,-3.8246,-3.8613,-3.9209,-4.0087,-4.0087,-4.0087,0.0,-4.0087,-4.0087,-4.0087,-4.0087,-4.0087,0.0,0.0,0.0,0.0,0.0,-4.0087,-4.0087,0.0,0.0,0.0,0.0,0.0,0.0,-3.4726,-3.3847,-3.3144,-3.3093,-3.3068,-3.3068,-3.3068,-3.3068,-3.3068,-3.3068,-3.3068,-3.3068,-3.3068,-3.3068,-3.3068,-3.3068,-3.3068,-3.2817,-3.2215,-3.1662,-3.1135,-3.0608,-3.0055,-2.9804,-2.9804,-2.9804,-2.9804,-2.9804,-2.9804,-2.9804,-2.9804,-2.9804,-2.9804,-2.9856,-3.0696,-3.062,-3.0062,-3.097,-3.1389,-3.1756,-3.3394,-3.4081,-3.4312,-3.5198,0.0,0.0,0.0,0.0,0.0,0.0,0.0,0.0,0.0,0.0,0.0,0.0,0.0,0.0,0.0,0.0,0.0,0.0,0.0,0.0,0.0,0.0,0.0,0.0,-3.5519,-3.5519,-3.5519,-3.5519,-3.5519,-3.5519,-3.5519,-3.5519,-3.5519,-3.5519,-3.5519,-3.5519,-3.5519,-3.5519,-3.5519,0.0,0.0,0.0,0.0,-3.5846,-3.6508,-3.7263,-3.8019,-3.8799,-3.961,-4.0003,-4.0087,-4.0087,-4.0087,-4.0087,-4.0087,-4.0087,-4.0087,-4.0087,-4.0121,-4.0189,-4.0121,-4.0121,-4.0189,-4.0189,-4.0257,-4.0324,0.0,0.0,0.0,0.0,0.0,0.0,-3.4801,-3.4173,-3.3571,-3.3144,-3.3068,-3.3068,-3.3068,-3.3068,-3.3068,-3.3068,-3.3068,-3.3068,-3.3068,-3.3068,-3.3068,-3.3068,-3.3068,-3.2817,-3.2215,-3.1662,-3.1135,-3.0608,-3.0055,-2.9804,-2.9804,-2.9804,-2.9804,-2.9804,-2.9804,-2.9804,-2.9804,-2.9804,-2.9804,-2.9779,-3.0011,-3.0419,-3.1044,-3.1947,-3.2806,-3.3533,-3.3876,-3.4543,-3.5198,-3.5424,-3.5519,-3.5519,-3.5519,-3.5519,0.0,0.0,0.0,0.0,0.0,0.0,0.0,0.0,0.0,0.0,0.0,0.0,0.0,0.0,0.0,0.0,0.0,0.0,0.0,-3.5519,-3.5519,-3.5519,-3.5519,-3.5519,-3.5519,-3.5519,-3.5519,-3.5519,-3.5519,-3.5519,-3.5519,-3.5519,-3.5519,-3.5519,-3.5519,-3.5519,-3.5519,-3.5519,-3.5519,-3.5554,-3.5718,-3.6446,-3.7203,-3.8019,0.0,0.0,-4.0087,-4.0087,-4.0087,-4.0087,-4.0087,-4.0087,-4.0087,-4.0087,-4.0426,-4.0933,-4.0324,-4.046,-4.1001,-4.1001,-4.1339,-4.1847,0.0,0.0,0.0,0.0,0.0,0.0,-3.4801,-3.4248,-3.3696,-3.3144,-3.3068,-3.3068,-3.3068,-3.3068,-3.3068,-3.3068,-3.3068,-3.3068,-3.3068,-3.3068,-3.3068,-3.3068,-3.3068,-3.2943,-3.2641,-3.2089,-3.1537,-3.1009,-3.0457,-3.0055,-2.9804,-2.9804,-2.9804,-2.9804,-2.9804,-2.9955,-3.0206,-3.0206,-3.0646,-3.1423,-3.1911,-3.2718,-3.3477,-3.2097,-3.2213,-3.319,-3.39,-3.4622,-3.531,-3.5836,-3.5789,-3.5519,-3.5519,-3.5519,-3.5519,0.0,0.0,0.0,0.0,0.0,0.0,0.0,0.0,0.0,0.0,0.0,0.0,0.0,0.0,-3.5519,-3.5519,0.0,-3.5519,-3.5519,-3.5519,-3.5519,-3.5519,-3.5519,-3.5519,-3.5519,-3.5519,-3.5519,-3.5519,-3.5519,-3.5519,-3.5519,-3.5519,-3.5519,-3.5519,-3.5519,-3.5519,-3.5519,-3.5519,-3.5519,-3.5519,-3.6228,-3.6783,-3.7203,-3.8358,-3.9069,-3.9506,-3.9901,-4.0087,-4.0087,-4.0087,-4.029,-4.0663,-4.1035,-4.1407,-4.1711,-4.1339,-4.1407,-4.1745,-4.1745,-4.1982,-4.2286,0.0,0.0,0.0,0.0,0.0,0.0,0.0,-3.4349,-3.3822,-3.3169,-3.3068,-3.3068,-3.3068,-3.3068,-3.3068,-3.3068,-3.3068,-3.3068,-3.3068,-3.3068,-3.3068,-3.3068,-3.3068,-3.3068,-3.3068,-3.2516,-3.1989,-3.1537,-3.1035,-3.0532,-3.0105,-3.0105,-3.0105,-3.0105,-3.0105,-3.0357,-3.0758,-3.0998,-3.1782,-3.3091,-3.4039,-3.4938,-3.5423,-3.2616,-3.22,-3.341,-3.452,-3.521,-3.5583,-3.6424,-3.6327,-3.5878,-3.5878,-3.5789,-3.5699,-3.5699,-3.5609,0.0,0.0,0.0,0.0,0.0,0.0,0.0,0.0,0.0,-3.5519,-3.5519,-3.5519,-3.5519,-3.5519,-3.5519,-3.5519,-3.5519,-3.5519,-3.5519,-3.5519,-3.5519,-3.5519,-3.5519,-3.5519,-3.5519,-3.5519,-3.5519,-3.5519,-3.5519,-3.5519,-3.5519,-3.5519,-3.5519,-3.5519,-3.5519,-3.5519,-3.5519,-3.5519,-3.6228,-3.66,-3.66,-3.8157,-3.8908,-3.8908,-3.9714,-4.0087,-4.0087,-4.0223,-4.073,-4.1474,-4.2219,-4.2523,-4.2523,-4.2692,-4.2726,-4.2726,-4.2557,-4.2591,-4.2726,0.0,0.0,0.0,0.0,0.0,0.0,0.0,0.0,-3.4248,-3.3219,-3.3068,-3.3068,-3.3068,-3.3068,-3.3068,-3.3068,-3.3068,-3.3068,-3.3068,-3.3068,-3.3068,-3.3068,-3.3068,-3.3068,-3.3068,-3.2516,-3.219,-3.2114,-3.1562,-3.126,-3.121,-3.121,-3.121,-3.121,-3.121,-3.1235,-3.1392,-3.2304,-3.2804,-3.3091,-3.4142,-3.4668,-3.4799,-3.4816,-3.5702,-3.6872,-3.7001,-3.707,-3.7148,-3.7246,-3.7255,-3.7195,-3.7195,-3.6806,-3.6387,-3.6387,-3.5968,-3.5519,-3.5519,-3.5519,-3.5519,-3.5519,-3.5519,-3.5519,0.0,0.0,-3.5519,-3.5519,-3.5519,-3.5519,-3.5519,-3.5519,-3.5519,-3.5519,-3.5519,-3.5519,-3.5519,-3.5519,-3.5519,-3.5519,-3.5519,-3.5519,-3.5519,-3.5519,-3.5519,-3.5519,-3.5519,-3.5519,-3.5519,-3.5519,-3.5519,-3.5519,-3.5519,-3.5519,-3.5519,-3.6228,-3.66,-3.66,-3.8157,-3.8908,-3.8908,-3.9714,-4.0087,-4.0121,-4.0798,-4.1508,-4.2219,-4.2963,-4.3301,-4.3369,-4.4045,-4.4316,-4.4248,-4.3538,-4.3741,-4.4316,0.0,0.0,0.0,0.0,0.0,0.0,0.0,0.0,0.0,-3.3169,-3.3068,-3.3068,-3.3068,-3.3068,-3.3068,-3.3068,-3.3068,-3.3068,-3.3068,-3.3068,-3.3068,-3.3068,-3.3068,-3.3068,-3.3068,-3.2842,-3.2541,-3.2215,-3.1989,-3.1712,-3.1386,-3.1386,-3.1386,-3.1386,-3.1386,-3.1562,-3.1863,-3.2332,-3.3083,-3.4018,-3.4499,-3.5416,-3.6467,-3.6722,-3.749,-3.8501,-3.787,-3.7777,0.0,-3.7973,-3.7734,-3.7404,-3.7404,-3.7225,-3.7015,-3.7015,-3.6567,-3.5998,-3.5609,-3.5519,-3.5519,0.0,-3.5519,-3.5519,-3.5519,-3.5519,-3.5519,-3.5519,-3.5519,-3.5519,-3.5519,-3.5519,-3.5519,0.0,-3.5519,-3.5519,-3.5519,-3.5519,-3.5519,-3.5519,-3.5519,-3.5519,-3.5519,-3.5519,-3.5519,-3.5519,-3.5519,-3.5519,-3.5519,-3.5519,-3.5519,-3.5519,-3.5519,-3.5519,-3.5519,-3.5782,-3.5943,-3.5943,-3.7024,-3.7815,-3.8334,-3.9566,-4.0567,-4.1407,-4.2151,-4.2658,-4.2997,-4.3775,-4.4079,-4.4113,-4.4451,-4.4587,-4.4553,-4.4215,-4.4316,-4.4587,0.0,0.0,0.0,0.0,0.0,0.0,0.0,0.0,0.0,0.0,-3.3068,-3.3068,-3.3068,-3.3068,-3.3068,-3.3068,-3.3068,-3.3068,-3.3068,-3.3068,-3.3068,-3.3068,-3.3068,-3.3068,-3.3068,-3.3068,-3.2867,-3.2466,-3.2466,-3.224,-3.1863,-3.1863,-3.1863,-3.1863,-3.1863,-3.2064,-3.2441,-3.2751,-3.3566,-3.4733,-3.4979,-3.616,-3.7843,-3.7843,-3.8472,-3.9265,-3.8546,-3.8472,-3.8691,-3.8691,-3.8362,-3.7973,-3.7973,-3.7823,-3.7674,-3.7674,-3.7225,-3.6596,-3.5938,-3.5789,0.0,-3.5549,-3.5519,-3.5519,-3.5519,-3.5519,-3.5519,-3.5519,-3.5519,-3.5519,-3.5519,-3.5519,-3.5519,-3.5519,-3.5519,-3.5519,-3.5519,-3.5519,-3.5519,-3.5519,-3.5519,-3.5519,-3.5519,-3.5519,-3.5519,-3.5519,-3.5519,-3.5519,-3.5519,-3.5519,-3.5519,-3.5519,-3.5519,-3.5519,-3.5519,-3.5519,-3.5519,-3.5489,-3.6724,-3.7547,-3.8168,-3.9939,-4.1418,-4.2625,-4.3166,-4.3538,-4.3775,-4.435,-4.4587,-4.4587,-4.4587,-4.4587,-4.4587,-4.4587,-4.4587,-4.4587,0.0,0.0,0.0,0.0,0.0,0.0,0.0,0.0,0.0,0.0,0.0,0.0,0.0,-3.3068,-3.3068,-3.3068,-3.3068,-3.3068,-3.3068,-3.3068,-3.3068,-3.3068,-3.3068,-3.3068,-3.3068,-3.3068,-3.3068,-3.3043,-3.3043,-3.3043,-3.3018,-3.3018,-3.3018,-3.3018,-3.3018,-3.3043,-3.3129,-3.4152,-3.465,-3.4815,-3.5734,-3.6866,-3.7843,-3.7843,-3.8472,-3.9409,-3.9337,-3.9337,-3.9379,-3.9379,-3.9379,-3.9349,-3.9349,-3.8901,-3.8362,-3.8362,-3.7913,-3.7255,-3.6626,-3.6447,-3.6297,-3.5669,-3.5519,-3.5519,-3.5519,-3.5519,-3.5519,-3.5519,-3.5519,-3.5519,-3.5519,-3.5519,-3.5519,-3.5519,-3.5519,-3.5519,-3.5519,-3.5519,-3.5519,-3.5519,-3.5519,-3.5519,0.0,-3.5519,-3.5519,-3.5519,-3.5519,-3.5519,-3.5519,-3.5519,-3.5519,-3.5519,-3.5519,-3.5519,-3.5519,-3.5519,-3.5519,-3.5519,-3.7775,-3.8873,-3.8932,-4.12,-4.2658,-4.3403,-4.3403,-4.3842,-4.4553,-4.4553,-4.4587,-4.4587,-4.4587,-4.4587,-4.4587,-4.4587,-4.4587,-4.4587,0.0,0.0,0.0,0.0,0.0,0.0,0.0,0.0,0.0,0.0,0.0,0.0,0.0,0.0,0.0,0.0,-3.3068,-3.3068,-3.3068,-3.3068,-3.3068,-3.3068,-3.3068,-3.3068,-3.3068,-3.3068,-3.3068,-3.3068,-3.3068,-3.3068,-3.3068,-3.3068,-3.3068,-3.3068,-3.3068,-3.3068,-3.3154,-3.3471,-3.3641,-3.3641,-3.4037,-3.4815,-3.5842,-3.6476,-3.7405,-3.8472,0.0,-3.9409,-3.9409,-3.9409,-3.9409,-3.9409,-3.9409,-3.926,-3.899,-3.8512,-3.8242,-3.7913,-3.7285,-3.7105,-3.7045,-3.6836,-3.6447,-3.6148,-3.6148,-3.5818,-3.5519,-3.5519,-3.5519,-3.5519,-3.5519,-3.5519,-3.5519,-3.5519,-3.5519,-3.5669,-3.6088,-3.6148,-3.6297,-3.6716,-3.6776,0.0,0.0,0.0,0.0,-3.5519,-3.5519,-3.5519,-3.5519,-3.5519,-3.5519,-3.5519,-3.5519,-3.5519,-3.5519,-3.5938,-3.6148,-3.6148,-3.8497,-3.9834,-4.0376,-4.2199,-4.347,-4.4181,-4.4181,-4.435,-4.4587,-4.4587,-4.4587,-4.4587,-4.4587,-4.4587,-4.4587,-4.4587,-4.4587,-4.4587,0.0,0.0,0.0,0.0,0.0,0.0,0.0,0.0,0.0,0.0,0.0,0.0,0.0,0.0,0.0,0.0,0.0,-3.3068,-3.3068,-3.3068,-3.3068,-3.3068,-3.3068,-3.3068,-3.3068,-3.3068,-3.3068,-3.3068,-3.3068,-3.3068,-3.3068,-3.3068,-3.3068,-3.3068,-3.3068,-3.3068,-3.3068,-3.3068,-3.3068,-3.3068,-3.3068,-3.3725,-3.4815,-3.5814,-3.6866,0.0,-3.9017,-3.9409,-3.9409,-3.9409,-3.9409,-3.9409,-3.9409,-3.9409,-3.932,-3.8901,-3.8751,-3.8601,-3.7943,-3.7764,-3.7704,-3.7464,-3.7105,-3.6806,-3.6806,-3.6327,-3.5848,-3.5848,-3.5669,-3.5519,-3.5519,-3.5519,-3.5519,-3.5519,-3.5699,-3.5998,-3.6417,-3.6686,-3.6956,-3.7375,-3.7404,-3.7404,0.0,0.0,0.0,-3.6178,-3.6178,-3.6178,-3.6178,-3.6178,-3.6178,-3.6178,-3.6178,-3.6178,-3.6178,-3.6596,-3.7231,-3.8104,-3.9566,-4.1007,-4.2327,-4.3327,-4.4113,-4.4587,-4.4587,-4.4587,-4.4587,-4.4587,-4.4587,-4.4587,-4.4587,-4.4587,-4.4587,-4.4587,-4.4587,-4.4587,0.0,0.0,0.0,0.0,0.0,0.0,0.0,0.0,0.0,0.0,0.0,0.0,0.0,0.0,0.0,0.0,0.0,0.0,-3.3068,-3.3068,-3.3068,-3.3068,-3.3068,-3.3068,-3.3068,-3.3068,-3.3068,-3.3068,-3.3068,-3.3068,-3.3068,-3.3068,-3.3068,-3.3068,-3.3068,-3.3068,-3.3068,-3.3068,-3.3068,-3.3068,-3.3068,-3.3725,-3.4733,-3.5814,-3.6838,-3.7843,-3.9017,-3.9409,-3.9409,-3.9409,-3.9409,-3.9409,-3.9409,-3.9409,-3.9409,-3.9409,-3.9409,-3.929,-3.8631,-3.8452,-3.8302,-3.7674,-3.7494,-3.7464,-3.7464,-3.6985,-3.6537,-3.6537,-3.6028,-3.5609,0.0,0.0,-3.5549,-3.5549,-3.6088,-3.6507,-3.6537,-3.7075,-3.7464,0.0,0.0,0.0,0.0,0.0,0.0,-3.7524,0.0,-3.7404,-3.7404,-3.7404,-3.7404,-3.7404,-3.7404,-3.7404,-3.7404,-3.7434,-3.8616,-4.0927,-4.0927,-4.2178,-4.4384,-4.4497,-4.4497,-4.453,-4.4587,-4.4587,-4.4587,-4.4587,-4.4587,-4.4587,-4.4587,-4.4587,-4.4587,-4.4587,-4.4587,-4.4587,0.0,0.0,0.0,0.0,0.0,0.0,0.0,0.0,0.0,0.0,0.0,0.0,0.0,0.0,0.0,0.0,0.0,0.0,-3.3068,-3.3068,-3.3068,-3.3068,-3.3068,-3.3068,-3.3068,-3.3068,-3.3068,-3.3068,-3.3068,-3.3068,-3.3068,-3.3068,-3.3068,-3.3068,-3.3068,-3.3068,-3.3068,-3.3068,-3.3068,-3.3068,-3.3068,-3.324,-3.37,-3.5494,-3.6369,-3.6838,-3.8694,-3.9409,-3.9409,-3.9409,0.0,0.0,0.0,-3.9409,-3.9409,-3.9409,-3.9409,-3.9379,-3.92,-3.917,-3.911,-3.896,-3.8512,-3.8153,-3.8153,-3.7644,-3.7165,-3.7165,-3.7045,-3.6926,0.0,0.0,0.0,-3.6237,-3.6387,0.0,-3.7105,-3.7734,0.0,-3.8841,0.0,-3.8901,-3.8901,-3.8901,0.0,0.0,-3.7973,-3.7404,-3.7404,-3.7404,-3.7404,-3.7404,-3.7404,-3.7404,-3.7404,-3.7913,-3.8662,-3.9817,-4.0442,-4.1107,-4.1723,-4.3047,-4.3621,-4.368,-4.4327,-4.4587,-4.4587,-4.4587,-4.4587,-4.4587,-4.4587,-4.4587,-4.4587,-4.4587,-4.4587,-4.4587,0.0,0.0,0.0,0.0,0.0,0.0,0.0,0.0,0.0,0.0,0.0,0.0,0.0,0.0,0.0,0.0,0.0,0.0,0.0,-3.3068,-3.3068,-3.3068,-3.3068,-3.3068,-3.3068,-3.3068,-3.3068,-3.3068,-3.3068,-3.3068,-3.3068,-3.3068,-3.3068,-3.3068,-3.3068,-3.3068,-3.3068,-3.3068,-3.3068,0.0,0.0,-3.3068,-3.3326,-3.4897,-3.5814,-3.6448,-3.8144,-3.9017,-3.9337,0.0,0.0,-3.9409,-3.9409,-3.9409,-3.9409,-3.9409,0.0,-3.9409,-3.9409,-3.9409,-3.9409,-3.9409,-3.914,-3.8841,-3.8841,-3.8332,-3.7853,-3.7853,-3.7614,0.0,-3.7404,0.0,0.0,0.0,0.0,0.0,-3.7793,-3.8422,-3.899,0.0,-3.9409,0.0,-3.9409,-3.9409,-3.9409,0.0,-3.8721,-3.8302,-3.8302,-3.8302,-3.8302,-3.8302,-3.8302,-3.8302,-3.8302,-3.8661,-3.9234,-3.999,-4.0516,-4.0894,-4.1264,-4.2269,-4.2925,-4.3323,0.0,-4.427,-4.4587,-4.4587,-4.4587,-4.4587,-4.4587,-4.4587,-4.4587,-4.4587,-4.4587,-4.4587,0.0,0.0,0.0,0.0,0.0,0.0,0.0,0.0,0.0,0.0,-3.3068,0.0,0.0,0.0,0.0,0.0,0.0,0.0,0.0,0.0,-3.3068,-3.3068,-3.3068,-3.3068,-3.3068,-3.3068,-3.3068,-3.3068,-3.3068,-3.3068,-3.3068,-3.3068,-3.3068,-3.3068,-3.3068,-3.3068,-3.3068,-3.3068,-3.3068,-3.3068,-3.3068,-3.3068,-3.324,0.0,-3.5197,-3.6132,-3.7357,-3.8323,0.0,0.0,-3.8546,-3.9337,-3.9265,-3.9265,-3.9409,-3.9409,-3.9409,-3.9409,-3.9409,-3.9409,-3.9409,-3.9409,-3.9409,-3.9409,-3.9409,-3.896,-3.8512,-3.8512,0.0,-3.7674,-3.7674,-3.7584,-3.7524,-3.7524,0.0,-3.8392,-3.8392,-3.899,-3.9409,-3.9409,-3.9409,-3.9409,-3.9409,-3.9409,-3.9409,-3.9409,-3.9409,-3.9409,-3.9409,-3.9409,-3.9409,-3.9409,-3.9409,-3.9409,-3.9409,-3.9409,-3.9809,-4.0554,-4.0554,-4.0961,-4.169,-4.1788,-4.2332,-4.3108,-4.3229,0.0,-4.4587,-4.4587,-4.4587,-4.4587,-4.4587,-4.4587,-4.4587,-4.4587,-4.4587,-4.4587,0.0,0.0,0.0,0.0,0.0,0.0,0.0,0.0,0.0,0.0,-3.3068,-3.3068,0.0,0.0,0.0,0.0,0.0,0.0,0.0,0.0,0.0,-3.3068,-3.3068,-3.3068,-3.3068,-3.3068,-3.3068,-3.3068,-3.3068,-3.3068,-3.3068,-3.3068,-3.3068,-3.3068,-3.3068,-3.3068,-3.3068,-3.3068,-3.3068,-3.3068,-3.3068,-3.3068,-3.324,-3.4262,0.0,0.0,-3.7127,0.0,0.0,0.0,-3.8546,-3.9265,-3.8397,-3.8694,-3.9409,-3.9409,-3.9409,-3.9409,-3.9409,-3.9409,-3.9409,-3.9409,-3.9409,-3.9409,-3.9409,-3.932,0.0,0.0,-3.914,-3.908,-3.908,-3.8601,-3.8212,-3.8212,0.0,0.0,0.0,0.0,-3.9409,0.0,0.0,0.0,0.0,0.0,0.0,0.0,0.0,-3.9409,-3.9409,-3.9409,-3.9409,-3.9409,-3.9409,-3.9409,-3.9409,-3.9409,-3.9481,-3.9595,-3.9595,-3.9666,-3.9879,-4.0554,-4.1396,-4.2269,-4.2986,0.0,-4.4587,-4.4587,-4.4587,-4.4587,-4.4587,-4.4587,-4.4587,-4.4587,-4.4587,-4.4587,0.0,0.0,0.0,0.0,0.0,0.0,0.0,-3.3068,-3.3068,-3.3068,-3.3068,-3.3068,-3.3068,-3.3068,-3.3068,0.0,0.0,0.0,0.0,0.0,0.0,0.0,-3.3068,-3.3068,-3.3068,-3.3068,-3.3068,-3.3068,0.0,-3.3068,-3.3068,-3.3068,-3.3068,-3.3068,-3.3068,-3.3068,-3.3068,-3.3068,-3.3068,-3.3068,-3.3068,-3.3068,-3.3154,-3.3641,0.0,0.0,0.0,0.0,0.0,0.0,-3.6866,-3.7738,-3.7814,-3.8546,-3.9409,-3.9409,-3.9409,-3.9409,-3.9409,-3.9409,-3.9409,-3.9409,-3.9409,-3.9409,-3.9409,0.0,0.0,0.0,-3.9409,-3.9409,-3.9409,0.0,0.0,0.0,0.0,0.0,0.0,0.0,0.0,0.0,0.0,0.0,0.0,0.0,0.0,0.0,0.0,-3.9409,-3.9409,-3.9409,-3.9409,-3.9409,-3.9409,-3.9409,-3.9409,-3.9409,-3.9409,-3.9409,-3.9409,-3.9409,-3.9409,-3.9879,-4.0516,-4.133,-4.2269,0.0,-4.3948,-4.4384,-4.4587,-4.4587,-4.4587,-4.4587,-4.4587,-4.4587,-4.4587,-4.4587,0.0,0.0,0.0,0.0,0.0,0.0,0.0,-3.3068,-3.3068,-3.3068,-3.3068,-3.3068,-3.3068,-3.3068,-3.3068,0.0,0.0,0.0,0.0,0.0,0.0,0.0,0.0,0.0,0.0,0.0,0.0,0.0,-3.3068,0.0,0.0,0.0,0.0,0.0,-3.3068,-3.3068,-3.3068,-3.3068,-3.3068,0.0,0.0,-3.3068,0.0,0.0,0.0,0.0,0.0,0.0,0.0,0.0,-3.5197,-3.6053,-3.6866,-3.7843,-3.8767,-3.9265,-3.9265,-3.909,-3.9337,-3.9409,-3.9409,-3.9409,-3.9409,-3.9409,-3.9409,-3.9409,0.0,0.0,-3.9409,-3.9409,-3.9409,0.0,0.0,0.0,0.0,0.0,0.0,0.0,0.0,0.0,0.0,0.0,0.0,0.0,0.0,0.0,0.0,0.0,-3.9409,-3.9409,-3.9409,-3.9409,-3.9409,-3.9409,-3.9409,-3.9409,-3.9409,-3.9409,-3.9409,-3.9409,-3.9409,-3.9409,-3.9849,-4.0758,-4.1396,0.0,0.0,-4.4064,-4.444,-4.4587,-4.4587,-4.4587,-4.4587,-4.4587,-4.4587,-4.4587,0.0,0.0,0.0,0.0,0.0,0.0,0.0,-3.3068,-3.3068,-3.3068,-3.3068,-3.3068,-3.3068,-3.3068,-3.3068,0.0,0.0,0.0,0.0,0.0,0.0,0.0,0.0,0.0,0.0,0.0,0.0,0.0,0.0,0.0,0.0,0.0,0.0,0.0,0.0,0.0,-3.3068,-3.3068,0.0,0.0,0.0,0.0,0.0,0.0,0.0,0.0,0.0,0.0,0.0,0.0,0.0,-3.4815,-3.4979,-3.5682,-3.6838,-3.8841,0.0,0.0,-3.9119,-3.9409,-3.9409,-3.9409,-3.9409,-3.9409,-3.9409,0.0,-3.9409,-3.9409,-3.9409,-3.9409,-3.9409,-3.9409,0.0,0.0,0.0,-3.9409,0.0,0.0,0.0,0.0,0.0,0.0,0.0,0.0,0.0,0.0,0.0,0.0,-3.9409,-3.9409,-3.9409,-3.9409,-3.9409,-3.9409,-3.9409,-3.9409,-3.9409,-3.9409,-3.9409,-3.9409,-3.9409,-3.9409,-3.9849,-4.069,-4.0826,0.0,0.0,-4.3383,-4.3889,-4.4587,-4.4587,-4.4587,-4.4587,-4.4587,-4.4587,-4.4587,0.0,0.0,0.0,0.0,0.0,0.0,-3.3696,-3.3294,-3.3068,-3.3068,-3.3068,-3.3068,-3.3068,-3.3068,-3.3068,-3.3068,0.0,0.0,0.0,0.0,0.0,0.0,0.0,0.0,0.0,0.0,-3.3068,-3.3068,0.0,0.0,0.0,0.0,0.0,0.0,0.0,0.0,0.0,-3.3068,0.0,0.0,0.0,0.0,0.0,0.0,0.0,0.0,0.0,0.0,0.0,0.0,0.0,0.0,-3.4511,-3.4485,0.0,0.0,-3.7175,-3.7098,-3.8144,-3.8472,-3.862,-3.9265,-3.9409,-3.9409,-3.9409,0.0,-3.9409,-3.9409,-3.9409,-3.9409,-3.9409,-3.9409,-3.9409,-3.9409,-3.9409,0.0,0.0,0.0,0.0,0.0,0.0,0.0,0.0,0.0,0.0,0.0,0.0,0.0,-3.9409,-3.9409,-3.9409,-3.9409,-3.9409,-3.9409,-3.9409,-3.9409,-3.9409,-3.9409,-3.9409,-3.9409,-3.9409,-3.9409,-3.9595,-3.992,-4.0485,0.0,0.0,-4.2863,-4.3502,-4.3889,-4.4384,-4.4587,-4.4587,-4.4587,-4.4587,-4.4587,0.0,0.0,0.0,0.0,0.0,-3.4726,-3.3997,-3.3571,-3.3269,-3.3093,-3.3068,-3.3068,-3.3068,-3.3068,-3.3068,-3.3068,-3.3068,0.0,0.0,0.0,0.0,0.0,0.0,0.0,0.0,0.0,-3.3068,-3.3068,-3.3068,-3.3068,0.0,0.0,0.0,0.0,0.0,0.0,0.0,0.0,0.0,0.0,0.0,0.0,0.0,0.0,0.0,0.0,0.0,0.0,0.0,0.0,0.0,0.0,0.0,0.0,0.0,0.0,-3.5974,-3.5974,-3.7021,-3.7329,-3.751,-3.8294,-3.8694,-3.8943,0.0,0.0,-3.9409,-3.9409,-3.9409,-3.9409,-3.9409,-3.9409,-3.9409,-3.9409,-3.9409,-3.9409,-3.9409,0.0,0.0,0.0,0.0,0.0,0.0,0.0,0.0,0.0,0.0,0.0,-3.9409,-3.9409,-3.9409,-3.9409,-3.9409,-3.9409,-3.9409,-3.9409,-3.9409,-3.9409,-3.9409,-3.9409,-3.9409,-3.9409,-3.9409,-3.9409,-4.006,0.0,0.0,-4.2332,-4.3047,-4.3383,-4.427,-4.4587,-4.4587,-4.4587,-4.4587,-4.4587,0.0,0.0,0.0,0.0,0.0,0.0,-3.4073,-3.3897,-3.3696,-3.3144,-3.3068,-3.3068,-3.3068,-3.3068,-3.3068,-3.3068,-3.3068,0.0,0.0,0.0,0.0,0.0,0.0,0.0,0.0,0.0,-3.3068,-3.3068,-3.3068,-3.3068,-3.3068,-3.3068,-3.3068,0.0,0.0,0.0,0.0,0.0,0.0,0.0,0.0,0.0,0.0,0.0,0.0,0.0,0.0,0.0,0.0,0.0,0.0,0.0,0.0,-3.3068,-3.3471,-3.5574,-3.5521,-3.4979,-3.5974,-3.6212,-3.6212,-3.6212,-3.7021,-3.7843,0.0,0.0,-3.9409,-3.9409,-3.9409,-3.9409,-3.9409,-3.9409,-3.9409,-3.9409,-3.9409,-3.9409,-3.9409,0.0,0.0,0.0,0.0,0.0,0.0,0.0,0.0,0.0,0.0,0.0,-3.9409,-3.9409,-3.9409,-3.9409,-3.9409,-3.9409,-3.9409,-3.9409,-3.9409,-3.9409,-3.9409,-3.9409,-3.9409,-3.9409,-3.9409,-3.9409,0.0,0.0,0.0,-4.1658,-4.252,-4.3383,-4.427,-4.4587,-4.4587,-4.4587,-4.4587,-4.4587,0.0,0.0,0.0,0.0,0.0,0.0,0.0,-3.4374,-3.3847,-3.3671,-3.3319,-3.2785,-3.1865,-3.2612,-3.2785,-3.1865,-3.2612,0.0,0.0,0.0,0.0,0.0,0.0,0.0,0.0,-3.3068,-3.3068,-3.3068,-3.3068,-3.3068,-3.3068,-3.3068,-3.3068,-3.3068,-3.3068,0.0,0.0,0.0,0.0,0.0,0.0,0.0,0.0,0.0,0.0,0.0,0.0,0.0,0.0,0.0,0.0,0.0,0.0,0.0,0.0,-3.3869,-3.3869,-3.3869,-3.4897,-3.5197,-3.5521,-3.6944,-3.751,-3.7994,-3.8694,0.0,-3.9409,-3.9409,-3.9409,-3.9409,-3.9409,-3.9409,-3.9409,-3.9409,-3.9409,-3.9409,0.0,0.0,0.0,0.0,0.0,0.0,0.0,0.0,0.0,0.0,0.0,0.0,-3.9409,-3.9409,-3.9409,-3.9409,-3.9409,-3.9409,-3.9409,-3.9409,-3.9409,-3.9409,-3.9409,-3.9409,-3.9409,-3.9409,-3.9409,0.0,0.0,0.0,0.0,-4.0758,-4.1264,-4.1658,-4.3169,-4.368,-4.3798,-4.4384,-4.4587,-4.4587,0.0,0.0,0.0,0.0,0.0,0.0,0.0,-3.4587,-3.417,-3.3301,-3.2956,-3.2196,-3.0687,-3.1247,-3.1424,-3.0574,-3.1689,0.0,0.0,0.0,0.0,0.0,0.0,0.0,-3.3068,-3.3068,-3.3068,-3.3068,-3.3068,-3.3068,-3.3068,-3.3068,-3.3068,-3.3068,-3.3068,-3.3068,0.0,0.0,0.0,0.0,0.0,0.0,-3.3696,0.0,0.0,0.0,0.0,0.0,0.0,0.0,0.0,0.0,0.0,0.0,0.0,0.0,-3.3068,-3.324,-3.3869,-3.4121,-3.4428,-3.5709,-3.6632,-3.7329,0.0,0.0,-3.9409,-3.9409,-3.9409,-3.9409,-3.9409,-3.9409,-3.9409,-3.9409,-3.9409,-3.9409,0.0,0.0,0.0,0.0,0.0,0.0,0.0,0.0,0.0,0.0,0.0,0.0,-3.9409,-3.9409,-3.9409,-3.9409,-3.9409,-3.9409,-3.9409,-3.9409,-3.9409,-3.9409,-3.9409,-3.9559,-3.9798,-3.9798,-3.9918,0.0,0.0,0.0,0.0,-4.0708,-4.0938,-4.0894,-4.2645,-4.3323,-4.3476,-4.4572,-4.4993,-4.5026,0.0,0.0,0.0,0.0,0.0,0.0,0.0,-3.4572,-3.4601,-3.2452,-3.217,-3.1386,-2.9508,-2.9326,-2.9396,-2.9326,-3.0418,0.0,0.0,0.0,0.0,0.0,0.0,0.0,-3.3068,-3.3068,-3.3068,-3.3068,-3.3068,-3.3068,-3.3068,-3.3068,-3.3068,-3.3068,-3.3119,-3.3169,0.0,0.0,0.0,0.0,-3.4525,-3.4726,0.0,0.0,0.0,0.0,0.0,0.0,0.0,0.0,0.0,0.0,0.0,0.0,0.0,0.0,0.0,0.0,0.0,-3.3068,-3.3154,-3.3154,-3.465,-3.6132,-3.6212,0.0,0.0,0.0,0.0,-3.9337,-3.9409,-3.9409,-3.9409,-3.9409,-3.9409,0.0,0.0,0.0,0.0,0.0,0.0,0.0,0.0,0.0,0.0,0.0,0.0,0.0,-3.9409,-3.9469,-3.9499,-3.9499,-3.9529,-3.9529,-3.9409,-3.9409,-3.9439,-3.9499,-3.9499,-3.9828,-4.0457,-4.0457,-4.0816,0.0,0.0,0.0,0.0,-4.1342,-4.1264,-4.082,-4.2587,-4.3272,-4.3553,-4.5119,-4.5713,-4.5872,0.0,0.0,0.0,0.0,0.0,0.0,0.0,0.0,0.0,0.0,-3.2531,-3.1136,-2.8774,-2.8992,-2.905,0.0,0.0,0.0,0.0,0.0,0.0,0.0,0.0,0.0,-3.3068,-3.3068,-3.3068,-3.3068,-3.3068,-3.3068,-3.3068,-3.3068,-3.3068,-3.3093,-3.352,-3.3947,0.0,0.0,0.0,0.0,-3.4675,-3.4726,0.0,0.0,0.0,0.0,-3.4726,-3.465,0.0,0.0,0.0,0.0,0.0,0.0,0.0,0.0,-3.3068,-3.3068,-3.3068,0.0,-3.3326,-3.4121,-3.465,-3.5278,0.0,0.0,0.0,0.0,0.0,0.0,0.0,0.0,-3.9409,0.0,0.0,0.0,0.0,0.0,0.0,0.0,0.0,0.0,0.0,0.0,0.0,0.0,0.0,-3.9409,-3.9409,-3.9888,-4.0157,-4.0157,-4.0666,-4.0427,-3.9439,-3.9409,-3.9679,-4.0157,-4.0157,-4.0516,-4.1145,-4.1145,-4.1235,0.0,0.0,0.0,-4.0427,-4.1159,-4.1096,-4.0625,-4.2194,-4.3278,-4.4042,-4.5072,-4.5912,-4.6549,0.0,0.0,0.0,0.0,0.0,0.0,0.0,0.0,0.0,0.0,-3.1337,-3.0163,-2.7938,-2.7876,-2.7798,0.0,0.0,0.0,0.0,0.0,0.0,0.0,0.0,-3.1689,-3.2239,-3.2239,-3.2525,-3.3068,-3.3068,-3.3068,-3.3093,-3.3345,-3.3445,-3.347,-3.4022,-3.4449,0.0,0.0,0.0,-3.5127,-3.5378,0.0,0.0,0.0,0.0,0.0,-3.5479,-3.5303,0.0,-3.4751,-3.4474,-3.4173,0.0,0.0,0.0,0.0,-3.3068,-3.3068,-3.3068,-3.3068,-3.324,-3.3784,-3.4345,-3.4815,-3.5359,0.0,0.0,0.0,0.0,0.0,0.0,0.0,0.0,0.0,0.0,0.0,0.0,0.0,0.0,0.0,0.0,0.0,0.0,0.0,0.0,0.0,0.0,-4.0307,-4.0307,-4.0666,-4.0846,-4.0846,-4.1205,-4.1025,-4.0337,-4.0307,-4.0487,-4.0846,-4.0846,-4.1205,-4.1833,-4.1833,-4.1983,0.0,0.0,0.0,-4.1324,-4.1683,-4.1444,-4.095,-4.2211,-4.302,-4.368,-4.5277,-4.6212,-4.6748,0.0,0.0,0.0,0.0,0.0,0.0,0.0,0.0,0.0,0.0,0.0,0.0,0.0,0.0,0.0,0.0,0.0,0.0,0.0,0.0,0.0,0.0,-2.868,-2.9852,-3.0932,-3.1134,-3.1689,-3.281,-3.2982,-3.3119,-3.3219,-3.3671,-3.3997,-3.4173,-3.4445,-3.4694,-3.5002,-3.5479,-3.568,-3.5705,-3.6182,0.0,0.0,0.0,0.0,0.0,0.0,0.0,0.0,-3.5579,-3.5228,-3.4726,-3.4098,0.0,0.0,0.0,0.0,0.0,-3.3068,-3.3068,-3.3068,-3.3068,-3.3784,-3.4428,-3.4428,0.0,0.0,0.0,0.0,0.0,0.0,0.0,0.0,0.0,0.0,0.0,0.0,0.0,0.0,0.0,0.0,0.0,0.0,0.0,0.0,0.0,0.0,-4.1384,-4.1384,-4.1474,-4.1534,-4.1534,-4.1624,-4.1683,-4.1683,-4.1474,-4.1444,-4.1534,-4.1534,-4.1863,-4.2521,-4.2521,-4.2821,-4.3329,0.0,0.0,-4.2372,-4.2462,-4.2132,-4.161,-4.2493,-4.2859,-4.3283,-4.5594,-4.6553,-4.6911,0.0,0.0,0.0,0.0,0.0,0.0,0.0,0.0,0.0,0.0,0.0,0.0,0.0,0.0,0.0,0.0,0.0,0.0,0.0,0.0,0.0,-2.6014,-2.8215,-2.951,-2.967,-3.0687,-3.1311,-3.1488,-3.2612,-3.3319,-3.3771,-3.3847,-3.4399,-3.5211,-3.4096,-3.4576,-3.6107,-3.6207,-3.6232,-3.6232,-3.6332,0.0,0.0,0.0,0.0,0.0,0.0,0.0,0.0,-3.5705,-3.5479,-3.5228,-3.4223,0.0,0.0,0.0,0.0,0.0,-3.3068,-3.3068,-3.3068,-3.3068,-3.324,-3.3326,-3.3326,0.0,0.0,0.0,0.0,0.0,0.0,0.0,0.0,0.0,0.0,0.0,0.0,0.0,0.0,0.0,0.0,0.0,0.0,0.0,0.0,0.0,0.0,-4.1384,-4.1384,-4.1923,-4.2222,-4.2222,-4.2731,-4.303,-4.303,-4.1923,-4.1654,-4.2222,-4.2222,-4.2551,-4.318,-4.318,-4.324,-4.3329,0.0,-4.297,-4.2402,-4.294,-4.2791,-4.2329,-4.2977,-4.3777,-4.4651,-4.5769,-4.6738,-4.7572,0.0,0.0,0.0,0.0,0.0,0.0,0.0,0.0,0.0,0.0,0.0,0.0,0.0,0.0,0.0,0.0,0.0,0.0,0.0,0.0,-2.6094,-2.6094,-2.7207,-2.8021,-2.8423,-2.9579,-3.0738,-3.1651,-3.297,-3.3419,-3.3217,-3.2814,-3.3457,-3.4917,-3.4222,-3.4943,-3.6358,-3.6358,-3.6358,-3.6358,0.0,0.0,0.0,0.0,0.0,0.0,0.0,0.0,0.0,0.0,-3.5981,-3.5855,-3.5052,0.0,0.0,0.0,0.0,0.0,-3.3068,-3.3068,-3.3068,-3.3068,-3.3068,-3.3068,-3.3068,0.0,0.0,0.0,0.0,0.0,0.0,0.0,0.0,0.0,0.0,0.0,0.0,0.0,0.0,0.0,0.0,0.0,0.0,0.0,0.0,0.0,0.0,0.0,-4.2432,-4.2731,-4.288,-4.288,-4.318,-4.3329,-4.3329,-4.2731,-4.2581,-4.288,-4.288,-4.303,-4.3329,-4.3329,-4.3329,-4.3329,0.0,-4.315,-4.291,-4.321,-4.315,-4.291,-4.321,-4.3536,-4.4128,-4.5674,-4.6799,-4.7737,0.0,0.0,0.0,0.0,0.0,0.0,0.0,0.0,0.0,0.0,0.0,0.0,0.0,0.0,0.0,0.0,0.0,0.0,0.0,-2.6719,-2.6543,-2.6543,-2.6543,-2.6804,-2.729,-2.8589,-2.9933,-3.1368,-3.2587,-3.2943,-3.2394,-3.1645,-3.2194,-3.3871,-3.3575,-3.4166,-3.5451,-3.5763,-3.5953,-3.5953,0.0,0.0,0.0,0.0,0.0,0.0,0.0,0.0,0.0,0.0,0.0,0.0,0.0,0.0,0.0,-3.4098,-3.3596,-3.3244,-3.3119,-3.3068,-3.3068,-3.3068,0.0,-3.3068,-3.3068,0.0,0.0,0.0,0.0,0.0,0.0,0.0,0.0,0.0,0.0,0.0,0.0,0.0,0.0,0.0,0.0,0.0,0.0,0.0,0.0,0.0,0.0,0.0,-4.325,-4.3061,-4.2981,-4.325,-4.3329,-4.3329,-4.3329,-4.3329,-4.3329,-4.3329,-4.3329,-4.3329,-4.3329,-4.3329,-4.3329,-4.3329,-4.3329,-4.3329,-4.3329,-4.3329,-4.3329,-4.3329,-4.3329,-4.3409,-4.3849,-4.553,-4.6799,-4.7737,0.0,0.0,0.0,0.0,0.0,0.0,0.0,0.0,0.0,0.0,0.0,0.0,0.0,0.0,0.0,0.0,0.0,0.0,0.0,-2.6992,-2.6973,-2.6973,-2.6973,-2.6777,-2.6447,-2.8058,-2.8936,-2.9077,-3.0325,-3.1173,-3.1547,-3.0751,-3.109,-3.2431,-3.1133,-3.1316,-3.2632,-3.397,-3.4581,-3.4678,-3.5858,0.0,0.0,0.0,0.0,0.0,0.0,0.0,0.0,0.0,0.0,0.0,0.0,0.0,-3.5278,-3.4198,-3.3872,-3.3721,-3.3219,-3.3068,-3.3068,-3.3068,-3.3068,0.0,-3.3068,-3.3068,0.0,0.0,0.0,0.0,0.0,0.0,0.0,0.0,0.0,0.0,0.0,0.0,0.0,0.0,0.0,0.0,0.0,0.0,0.0,0.0,0.0,0.0,-4.317,-4.2275,-4.2193,-4.325,-4.3329,-4.3329,-4.3329,-4.3329,-4.3329,-4.3329,-4.3329,-4.3329,-4.3329,-4.3329,-4.3329,-4.3329,-4.3329,-4.3329,-4.3329,-4.3329,-4.3329,-4.3329,-4.3329,-4.3849,-4.4812,-4.585,-4.6799,-4.7737,0.0,0.0,0.0,0.0,0.0,0.0,0.0,0.0,0.0,0.0,0.0,0.0,0.0,0.0,0.0,0.0,0.0,0.0,0.0,-2.7559,-2.7422,-2.7422,-2.7422,-2.7344,-2.7187,-2.8227,-2.8969,-2.9384,-3.0061,-3.0579,-3.0772,-2.9641,-2.9807,-3.103,-3.0514,-3.103,-3.2431,-3.3773,-3.4385,-3.4483,-3.4969,-3.5667,0.0,0.0,0.0,0.0,0.0,0.0,0.0,0.0,-3.6358,-3.6332,-3.6107,-3.5805,-3.5403,-3.4625,-3.4173,-3.3771,-3.3219,-3.3068,-3.3068,-3.3068,0.0,0.0,0.0,0.0,0.0,0.0,0.0,0.0,0.0,0.0,0.0,0.0,0.0,0.0,0.0,0.0,0.0,0.0,0.0,0.0,0.0,0.0,0.0,0.0,0.0,0.0,-4.1113,-4.0746,-4.1085,-4.2193,-4.2193,-4.2548,-4.325,-4.3329,-4.3329,-4.3329,-4.3329,-4.3329,-4.3329,-4.3329,-4.3329,-4.3329,-4.3329,-4.3329,-4.3329,-4.3329,-4.3329,-4.3329,-4.3329,-4.3566,-4.4004,-4.5005,-4.5921,-4.6867,0.0,0.0,0.0,0.0,0.0,0.0,0.0,0.0,0.0,0.0,0.0,0.0,0.0,0.0,0.0,0.0,0.0,0.0,-2.8301,-2.8027,-2.7871,-2.7871,-2.7871,-2.7871,-2.7871,-2.8347,-2.884,-2.9271,-2.9558,-2.9702,-2.9618,-2.8688,-2.8794,-2.9702,-2.9702,-3.0224,-3.1133,-3.2555,-3.3055,-3.3155,-3.4068,-3.4678,0.0,0.0,0.0,0.0,0.0,0.0,0.0,0.0,-3.6048,-3.6358,-3.6358,-3.5981,-3.5336,-3.4876,-3.4324,-3.3771,-3.3219,-3.3068,-3.3068,0.0,0.0,0.0,0.0,0.0,0.0,0.0,0.0,0.0,0.0,0.0,0.0,0.0,0.0,0.0,0.0,0.0,0.0,0.0,0.0,0.0,0.0,0.0,0.0,0.0,0.0,0.0,0.0,-3.9536,-4.0059,-4.1587,-4.1587,-4.2111,-4.325,-4.3329,-4.3329,-4.3329,-4.3329,-4.3329,-4.3329,-4.3329,-4.3329,-4.3329,-4.3329,-4.3329,-4.3329,-4.3329,-4.3329,-4.3329,-4.3329,-4.3329,-4.3409,-4.4434,-4.5227,-4.5921,0.0,0.0,0.0,0.0,0.0,0.0,0.0,0.0,0.0,0.0,0.0,0.0,0.0,0.0,0.0,0.0,0.0,0.0,-2.8301,-2.8301,-2.8301,-2.8301,-2.8301,-2.8301,-2.8301,-2.8301,-2.8301,-2.8301,-2.8301,-2.8301,-2.8301,-2.8301,-2.8301,-2.8301,-2.8301,-2.8301,-2.8388,-2.9702,-3.0307,-3.0514,-3.3254,-3.3552,-3.2431,0.0,0.0,0.0,0.0,0.0,0.0,0.0,-3.5259,-3.6358,-3.6358,-3.5981,-3.5336,-3.4876,-3.4324,-3.3771,-3.3219,-3.3068,0.0,0.0,0.0,0.0,0.0,0.0,0.0,0.0,0.0,0.0,0.0,0.0,0.0,0.0,0.0,0.0,0.0,0.0,0.0,0.0,0.0,0.0,0.0,0.0,0.0,0.0,0.0,0.0,0.0,-3.8738,-3.9156,-4.1504,-4.1587,-4.2111,-4.325,-4.3329,-4.3329,-4.3329,-4.3329,-4.3329,-4.3329,-4.3329,-4.3329,-4.3329,-4.3329,-4.3329,-4.3329,-4.3329,-4.3329,-4.3329,-4.3329,-4.3329,-4.3409,-4.4434,-4.4812,-4.5079,0.0,0.0,0.0,0.0,0.0,0.0,0.0,0.0,0.0,0.0,0.0,0.0,0.0,0.0,0.0,0.0,0.0,0.0,-2.8301,-2.8301,-2.8301,-2.8301,-2.8301,-2.8301,-2.8301,-2.8301,-2.8301,-2.8301,-2.8301,-2.8301,-2.8301,-2.8301,-2.8301,-2.8301,-2.8301,-2.8301,-2.8388,-2.9702,-3.0307,-3.0411,-3.1235,-3.1825,-3.223,0.0,0.0,0.0,0.0,0.0,0.0,0.0,0.0,0.0,-3.3231,-3.36,-3.3883,-3.3083,-3.3375,-3.3771,-3.3219,0.0,0.0,0.0,0.0,0.0,0.0,0.0,0.0,0.0,0.0,0.0,0.0,0.0,0.0,0.0,0.0,0.0,0.0,0.0,0.0,0.0,0.0,0.0,0.0,0.0,0.0,0.0,0.0,0.0,0.0,-3.7057,-3.7586,-3.9067,-3.9529,-4.0462,-4.2111,-4.2456,-4.288,-4.3329,-4.3329,-4.3329,-4.3329,-4.3329,-4.3329,-4.3329,-4.3329,-4.3329,-4.3329,-4.3329,-4.3329,-4.3329,-4.3329,-4.3329,-4.3329,-4.3615,-4.4205,-4.4887,0.0,0.0,0.0,0.0,0.0,0.0,0.0,0.0,0.0,0.0,-2.8301,-2.8301,0.0,0.0,0.0,0.0,0.0,0.0,-2.8301,-2.8301,-2.8301,-2.8301,-2.8301,-2.8301,-2.8301,-2.8301,-2.8301,-2.8301,-2.8301,-2.8301,-2.8301,-2.8301,-2.8301,-2.8301,-2.8301,-2.8301,-2.8388,-2.9217,-2.9513,-2.9513,-3.012,-3.0514,-3.0721,0.0,0.0,0.0,0.0,0.0,0.0,0.0,0.0,0.0,-3.151,-3.2152,-3.2746,-3.1646,-3.243,-3.3408,-3.2599,0.0,0.0,0.0,0.0,0.0,0.0,0.0,0.0,0.0,0.0,0.0,0.0,0.0,0.0,0.0,0.0,0.0,0.0,0.0,0.0,0.0,0.0,0.0,0.0,0.0,0.0,0.0,0.0,0.0,0.0,-3.6031,-3.6463,-3.7421,-3.7779,-3.906,-4.1295,-4.1594,-4.2248,-4.3329,-4.3329,-4.3329,-4.3329,-4.3329,-4.3329,-4.3329,-4.3329,-4.3329,-4.3329,-4.3329,-4.3329,-4.3329,-4.3329,-4.3329,-4.3329,-4.3329,-4.3693,-4.4282,0.0,0.0,-2.8301,-2.8301,0.0,0.0,0.0,0.0,0.0,0.0,-2.8301,-2.8301,0.0,0.0,0.0,0.0,0.0,0.0,0.0,-2.8301,-2.8301,-2.8301,-2.8301,-2.8301,-2.8301,-2.8301,-2.8301,-2.8301,-2.8301,-2.8301,-2.8301,-2.8301,-2.8301,-2.8301,-2.8301,-2.8301,-2.8301,-2.8301,-2.8301,-2.8388,-2.9577,-2.9347,-2.8329,-2.9495,0.0,0.0,0.0,0.0,0.0,0.0,0.0,0.0,-3.0637,-3.1084,-3.1551,-3.0278,-3.1333,-3.2525,0.0,0.0,0.0,0.0,0.0,0.0,0.0,0.0,0.0,0.0,0.0,0.0,0.0,0.0,0.0,0.0,0.0,0.0,0.0,0.0,0.0,0.0,0.0,0.0,0.0,0.0,0.0,0.0,0.0,0.0,0.0,-3.5479,-3.5749,-3.6332,-3.6426,-3.7694,-4.0474,-4.0608,-4.1522,-4.317,-4.325,-4.3329,-4.3329,-4.3329,-4.3329,-4.3329,-4.3329,-4.3329,-4.3329,-4.3329,-4.3329,-4.3329,-4.3329,-4.3329,-4.3329,-4.3329,-4.3329,-4.3409,0.0,0.0,-2.8301,-2.8301,0.0,0.0,0.0,0.0,0.0,0.0,0.0,0.0,0.0,0.0,0.0,0.0,0.0,0.0,0.0,-2.8301,-2.8301,-2.8301,-2.8301,-2.8301,-2.8301,-2.8301,-2.8301,-2.8301,-2.8301,-2.8301,-2.8301,-2.8301,-2.8301,-2.8301,-2.8301,-2.8301,-2.8301,-2.8301,-2.8301,-2.8262,-2.8226,-2.8107,-2.7859,-2.7712,-2.7535,0.0,0.0,0.0,0.0,0.0,0.0,0.0,-2.7481,-2.8161,-2.8934,-2.8305,-2.9139,-3.0147,0.0,0.0,0.0,0.0,0.0,0.0,0.0,0.0,0.0,0.0,0.0,0.0,0.0,0.0,0.0,0.0,0.0,0.0,0.0,0.0,0.0,0.0,0.0,0.0,0.0,0.0,0.0,0.0,0.0,0.0,-3.4926,-3.4901,-3.4916,-3.506,-3.5453,-3.6465,-3.8,-3.9307,-4.0654,0.0,-4.29,-4.3329,-4.3329,-4.3329,-4.3329,-4.3329,-4.3329,-4.3329,-4.3329,-4.3329,-4.3329,-4.3329,-4.3329,-4.3329,-4.3329,-4.3329,-4.3329,-4.3329,0.0,0.0,0.0,0.0,0.0,0.0,0.0,0.0,0.0,0.0,0.0,0.0,0.0,0.0,0.0,0.0,0.0,0.0,-2.8301,-2.8301,-2.8301,-2.8301,-2.8301,-2.8301,-2.8301,-2.8301,-2.8301,-2.8301,-2.8301,-2.8301,-2.8301,-2.8301,-2.8301,-2.8301,-2.8301,-2.8301,-2.8301,-2.8301,-2.8184,-2.7969,-2.7754,-2.7539,-2.7324,-2.7109,-2.6894,-2.6719,-2.6719,0.0,0.0,0.0,0.0,0.0,0.0,0.0,-2.7702,-2.6921,-2.7955,-2.9304,0.0,0.0,0.0,0.0,0.0,0.0,0.0,0.0,0.0,0.0,0.0,0.0,0.0,0.0,0.0,0.0,0.0,0.0,0.0,0.0,0.0,0.0,0.0,0.0,0.0,0.0,0.0,0.0,0.0,-3.4901,-3.4349,-3.4324,-3.4198,-3.3947,-3.4229,-3.5424,-3.7682,-3.8615,-4.0187,-4.2467,-4.2981,-4.3329,-4.3329,-4.3329,-4.3329,-4.3329,-4.3329,-4.3329,-4.3329,-4.3329,-4.3329,-4.3329,-4.3329,-4.3329,-4.3329,-4.3329,-4.3329,-4.3329,0.0,0.0,0.0,0.0,0.0,0.0,0.0,0.0,0.0,0.0,0.0,0.0,0.0,0.0,0.0,0.0,0.0,0.0,-2.8301,-2.8301,-2.8301,-2.8301,-2.8301,-2.8301,-2.8301,-2.8301,-2.8301,-2.8301,-2.8301,-2.8301,-2.8301,-2.8301,-2.8301,-2.8301,-2.8301,-2.8301,-2.8281,-2.8223,-2.7988,-2.7656,-2.75,-2.7226,-2.6894,-2.6816,-2.6582,-2.6269,-2.6269,-2.6055,-2.5742,-2.5742,0.0,0.0,0.0,0.0,-2.703,-2.6014,-2.7105,-2.8588,0.0,0.0,0.0,0.0,0.0,0.0,0.0,0.0,0.0,0.0,0.0,0.0,0.0,0.0,0.0,0.0,0.0,0.0,0.0,0.0,0.0,0.0,0.0,0.0,0.0,0.0,0.0,0.0,0.0,-3.4349,-3.3796,-3.3746,-3.3545,-3.3093,-3.3068,-3.458,-3.7533,-3.7979,-3.9751,-4.2739,-4.309,-4.3329,-4.3329,-4.3329,-4.3329,-4.3329,-4.3329,-4.3329,-4.3329,-4.3329,-4.3329,-4.3329,-4.3329,-4.3329,-4.3329,-4.3329,-4.3329,-4.3329,0.0,0.0,0.0,0.0,0.0,0.0,0.0,0.0,0.0,0.0,-2.8301,-2.8301,0.0,0.0,-2.8301,-2.8301,-2.8301,-2.8301,-2.8301,0.0,0.0,-2.8301,-2.8301,-2.8301,-2.8301,-2.8301,-2.8301,-2.8301,-2.8301,-2.8301,-2.8301,-2.8301,-2.8301,-2.8301,-2.8301,-2.8301,-2.8262,-2.791,-2.7715,-2.7598,-2.6855,-2.6523,-2.6426,-2.6055,-2.5879,-2.582,-2.582,-2.5781,-2.5742,-2.5742,-2.5742,0.0,0.0,0.0,-2.5917,-2.5742,-2.5917,0.0,0.0,0.0,0.0,0.0,0.0,0.0,0.0,0.0,0.0,0.0,0.0,0.0,0.0,0.0,0.0,0.0,0.0,0.0,0.0,0.0,0.0,0.0,0.0,0.0,0.0,0.0,0.0,0.0,-3.4048,-3.3771,-3.3219,-3.3194,-3.3144,-3.3068,-3.3068,-3.377,-3.5124,-3.7223,-3.8922,-4.0404,-4.2386,-4.3329,-4.3329,-4.3329,-4.3329,-4.3329,-4.3329,-4.3329,-4.3329,-4.3329,-4.3329,-4.3329,-4.3329,-4.3329,-4.3329,-4.3329,-4.3329,-4.3329,0.0,0.0,0.0,0.0,0.0,0.0,0.0,0.0,0.0,0.0,0.0,-2.8301,0.0,-2.8301,-2.8301,-2.8301,-2.8301,-2.8301,-2.8301,-2.8301,-2.8301,-2.8301,-2.8301,-2.8301,-2.8301,-2.8301,-2.8301,-2.8301,-2.8301,-2.8301,-2.8301,-2.8301,-2.8301,-2.8301,-2.8301,-2.8301,-2.8262,-2.7851,-2.7519,-2.7246,-2.6641,-2.625,-2.5996,-2.5801,-2.5742,-2.5742,-2.5742,-2.5742,-2.5742,0.0,-2.5742,-2.5742,-2.5742,0.0,0.0,0.0,0.0,0.0,0.0,0.0,0.0,0.0,0.0,0.0,0.0,0.0,0.0,0.0,0.0,0.0,0.0,0.0,0.0,0.0,0.0,0.0,0.0,0.0,0.0,0.0,0.0,0.0,0.0,0.0,0.0,0.0,-3.3621,-3.3345,-3.3093,-3.3068,-3.3068,-3.3068,-3.3068,-3.3918,-3.5719,-3.7392,-3.9422,-4.1782,-4.282,-4.3329,-4.3329,-4.3329,-4.3329,-4.3329,-4.3329,-4.3329,-4.3329,-4.3329,-4.3329,-4.3329,-4.3329,-4.3329,-4.3329,-4.3329,-4.3329,-4.3329,0.0,0.0,0.0,0.0,0.0,0.0,0.0,0.0,0.0,0.0,0.0,0.0,0.0,0.0,0.0,0.0,-2.8301,-2.8301,-2.8301,-2.8301,-2.8301,-2.8301,-2.8301,-2.8301,-2.8301,-2.8301,-2.8301,-2.8301,-2.8301,-2.8301,-2.8301,-2.8301,-2.8301,-2.8301,-2.8301,-2.8242,-2.8105,-2.7676,-2.7246,-2.6816,-2.6387,-2.6035,-2.5742,-2.5742,-2.5742,-2.5742,-2.5742,-2.5742,0.0,0.0,0.0,0.0,0.0,0.0,0.0,0.0,0.0,0.0,0.0,0.0,0.0,0.0,0.0,0.0,0.0,0.0,0.0,0.0,0.0,0.0,0.0,0.0,0.0,0.0,0.0,0.0,0.0,0.0,0.0,0.0,0.0,0.0,0.0,0.0,0.0,0.0,-3.3319,-3.3068,-3.3068,-3.3068,-3.3068,-3.3068,-3.3068,-3.4005,-3.6044,-3.7776,-4.0228,-4.3329,-4.3329,-4.3329,-4.3329,-4.3329,-4.3329,-4.3329,-4.3329,-4.3329,-4.3329,-4.3329,-4.3329,-4.3329,-4.3329,-4.3329,-4.3329,-4.3329,-4.3329,-4.3329,0.0,0.0,0.0,0.0,0.0,0.0,0.0,0.0,0.0,0.0,0.0,0.0,-2.8301,-2.8301,-2.8301,-2.8301,-2.8301,-2.8301,-2.8301,-2.8301,-2.8301,-2.8301,-2.8301,0.0,-2.8301,-2.8301,-2.8301,-2.8301,-2.8301,-2.8301,-2.8301,-2.8301,-2.8301,-2.8301,-2.8301,-2.8066,-2.7676,-2.7226,-2.6797,-2.6387,-2.5937,-2.5762,-2.5742,-2.5742,-2.5742,-2.5742,-2.5742,0.0,0.0,0.0,0.0,0.0,0.0,0.0,0.0,0.0,0.0,0.0,0.0,0.0,0.0,0.0,0.0,0.0,0.0,0.0,0.0,0.0,0.0,0.0,0.0,0.0,0.0,0.0,0.0,0.0,0.0,0.0,0.0,0.0,0.0,0.0,0.0,0.0,0.0,0.0,-3.3093,-3.3068,-3.3068,-3.3068,-3.3068,-3.3068,-3.3068,-3.3683,-3.4791,-3.8094,-4.0943,-4.3329,-4.3329,-4.3329,-4.3329,-4.3329,-4.3329,-4.3329,-4.3329,-4.3329,-4.3329,-4.3329,-4.3329,-4.3329,-4.3329,-4.3329,-4.3329,-4.3329,-4.3329,-4.3329,0.0,0.0,0.0,0.0,0.0,0.0,0.0,0.0,0.0,0.0,0.0,0.0,0.0,-2.8301,-2.8301,-2.8301,-2.8301,-2.8301,-2.8301,-2.8301,-2.8301,-2.8301,-2.8301,-2.8301,-2.8301,-2.8301,-2.8301,-2.8301,-2.8301,-2.8301,-2.8301,-2.8301,-2.8301,-2.8301,-2.8301,-2.8066,-2.7637,-2.7207,-2.6777,-2.6348,-2.5918,-2.5742,-2.5742,-2.5742,0.0,0.0,0.0,0.0,0.0,0.0,0.0,0.0,0.0,0.0,0.0,0.0,0.0,0.0,0.0,0.0,0.0,0.0,0.0,0.0,0.0,0.0,0.0,0.0,0.0,0.0,0.0,0.0,0.0,0.0,0.0,0.0,0.0,0.0,0.0,0.0,0.0,0.0,0.0,0.0,0.0,0.0,0.0,-3.3068,-3.3068,-3.3068,-3.3068,-3.3068,-3.3068,-3.4324,-3.6967,-3.8933,-4.1,-4.3329,-4.3329,-4.3329,-4.3329,-4.3329,-4.3329,-4.3329,-4.3329,-4.3329,-4.3329,-4.3329,-4.3329,-4.3329,-4.3329,-4.3329,-4.3329,-4.3329,-4.3329,-4.3329,0.0,0.0,0.0,0.0,0.0,0.0,0.0,0.0,0.0,-2.8301,0.0,0.0,0.0,0.0,-2.8301,-2.8301,-2.8301,-2.8301,-2.8301,-2.8301,-2.8301,-2.8301,-2.8301,0.0,-2.8301,-2.8164,-2.8144,-2.8301,-2.8144,-2.8164,-2.8301,-2.8301,-2.8301,-2.8301,-2.8301,-2.7969,-2.7422,0.0,0.0,-2.6152,-2.5859,-2.5742,-2.5742,0.0,0.0,0.0,0.0,0.0,0.0,0.0,0.0,0.0,0.0,0.0,0.0,0.0,0.0,0.0,-2.5742,0.0,0.0,0.0,0.0,0.0,0.0,0.0,0.0,0.0,0.0,0.0,0.0,0.0,0.0,0.0,0.0,0.0,0.0,0.0,0.0,0.0,0.0,0.0,0.0,0.0,0.0,0.0,0.0,0.0,-3.3068,-3.3068,-3.3068,-3.3068,-3.3445,-3.4882,-3.7617,-3.876,-4.0232,-4.214,-4.2548,-4.271,-4.2739,-4.317,-4.3329,-4.3329,-4.3329,-4.3329,-4.3329,-4.3329,-4.3329,-4.3329,-4.3329,-4.3329,-4.3329,-4.3329,-4.3329,-4.3329,0.0,0.0,0.0,0.0,0.0,0.0,0.0,0.0,-2.8301,-2.8301,0.0,0.0,0.0,0.0,0.0,-2.8301,-2.8301,-2.8301,-2.8301,-2.8301,-2.8301,-2.8301,-2.8301,-2.8301,-2.8301,-2.7891,-2.7891,-2.8301,-2.7891,-2.7891,-2.8301,-2.8301,-2.8301,-2.8301,-2.8301,-2.7812,-2.7012,0.0,-2.6523,-2.5742,0.0,-2.5742,-2.5742,0.0,0.0,0.0,-2.5742,-2.5742,0.0,0.0,0.0,0.0,0.0,0.0,0.0,0.0,0.0,0.0,0.0,0.0,0.0,0.0,0.0,0.0,-2.5742,0.0,-2.7579,-2.76,-2.9487,-3.1134,-3.1223,-3.2239,-3.3244,-3.3796,-3.342,-3.3068,-3.3068,-3.3068,-3.3068,-3.3068,-3.3068,-3.3068,-3.3068,-3.3068,-3.3068,0.0,-3.3068,-3.3068,-3.3068,-3.3068,-3.3068,-3.3068,-3.4148,-3.5302,-3.6479,-3.7527,-3.8738,-3.9913,-4.1,-4.1587,-4.167,-4.2739,-4.325,-4.3329,-4.3329,-4.3329,-4.3329,-4.3329,-4.3329,-4.3329,-4.3329,-4.3329,-4.3329,-4.3329,-4.3329,-4.3329,0.0,0.0,0.0,0.0,0.0,-2.8301,-2.8301,-2.8301,-2.8301,0.0,0.0,0.0,-2.8301,-2.8301,-2.8301,-2.8301,-2.8301,-2.8301,-2.8301,-2.8301,-2.8301,-2.8301,-2.8301,-2.8301,-2.8301,-2.8184,-2.8184,-2.8301,-2.8184,-2.8184,-2.8301,-2.8301,-2.8301,-2.8301,-2.8301,-2.7812,-2.7012,-2.7012,0.0,0.0,-2.5742,-2.5742,0.0,0.0,0.0,0.0,0.0,-2.5742,0.0,0.0,-2.5742,-2.5742,0.0,0.0,0.0,0.0,0.0,0.0,-2.5742,0.0,0.0,0.0,0.0,0.0,-2.5742,-2.6014,-2.6476,-2.741,-2.8143,-2.9143,-3.0866,-3.1488,-3.2089,-3.3183,-3.3169,-3.3068,-3.3068,-3.3068,-3.3068,-3.3068,-3.3068,-3.3068,-3.3068,-3.3068,-3.3068,0.0,-3.3068,-3.3068,-3.3068,-3.3068,-3.3068,-3.3068,-3.4148,-3.5302,-3.6479,-3.7527,-3.8738,-3.9913,-4.0232,-4.0831,-4.1587,-4.1947,-4.2548,-4.3329,-4.3329,-4.3329,-4.3329,-4.3329,-4.3329,-4.3329,-4.3329,-4.3329,-4.3329,-4.3329,-4.3329,-4.3329,0.0,0.0,-2.8301,-2.8301,-2.8301,-2.8301,-2.8301,-2.8301,-2.8301,0.0,0.0,0.0,-2.8301,-2.8301,-2.8301,-2.8301,-2.8301,-2.8301,-2.8301,-2.8301,-2.8301,-2.8301,-2.8301,-2.8301,-2.8301,-2.8125,-2.8125,-2.8301,-2.8125,-2.8125,-2.8301,-2.8301,-2.8301,-2.8301,-2.8301,-2.7812,-2.7012,0.0,0.0,0.0,-2.5742,0.0,0.0,-2.5742,-2.5742,0.0,0.0,0.0,-2.5742,-2.5742,-2.5742,0.0,0.0,0.0,0.0,0.0,0.0,0.0,-2.5742,-2.5742,0.0,0.0,0.0,0.0,-2.5742,-2.5742,-2.5917,0.0,-2.722,-2.8143,-3.0124,-3.0866,-3.1601,-3.2896,-3.3068,-3.3068,-3.3068,-3.3068,-3.3068,-3.3068,-3.3068,-3.3068,-3.3068,-3.3068,-3.3068,-3.3068,-3.3068,-3.3068,-3.3068,-3.3068,-3.3068,-3.3068,-3.4148,-3.506,-3.5719,-3.6832,-3.7769,-3.8496,-3.8917,-3.9536,-4.0204,-4.114,-4.1947,-4.2629,-4.3061,-4.3329,-4.3329,-4.3329,-4.3329,-4.3329,-4.3329,-4.3329,-4.3329,-4.3329,-4.3329,-4.3329,0.0,0.0,-2.8301,-2.8301,-2.8301,-2.8301,-2.8301,-2.8301,-2.8301,0.0,-2.8301,-2.8301,-2.8301,-2.8301,-2.8301,-2.8301,-2.8301,-2.8301,-2.8301,-2.8301,-2.8301,-2.8301,-2.8301,-2.8301,-2.8301,-2.793,-2.791,-2.8301,-2.791,-2.793,-2.8301,-2.8301,-2.8301,-2.8301,-2.8242,-2.7773,-2.7012,0.0,0.0,-2.5742,-2.5742,-2.5742,0.0,0.0,-2.5762,0.0,-2.5801,-2.5801,-2.5801,-2.5762,-2.5742,0.0,0.0,0.0,0.0,0.0,-2.5742,0.0,-2.5742,-2.5742,-2.5742,0.0,-2.5742,0.0,-2.5742,-2.5742,-2.5742,-2.5742,-2.6572,-2.7767,-2.8958,-3.0033,-3.1223,-3.2698,-3.2896,-3.2982,-3.3068,-3.3068,-3.3068,-3.3068,-3.3068,-3.3068,-3.3068,-3.3068,-3.3068,-3.3068,-3.3068,-3.3068,-3.3068,-3.3068,-3.3068,-3.3068,-3.4148,-3.4726,-3.4726,-3.5805,-3.6358,-3.6452,-3.7402,-3.8017,-3.8198,-4.029,-4.1253,-4.1504,-4.2629,-4.309,-4.317,-4.325,-4.3329,-4.3329,-4.3329,-4.3329,-4.3329,-4.3329,-4.3329,-4.3329,-2.8301,-2.8301,-2.8301,-2.8301,-2.8301,-2.8301,-2.8301,-2.8301,-2.8301,-2.8301,-2.8301,-2.8301,-2.8301,-2.8301,-2.8301,-2.8301,-2.8301,-2.8301,-2.8301,-2.8301,-2.8301,-2.8301,-2.8301,-2.8301,-2.8301,-2.8203,-2.8203,-2.8301,-2.8203,-2.8203,-2.8301,-2.8301,-2.8301,-2.8281,-2.793,-2.75,-2.6992,0.0,0.0,-2.5742,-2.5742,0.0,-2.5742,-2.5742,-2.5957,-2.6269,-2.6269,-2.6269,-2.6211,0.0,-2.5742,-2.5742,0.0,0.0,0.0,0.0,0.0,0.0,0.0,0.0,0.0,0.0,0.0,0.0,-2.5742,-2.5742,-2.5742,-2.5742,-2.5917,-2.6476,-2.7673,-2.8143,-2.905,-3.1223,-3.1601,-3.1952,-3.2982,-3.3068,-3.3068,-3.3068,-3.3068,-3.3068,-3.3068,-3.3068,-3.3068,-3.3068,-3.3068,-3.3068,-3.3068,-3.3068,-3.3068,-3.3068,-3.4148,-3.4726,-3.4726,-3.5805,-3.6358,-3.6358,-3.6615,-3.7243,-3.8107,-3.8532,-3.9332,-4.0318,-4.142,-4.1947,-4.2029,-4.29,-4.3329,-4.3329,-4.3329,-4.3329,-4.3329,-4.3329,-4.3329,-4.3329,-2.7168,-2.7833,-2.8301,-2.8301,-2.8301,-2.8301,-2.8301,-2.8301,-2.8301,-2.8301,-2.8301,-2.8301,-2.8301,-2.8301,-2.8301,-2.8301,-2.8301,-2.8301,-2.8301,-2.8301,-2.8301,-2.8301,-2.8301,-2.8301,-2.8301,-2.8301,-2.8301,-2.8301,-2.8301,-2.8301,-2.8301,-2.8301,-2.8301,-2.8281,-2.7851,-2.7422,-2.6992,0.0,-2.6133,-2.5742,-2.5742,0.0,-2.5742,-2.5742,-2.6016,-2.6387,-2.6387,-2.6387,-2.6348,-2.6133,-2.5918,0.0,0.0,-2.5742,-2.5742,0.0,-2.5742,-2.5742,0.0,0.0,0.0,-2.5742,0.0,0.0,0.0,-2.5234,-2.5078,-2.5078,-2.5078,-2.5436,-2.6702,-2.7415,-2.8228,-2.9734,-3.093,-3.1834,-3.2103,-3.2698,-3.3068,-3.3068,-3.3068,-3.3068,-3.3068,-3.3068,-3.3068,-3.3068,-3.3068,-3.3068,-3.3068,-3.3068,-3.3068,-3.3068,-3.4148,-3.4726,-3.4726,-3.5805,-3.6358,-3.6358,-3.6358,-3.6709,-3.7243,-3.7861,-3.8469,-3.9094,-4.0232,-4.1085,-4.167,-4.2193,-4.282,-4.3329,-4.3329,-4.3329,-4.3329,-4.3329,-4.3329,-4.3329,-2.559,-2.6608,-2.7403,-2.7403,-2.7403,-2.7403,-2.7403,-2.7726,-2.796,-2.8301,-2.8067,-2.796,-2.8281,-2.7726,-2.7511,-2.7833,-2.7618,-2.7511,-2.7833,-2.7833,-2.796,-2.8301,-2.8301,-2.8301,-2.8301,-2.8301,-2.8301,-2.8301,-2.8301,-2.8301,-2.8301,-2.8301,-2.8242,-2.8164,-2.7734,-2.7305,0.0,0.0,0.0,-2.5742,0.0,-2.5742,-2.5742,-2.584,-2.6133,-2.6523,-2.6602,-2.6582,-2.6504,-2.6426,0.0,-2.5742,-2.5742,-2.5742,0.0,0.0,0.0,0.0,0.0,0.0,0.0,0.0,0.0,-2.5059,0.0,0.0,0.0,0.0,0.0,0.0,0.0,0.0,0.0,0.0,0.0,0.0,0.0,-3.2019,0.0,-3.3068,-3.3068,-3.3068,-3.3068,-3.3068,-3.3068,-3.3068,-3.3068,-3.3068,-3.3068,-3.3068,-3.3068,-3.3068,-3.4148,-3.4726,-3.4726,-3.5805,-3.6358,-3.6358,-3.6358,-3.6358,-3.6452,-3.7335,-3.7769,-3.7861,-3.9006,-4.0059,-4.0972,-4.142,-4.2111,-4.2981,-4.325,-4.3329,-4.3329,-4.3329,-4.3329,-4.3329,-2.3822,-2.4156,-2.4267,-2.4267,-2.4267,-2.4267,-2.4267,-2.5498,-2.6825,-2.8174,-2.7168,-2.6825,-2.8174,-2.5936,0.0,-2.6264,0.0,0.0,-2.6264,0.0,-2.6933,-2.8281,-2.8301,-2.8301,-2.8301,-2.8301,-2.8301,-2.8301,-2.8301,-2.8301,-2.8301,-2.8301,-2.8086,-2.7715,-2.7285,0.0,0.0,0.0,-2.5781,0.0,-2.5742,-2.5742,0.0,-2.6172,-2.6582,-2.6992,-2.7383,-2.7266,-2.6894,0.0,-2.6094,-2.5742,0.0,-2.5742,-2.5742,0.0,0.0,0.0,0.0,0.0,0.0,0.0,-2.541,0.0,0.0,0.0,-2.4414,-2.4414,0.0,0.0,0.0,0.0,0.0,0.0,0.0,0.0,-3.0959,-3.1125,-3.1442,-3.2932,-3.3068,-3.3068,-3.3068,-3.3068,-3.3068,-3.3068,-3.3068,-3.3068,-3.3068,-3.3068,-3.3068,-3.3068,-3.4148,-3.4726,-3.4726,-3.5805,-3.6358,-3.6358,-3.6358,-3.6358,-3.6358,-3.6546,-3.664,-3.6615,-3.7861,-3.8379,-3.8622,-4.0718,-4.167,-4.1864,-4.29,-4.3329,-4.3329,-4.3329,-4.3329,-4.3329,-2.2266,-2.3263,-2.3822,-2.3822,-2.3822,-2.4044,-2.5041,-2.6391,-2.7618,-2.8174,-2.7726,-2.7618,0.0,0.0,0.0,0.0,0.0,-2.5371,0.0,0.0,-2.6717,-2.8281,-2.8301,0.0,-2.8301,-2.8301,-2.8301,-2.8301,-2.8301,-2.8301,-2.8281,-2.8047,-2.7832,-2.7637,-2.6953,0.0,-2.6367,0.0,0.0,0.0,0.0,0.0,0.0,-2.6309,-2.6797,-2.7441,-2.7871,-2.7754,-2.7363,0.0,-2.668,0.0,0.0,0.0,0.0,0.0,0.0,0.0,0.0,0.0,0.0,0.0,0.0,0.0,-2.4687,0.0,-2.3672,0.0,0.0,0.0,0.0,0.0,0.0,0.0,-2.6802,0.0,0.0,0.0,-3.1783,0.0,0.0,0.0,-3.3068,-3.3068,-3.3068,-3.3068,-3.3068,-3.3068,-3.3068,-3.3068,-3.3219,-3.3545,-3.4299,-3.4876,-3.5203,-3.5981,-3.6358,-3.6358,-3.6358,-3.6358,-3.6358,-3.6358,-3.6358,-3.6452,-3.6896,-3.7494,-3.8198,-3.9156,-4.0376,-4.167,-4.2111,-4.271,-4.3329,-4.3329,-4.3329,-4.3329,-2.0816,-2.1813,-2.2605,-2.2605,-2.2605,-2.3151,-2.4599,-2.6155,-2.706,-2.706,0.0,0.0,-2.7618,-2.6952,0.0,0.0,0.0,-2.4488,0.0,0.0,-2.5936,0.0,0.0,0.0,0.0,0.0,-2.8301,-2.8301,-2.8301,-2.8242,-2.8125,-2.7812,-2.7539,-2.7285,0.0,-2.6328,-2.6191,0.0,0.0,-2.5937,-2.625,-2.6523,-2.6738,-2.6738,-2.7187,-2.7871,-2.8184,-2.8027,-2.7676,-2.7676,-2.709,0.0,-2.6387,0.0,0.0,0.0,0.0,0.0,-2.5742,0.0,0.0,0.0,0.0,0.0,0.0,0.0,0.0,0.0,0.0,0.0,0.0,0.0,0.0,-2.4067,0.0,-2.7447,0.0,-2.9593,0.0,0.0,0.0,0.0,0.0,-3.3068,-3.3068,-3.3068,-3.3068,-3.3068,-3.3068,-3.3068,-3.3345,-3.3872,-3.4424,-3.4977,-3.5437,-3.6081,-3.6358,-3.6358,-3.6358,-3.6358,-3.6358,-3.6358,-3.6358,-3.6358,-3.6358,-3.6896,-3.7678,-3.7926,-3.9067,-4.0632,-4.1,-4.1864,-4.29,-4.317,-4.3329,-4.3329,-1.9475,-1.9475,0.0,0.0,0.0,-2.004,-2.1472,-2.3039,0.0,0.0,0.0,0.0,0.0,0.0,0.0,0.0,0.0,-2.0256,-2.1699,0.0,-2.3933,0.0,0.0,0.0,0.0,0.0,0.0,-2.8301,-2.8301,-2.8086,-2.7676,-2.7676,-2.7226,-2.6426,-2.6406,-2.6152,-2.5762,-2.5742,-2.5977,-2.6367,-2.6387,-2.6894,-2.7617,0.0,-2.7891,-2.8281,-2.8281,0.0,0.0,-2.7676,-2.709,0.0,0.0,0.0,0.0,0.0,0.0,0.0,0.0,0.0,0.0,-2.5742,0.0,0.0,0.0,0.0,-2.3652,0.0,0.0,0.0,0.0,0.0,-2.3474,-2.4553,-2.3907,0.0,0.0,0.0,0.0,0.0,0.0,0.0,0.0,-3.3068,-3.3068,0.0,-3.3068,-3.3068,-3.3068,-3.3068,-3.3345,-3.3872,-3.4424,-3.4977,-3.5437,-3.6081,-3.6358,-3.6358,-3.6358,-3.6358,-3.6358,-3.6358,-3.6358,-3.6358,-3.6358,-3.6452,-3.6546,-3.7678,-3.8107,-3.8289,-3.9536,-4.0661,-4.1753,-4.29,-4.3329,-4.3329,-1.9372,0.0,0.0,0.0,0.0,0.0,0.0,-2.2814,0.0,0.0,0.0,0.0,0.0,0.0,-2.2814,0.0,0.0,-2.1031,-2.1586,-2.2927,0.0,0.0,0.0,-2.7618,0.0,0.0,0.0,0.0,0.0,-2.8066,-2.7656,-2.7363,-2.6934,-2.6387,0.0,-2.5879,0.0,0.0,0.0,0.0,0.0,-2.7578,-2.8047,0.0,0.0,-2.8301,-2.8301,-2.8203,0.0,-2.8086,-2.7695,-2.7187,-2.6894,-2.6504,-2.6113,-2.582,-2.5742,0.0,0.0,0.0,-2.5742,-2.5742,0.0,0.0,0.0,0.0,0.0,0.0,0.0,0.0,0.0,0.0,-2.3212,-2.3627,-2.3973,-2.4617,0.0,0.0,0.0,0.0,0.0,0.0,0.0,0.0,0.0,0.0,-3.3068,0.0,-3.3068,-3.3068,-3.3495,-3.4424,-3.4625,-3.5152,-3.6081,-3.6282,-3.6358,-3.6358,-3.6358,-3.6358,-3.6358,-3.6358,-3.6358,-3.6358,-3.6358,-3.6358,-3.6452,-3.6803,-3.7402,-3.8107,-3.8559,-3.9448,-4.0575,-4.1782,-4.2629,-4.3329,-1.9372,0.0,0.0,0.0,0.0,0.0,0.0,0.0,0.0,0.0,-2.2702,0.0,-2.3039,0.0,-2.2589,0.0,-2.1145,-2.0816,-2.0816,-2.2153,0.0,-2.2266,-2.5058,0.0,0.0,0.0,0.0,0.0,0.0,-2.7851,-2.7422,-2.6992,-2.6562,-2.6152,0.0,0.0,0.0,0.0,-2.6211,0.0,0.0,-2.7264,0.0,0.0,-2.7603,-2.8301,0.0,-2.8301,-2.8301,-2.8301,-2.8008,-2.7617,-2.7324,-2.6855,-2.6328,-2.6055,-2.5859,-2.5742,-2.5742,-2.5742,0.0,-2.5742,-2.5527,0.0,-2.5098,0.0,0.0,0.0,0.0,0.0,0.0,0.0,-2.3184,-2.334,-2.3814,-2.4358,0.0,-2.7765,0.0,0.0,0.0,0.0,0.0,0.0,0.0,0.0,0.0,0.0,0.0,-3.3269,-3.3796,-3.47,-3.4926,-3.5454,-3.6358,-3.6358,-3.6358,-3.6358,-3.6358,-3.6358,-3.6358,-3.6358,-3.6358,-3.6358,-3.6358,-3.6358,-3.6358,-3.6358,-3.6803,-3.7494,-3.7494,-3.8198,-3.936,-4.0575,-4.1699,-4.2739,-1.9372,0.0,0.0,0.0,-2.0587,0.0,0.0,0.0,-2.1031,0.0,-2.0587,-2.1472,-2.1472,-2.1472,-2.1472,-2.1472,-2.0256,0.0,-1.9372,-2.0816,0.0,0.0,-2.2266,-2.3151,-2.1586,0.0,0.0,0.0,0.0,0.0,-2.7012,-2.6582,-2.6152,-2.5742,-2.5742,0.0,-2.5762,-2.6211,-2.6641,-2.6904,-2.6277,-2.6045,-2.6155,-2.6155,-2.7041,-2.8301,-2.8301,-2.8301,-2.8301,-2.8301,-2.8027,-2.7695,-2.7676,-2.7109,-2.6445,-2.6406,-2.6094,-2.5762,-2.5742,-2.5742,-2.5742,-2.5742,0.0,0.0,0.0,0.0,-2.4941,0.0,0.0,0.0,0.0,0.0,0.0,-2.3691,-2.3437,-2.3652,-2.513,0.0,0.0,0.0,0.0,0.0,0.0,0.0,0.0,0.0,0.0,0.0,0.0,-3.3596,-3.4148,-3.47,-3.5253,-3.5805,-3.6358,-3.6358,-3.6358,-3.6358,-3.6358,-3.6358,-3.6358,-3.6358,-3.6358,-3.6358,-3.6358,-3.6358,-3.6358,-3.6358,-3.6358,-3.6358,-3.6358,-3.7057,-3.8198,-3.9448,-4.0661,-4.1753,-1.9372,-1.9372,-1.9372,0.0,-1.9707,-1.9809,0.0,0.0,0.0,0.0,-1.9707,-1.9924,-1.9924,-1.9924,-1.9924,-1.9924,-1.9591,0.0,0.0,0.0,0.0,-1.9475,-2.2266,-2.3151,-2.1586,-2.4599,0.0,-2.6155,0.0,0.0,-2.7012,-2.6582,-2.6152,-2.5742,0.0,0.0,-2.5762,-2.6211,-2.6168,-2.5784,-2.474,-2.5041,0.0,0.0,-2.7041,-2.8301,-2.8301,-2.8301,-2.8301,-2.8301,-2.8223,-2.8066,-2.7754,-2.7519,-2.7207,-2.6582,-2.6309,-2.6152,-2.582,-2.5742,-2.5742,-2.5742,-2.5742,-2.5703,0.0,0.0,0.0,0.0,0.0,0.0,0.0,0.0,0.0,0.0,-2.3477,-2.3859,0.0,0.0,0.0,-2.7757,0.0,0.0,0.0,0.0,0.0,0.0,0.0,0.0,0.0,0.0,-3.4148,-3.47,-3.5253,-3.5805,-3.6358,-3.6358,-3.6358,-3.6358,-3.6358,-3.6358,-3.6358,-3.6358,-3.6358,-3.6358,-3.6358,-3.6358,-3.6358,-3.6358,-3.6358,-3.6358,-3.6358,-3.6546,-3.7057,-3.9094,-4.0661,-4.167,-1.9372,0.0,0.0,-1.9372,0.0,0.0,-1.9372,0.0,0.0,-1.9372,-1.9372,0.0,-1.9372,-1.9372,-1.9372,-1.9372,-1.9372,0.0,0.0,0.0,0.0,-1.9488,-2.1045,-2.1487,-2.0702,-2.2927,0.0,-2.5041,0.0,0.0,-2.7012,-2.6387,-2.5977,-2.5742,0.0,-2.584,0.0,-2.5933,-2.5477,-2.4637,-2.3294,0.0,0.0,-2.482,-2.6045,-2.7384,-2.8067,-2.8301,-2.8301,-2.8301,-2.8301,-2.8262,-2.8008,-2.7812,-2.7539,-2.6855,-2.6523,-2.6289,-2.5859,-2.5742,-2.5742,-2.5742,-2.5742,-2.5742,-2.5742,-2.5547,-2.5352,0.0,0.0,0.0,0.0,0.0,0.0,0.0,0.0,0.0,0.0,0.0,0.0,0.0,-2.8598,0.0,0.0,0.0,0.0,0.0,0.0,0.0,0.0,0.0,-3.4399,-3.4726,-3.5504,-3.6056,-3.6358,-3.6358,-3.6358,-3.6358,-3.6358,-3.6358,-3.6358,-3.6358,-3.6358,-3.6358,-3.6358,-3.6358,-3.6358,-3.6358,-3.6358,-3.6358,-3.6358,-3.6508,-3.69,-3.8254,-3.9473,-4.0622,0.0,0.0,0.0,0.0,0.0,0.0,0.0,-1.9372,0.0,-1.9372,0.0,-1.9372,-1.9372,-1.9372,-1.9372,-1.9372,0.0,-1.9372,-1.9372,-1.9372,-1.9372,-1.9372,-1.9372,-1.9372,-1.9372,-2.0816,0.0,0.0,0.0,0.0,-2.6992,-2.6191,-2.5801,-2.5742,0.0,0.0,0.0,-2.5477,-2.4476,-2.3375,-2.1926,-2.1472,-2.1699,-2.3039,-2.4599,-2.6264,-2.7511,-2.8174,-2.8301,-2.8301,-2.8301,-2.8301,-2.8301,-2.8047,-2.7656,-2.7148,-2.6758,-2.6367,-2.5879,-2.5742,-2.5742,-2.5742,-2.5742,-2.5742,-2.5742,-2.5742,-2.5742,-2.5742,-2.543,-2.5254,0.0,0.0,0.0,0.0,0.0,0.0,0.0,0.0,0.0,0.0,0.0,0.0,0.0,0.0,0.0,0.0,0.0,0.0,0.0,0.0,-3.4751,-3.4826,-3.583,-3.6358,-3.6358,-3.6358,-3.6358,-3.6358,-3.6358,-3.6358,-3.6358,-3.6358,-3.6358,-3.6358,-3.6358,-3.6358,-3.6358,-3.6358,-3.6408,-3.6458,-3.6458,-3.681,-3.7287,-3.7387,-3.8133,-3.9548,0.0,0.0,0.0,0.0,0.0,-1.9372,-1.9372,-1.9372,-1.9372,-1.9372,-1.9372,-1.9372,-1.9372,-1.9372,-1.9372,-1.9372,-1.9372,0.0,0.0,0.0,0.0,-1.9372,-1.9372,-1.9372,-1.9372,-2.0816,-2.2363,0.0,0.0,0.0,-2.7012,-2.6504,-2.6074,0.0,0.0,0.0,-2.5463,-2.4093,0.0,-2.1813,-2.0371,-2.0472,-2.1586,-2.1926,-2.3694,-2.6155,-2.6372,-2.7276,-2.8301,-2.8301,-2.8301,-2.8301,-2.8301,-2.8242,-2.8027,-2.7246,-2.6973,-2.6738,-2.5957,-2.5742,-2.5742,-2.5742,-2.5742,-2.5742,-2.5742,-2.5742,-2.5742,-2.5742,-2.5684,-2.5527,-2.5234,0.0,0.0,0.0,0.0,0.0,0.0,0.0,0.0,0.0,0.0,-2.7315,0.0,0.0,0.0,0.0,0.0,0.0,0.0,0.0,-3.4926,0.0,-3.6031,0.0,0.0,0.0,-3.6358,-3.6358,-3.6358,-3.6358,-3.6358,-3.6358,-3.6358,-3.6358,-3.6358,-3.6358,-3.6358,-3.6358,-3.6634,-3.7036,-3.7036,-3.7387,-3.7914,-3.8391,-3.9411,-4.0665,0.0,0.0,0.0,0.0,0.0,0.0,0.0,-1.9813,0.0,-1.9412,-1.9372,-1.9372,-1.9372,-1.9372,-1.9372,-1.9372,-1.9372,-1.9372,-1.9372,-1.9372,-1.9372,-1.9372,-1.9372,0.0,-1.9372,-2.0155,-2.1601,-2.3822,0.0,0.0,-2.7344,-2.6914,0.0,-2.6326,0.0,-2.5737,0.0,0.0,0.0,-2.1472,-2.004,-1.9809,-2.0587,-2.1373,-2.3039,-2.5041,-2.5827,-2.706,-2.8301,-2.8301,-2.8301,-2.8301,-2.8301,-2.8301,-2.8164,-2.7539,-2.7187,-2.6875,-2.625,-2.5918,-2.5742,-2.5742,-2.5742,-2.5742,-2.5742,-2.5742,-2.5742,-2.5742,-2.5742,-2.5664,-2.5449,-2.5234,0.0,0.0,0.0,0.0,0.0,0.0,0.0,0.0,0.0,0.0,0.0,0.0,0.0,0.0,0.0,0.0,0.0,0.0,-3.4311,0.0,0.0,0.0,-3.6358,0.0,-3.6358,-3.6358,-3.6358,-3.6358,-3.6358,-3.6358,-3.6358,-3.6358,-3.6358,-3.6358,-3.6383,-3.6684,-3.6935,-3.7211,-3.7487,-3.7965,-3.8492,-3.8768,-3.9899,-4.1338,0.0,-2.0227,0.0,0.0,-2.0227,0.0,-2.0227,-2.0227,-2.0067,-1.9613,-1.9546,-1.9546,-1.9546,-1.9546,-1.9546,-1.9546,-1.9546,-1.9546,-1.9546,-1.9546,-1.9519,-1.9466,-1.9466,-1.9426,-1.9372,-1.9372,-2.0716,0.0,0.0,0.0,0.0,-2.7162,0.0,0.0,0.0,0.0,0.0,0.0,-2.1472,-2.1031,-1.9809,-1.9372,-1.9475,-2.0702,-2.2266,-2.3933,-2.5151,-2.6717,-2.8301,-2.8301,-2.8301,-2.8301,-2.8301,-2.8301,-2.8203,-2.7793,-2.7363,-2.6914,-2.6504,-2.6074,-2.5742,-2.5742,-2.5742,-2.5742,-2.5742,-2.5742,-2.5742,-2.5742,-2.5742,-2.5742,-2.5742,-2.5742,0.0,0.0,0.0,0.0,0.0,0.0,0.0,0.0,0.0,0.0,-2.7125,0.0,0.0,0.0,0.0,0.0,-3.3578,0.0,0.0,0.0,0.0,-3.6358,-3.6358,0.0,-3.6358,-3.6358,-3.6358,-3.6358,-3.6358,-3.6358,-3.6358,-3.6358,-3.6358,-3.6358,-3.6408,-3.696,-3.7262,-3.7412,-3.7965,-3.8542,-3.9044,-3.9044,-4.0256,-4.2181,0.0,0.0,0.0,0.0,0.0,0.0,0.0,-2.0227,-2.0214,-2.016,-2.0147,-2.0147,-2.0147,-2.0147,-2.0147,-2.0147,-2.0147,-2.0147,-2.0147,-2.0147,-2.004,-1.9773,-1.976,-1.9639,-1.9372,-1.9372,-2.0141,0.0,0.0,0.0,0.0,0.0,0.0,0.0,0.0,0.0,0.0,-2.1684,-2.0816,-1.9591,-1.9475,-1.9372,-1.9372,-1.9591,-2.1373,-2.3822,-2.3933,-2.5827,-2.8301,-2.8301,-2.8301,-2.8301,-2.8301,-2.8301,-2.8203,-2.7793,-2.7363,-2.6914,-2.6504,-2.6074,-2.5742,-2.5742,-2.5742,-2.5742,-2.5742,-2.5742,-2.5742,-2.5742,-2.5742,-2.5742,-2.5742,-2.5742,-2.5742,0.0,0.0,0.0,0.0,0.0,0.0,0.0,0.0,0.0,0.0,-2.5917,0.0,0.0,-3.0557,0.0,0.0,0.0,0.0,-3.6257,-3.6332,-3.6358,-3.6358,-3.6358,-3.6358,-3.6358,-3.6358,-3.6358,-3.6358,-3.6358,-3.6358,-3.6358,-3.6358,-3.6358,-3.6408,-3.696,-3.7487,-3.799,-3.8567,-3.912,-3.9622,-3.9622,-4.1167,-4.3313,0.0,0.0,0.0,0.0,0.0,0.0,0.0,-2.0762,-2.0762,-2.0762,-2.0454,-2.0227,-2.0227,-2.0227,-2.0227,-2.0227,-2.0227,-2.0227,-2.0227,-2.0227,-2.0187,-2.0067,-1.9893,-1.9746,-1.9626,-1.9452,-2.0141,0.0,0.0,0.0,0.0,0.0,0.0,0.0,0.0,-2.2576,-2.1586,-2.0702,-1.9924,-1.9372,-1.9372,-1.9372,-1.9372,-1.9372,-2.1274,-2.3822,-2.3822,-2.5717,-2.8301,-2.8301,-2.8301,-2.8301,-2.8301,-2.8301,-2.8262,-2.8086,-2.7734,-2.7305,-2.6875,-2.6445,-2.6055,-2.5801,-2.5742,-2.5742,-2.5742,-2.5742,-2.5742,-2.5742,-2.5742,-2.5742,-2.5742,-2.5742,-2.5742,0.0,0.0,0.0,0.0,0.0,0.0,0.0,0.0,0.0,0.0,0.0,0.0,0.0,0.0,0.0,0.0,0.0,0.0,-3.5162,0.0,-3.6358,-3.6358,-3.6358,-3.6358,-3.6358,-3.6358,-3.6358,-3.6358,-3.6358,-3.6358,-3.6358,-3.6358,-3.6558,-3.6885,-3.7437,-3.8015,-3.8592,-3.9145,-3.9496,-3.9697,-3.9697,-4.1319,-4.3504,-2.1109,0.0,-2.1109,0.0,-2.1109,-2.1109,-2.1109,-2.1109,-2.1109,-2.1109,-2.0748,-2.0494,-2.0494,-2.0494,-2.0494,-2.0494,-2.0494,-2.0494,-2.0494,-2.0494,-2.0454,-2.0361,-2.0174,0.0,-1.98,-1.9599,-2.0007,-2.0916,-2.2476,0.0,0.0,0.0,0.0,0.0,-2.2024,-2.1358,-2.0916,-1.9809,-1.9372,-1.9372,-1.9372,-1.9372,-1.9372,-1.9372,-2.1274,-2.3822,-2.3822,-2.5717,-2.8301,-2.8301,-2.8301,-2.8301,-2.8301,-2.8301,-2.8301,-2.8301,-2.7988,-2.7598,-2.7285,-2.6894,-2.6465,-2.6035,-2.5937,-2.5898,-2.5762,-2.5742,-2.5742,-2.5742,-2.5742,-2.5742,-2.5742,-2.5742,-2.5742,-2.5742,0.0,0.0,0.0,0.0,0.0,0.0,-2.5742,-2.5781,-2.5918,-2.6211,0.0,0.0,0.0,0.0,0.0,0.0,0.0,0.0,0.0,0.0,-3.6358,-3.6358,-3.6358,-3.6358,-3.6358,-3.6358,-3.6358,-3.6358,-3.6358,-3.6358,-3.6533,-3.6835,-3.7236,-3.7965,-3.8492,-3.8919,-3.9471,-3.9697,-3.9697,-3.9697,-4.1319,-4.3504,-2.1109,-2.1109,-2.1109,-2.1109,-2.1109,-2.1109,-2.1109,-2.1109,-2.1109,-2.1109,-2.1096,-2.1096,-2.1096,-2.1096,-2.1096,-2.1096,-2.1096,-2.1096,-2.1096,-2.1096,-2.0975,0.0,0.0,-2.0401,-1.9813,-1.98,-1.9653,-1.9488,0.0,0.0,-2.0981,0.0,-2.2609,-2.1586,-2.1586,-2.0816,-1.9488,-1.9372,-1.9372,-1.9372,-1.9372,-1.9372,-1.9372,-1.9372,-2.1274,-2.3822,-2.3822,-2.5717,-2.8301,-2.8301,-2.8301,-2.8301,-2.8301,-2.8301,-2.8301,-2.8301,-2.7988,-2.7676,-2.7656,-2.7344,-2.6914,-2.6484,-2.6387,-2.6269,-2.584,-2.5742,-2.5742,-2.5742,-2.5742,-2.5742,-2.5742,-2.5742,-2.5742,-2.5742,0.0,0.0,0.0,0.0,0.0,0.0,-2.5742,-2.5898,-2.6348,-2.6387,0.0,0.0,0.0,0.0,0.0,0.0,0.0,-3.4385,-3.4385,0.0,-3.6358,-3.6358,-3.6358,-3.6358,-3.6358,-3.6358,-3.6358,-3.6358,-3.6358,-3.6383,-3.6935,-3.7186,-3.7262,-3.8391,-3.8868,-3.8919,-3.9471,-3.9697,-3.9697,-3.9697,-4.1319,-4.3504,-2.1109,-2.1109,-2.1109,-2.1109,-2.1109,-2.1109,-2.1109,-2.1109,-2.1109,-2.1109,-2.1109,-2.1109,-2.1109,-2.1109,-2.1109,0.0,-2.1109,-2.1109,0.0,-2.1109,-2.1069,-2.0975,-2.0775,-2.0588,-2.0401,-2.0,-1.976,-1.9666,0.0,0.0,0.0,-2.1872,-2.1383,-2.0155,-2.0155,-1.9809,-1.9372,-1.9372,-1.9372,-1.9372,-1.9372,-1.9372,-1.9475,-2.0472,-2.2153,-2.3933,-2.5041,-2.6608,-2.8301,-2.8301,-2.8301,-2.8301,-2.8301,-2.8301,-2.8301,-2.8301,-2.8203,-2.8027,-2.7754,-2.7559,-2.7363,-2.6914,-2.6816,-2.6699,-2.6269,-2.5957,-2.5742,-2.5742,-2.5742,-2.5742,-2.5742,-2.5742,-2.5742,-2.5742,-2.5742,0.0,0.0,0.0,0.0,0.0,-2.5996,-2.623,-2.6387,-2.6914,0.0,0.0,0.0,0.0,0.0,0.0,0.0,0.0,-3.3476,0.0,-3.5066,-3.5953,-3.6358,-3.6358,-3.6358,-3.6358,-3.6358,-3.6358,-3.6358,-3.6383,-3.6935,-3.7387,-3.7814,-3.8567,-3.9094,-3.9446,-3.9622,-3.9697,-3.9697,-3.9697,-4.1319,-4.3504,-2.1109,-2.1109,-2.1109,-2.1109,-2.1109,-2.1109,-2.1109,-2.1109,-2.1109,-2.1109,-2.1109,-2.1109,-2.1109,-2.1109,0.0,-2.1109,-2.1109,-2.1109,-2.1109,-2.1109,-2.1109,-2.1109,-2.0935,-2.0788,-2.0681,-2.0321,0.0,-1.98,-2.0396,-2.0816,-2.0816,-2.0816,-2.0256,-1.9372,-1.9372,-1.9372,-1.9372,-1.9372,-1.9372,-1.9372,-1.9372,-1.9372,-1.9591,-2.1031,-2.2476,-2.4044,-2.559,-2.706,-2.8301,-2.8301,-2.8301,-2.8301,-2.8301,-2.8301,-2.8301,-2.8301,-2.8301,-2.8242,-2.7969,-2.791,-2.7793,-2.7363,-2.7266,-2.7109,-2.6523,-2.6172,-2.5937,-2.5781,-2.5742,-2.5742,-2.5742,-2.5742,-2.5742,-2.5742,-2.5742,-2.5742,-2.5742,0.0,0.0,0.0,0.0,0.0,0.0,-2.7344,-2.7734,0.0,0.0,0.0,0.0,0.0,0.0,-3.0307,-3.1949,-3.3055,-3.3575,-3.4969,-3.5667,-3.5667,-3.6168,-3.6358,-3.6358,-3.6358,-3.6358,-3.6408,-3.7161,-3.7688,-3.8065,-3.8868,-3.9371,-3.9697,-3.9697,-3.9697,-3.9697,-3.9697,-4.1319,-4.3504,-2.1136,-2.1122,-2.1109,0.0,-2.1109,0.0,-2.1109,-2.1109,-2.1109,-2.1109,-2.1109,-2.1109,-2.1109,-2.1109,-2.1109,-2.1109,0.0,0.0,0.0,-2.1109,-2.1109,-2.1109,-2.1109,-2.0989,-2.0708,-2.0681,-2.0401,-1.9826,-1.9546,-1.9399,-1.9399,-1.9372,-1.9372,-1.9372,-1.9372,-1.9372,-1.9372,-1.9372,-1.9372,-1.9372,-1.9372,-1.9372,-1.9591,-2.1145,-2.2589,-2.4044,-2.5717,-2.7168,-2.8301,-2.8301,-2.8301,-2.8301,-2.8301,-2.8301,-2.8301,-2.8301,-2.8301,-2.8301,-2.8301,-2.8301,-2.8203,-2.7812,-2.7695,-2.7461,-2.666,-2.6445,-2.6309,-2.5898,-2.5801,-2.5781,-2.5781,-2.5762,-2.5742,-2.5742,-2.5742,-2.5742,-2.5781,0.0,0.0,0.0,0.0,0.0,0.0,-2.7695,-2.7871,0.0,0.0,0.0,0.0,0.0,-2.89,-3.012,-3.0203,-3.0927,-3.2129,-3.3674,-3.4483,-3.4581,-3.5763,-3.6358,-3.6358,-3.6358,-3.6358,-3.6408,-3.7538,-3.8015,-3.809,-3.922,-3.9697,-3.9697,-3.9697,-3.9697,-3.9697,-3.9697,-4.1319,-4.3504,0.0,0.0,-2.1109,-2.1109,-2.1109,-2.1109,-2.1109,-2.1109,-2.1109,-2.1109,-2.1109,-2.1109,-2.1109,-2.1109,-2.1109,-2.1109,-2.1109,-2.1109,-2.1109,-2.1109,-2.1109,-2.1109,-2.1109,-2.1082,-2.1002,-2.0788,-2.0494,-2.0134,-1.984,-1.9693,-1.9693,-1.9466,-1.9372,-1.9372,-1.9372,-1.9372,-1.9372,-1.9372,-1.9372,-1.9372,-1.9372,-1.9372,-1.9707,-2.2266,-2.3487,-2.4156,-2.6844,-2.796,-2.8301,-2.8301,-2.8301,-2.8301,-2.8301,-2.8301,-2.8301,-2.8301,-2.8301,-2.8301,-2.8301,-2.8301,-2.8262,-2.8164,-2.791,-2.7617,-2.7402,-2.7109,-2.6836,-2.6738,-2.6465,-2.623,-2.623,-2.5957,-2.5742,-2.5742,-2.5742,-2.5859,-2.6191,-2.6328,0.0,0.0,-2.7246,-2.7559,-2.7656,-2.7949,-2.8184,0.0,0.0,0.0,0.0,-2.8301,-2.8495,-2.8794,-2.9807,-3.0411,-3.0721,-3.3155,-3.4872,-3.5953,-3.6263,-3.6358,-3.6358,-3.6358,-3.6358,-3.6408,-3.7538,-3.8015,-3.809,-3.922,-3.9697,-3.9697,-3.9697,-3.9697,-3.9697,-3.9697,-4.1319,-4.3504,-2.175,-2.151,-2.1309,-2.1309,-2.1203,-2.1109,-2.1109,-2.1109,-2.1109,-2.1109,-2.1109,-2.1109,-2.1109,-2.1109,-2.1109,-2.1109,-2.1109,-2.1109,-2.1109,-2.1109,-2.1109,-2.1109,-2.1109,-2.1109,-2.1109,-2.0949,-2.0735,-2.0441,-2.0013,-1.98,-1.9786,-1.9506,-1.9372,-1.9372,-1.9372,-1.9372,-1.9372,-1.9372,-1.9372,-1.9372,-1.9372,-1.9372,-1.9707,-2.1926,-2.3263,-2.4156,-2.6499,-2.7726,-2.8301,-2.8301,-2.8301,-2.8301,-2.8301,-2.8301,-2.8301,-2.8301,-2.8301,-2.8301,-2.8301,-2.8301,-2.8301,-2.8301,-2.8125,-2.791,-2.7715,-2.748,-2.7266,-2.7051,-2.6836,-2.668,-2.668,-2.6484,-2.6328,-2.6328,-2.6328,-2.6406,-2.6641,-2.6855,-2.7051,-2.7285,-2.7695,-2.7949,-2.7949,-2.8164,-2.8301,-2.8301,-2.8301,0.0,-2.8301,-2.8301,-2.8301,-2.8301,-2.9006,-2.9408,-2.9408,-3.205,-3.4166,-3.5475,-3.6073,-3.6358,-3.6358,-3.6358,-3.6358,-3.6408,-3.7538,-3.8015,-3.809,-3.922,-3.9697,-3.9697,-3.9697,-3.9697,-3.9697,-3.9697,-4.0945,-4.2738,-2.2044,-2.1817,-2.1603,-2.1563,-2.1349,-2.1162,-2.1122,-2.1109,-2.1109,-2.1109,-2.1109,-2.1109,-2.1109,-2.1109,-2.1109,-2.1109,-2.1109,-2.1109,-2.1109,-2.1109,-2.1109,-2.1109,-2.1109,-2.1109,-2.1109,-2.1109,-2.0989,-2.0735,-2.0201,-1.9907,-1.9853,-1.9573,-1.9412,-1.9372,-1.9372,-1.9372,-1.9372,-1.9372,-1.9372,-1.9372,-1.9372,-1.9372,-1.9591,-2.1259,-2.2702,-2.4044,-2.5827,-2.7276,-2.8301,-2.8301,-2.8301,-2.8301,-2.8301,-2.8301,-2.8301,-2.8301,-2.8301,-2.8301,-2.8301,-2.8301,-2.8301,-2.8301,-2.8301,-2.8203,-2.7851,-2.7754,-2.7656,-2.7285,-2.7148,-2.7109,-2.7109,-2.707,-2.7012,-2.7012,-2.7012,-2.7031,-2.7109,0.0,-2.7695,-2.7754,-2.8066,-2.8301,-2.8301,-2.8301,-2.8301,-2.8301,-2.8301,-2.8301,-2.8301,-2.8301,-2.8301,-2.8301,-2.8301,-2.8388,-2.8601,-3.103,-3.3055,-3.4385,-3.5763,-3.6358,-3.6358,-3.6358,-3.6358,-3.6408,-3.7538,-3.8015,-3.809,-3.922,-3.9697,-3.9697,-3.9697,-3.9697,-3.9697,-3.9697,-4.0567,-4.1789,-2.2352,-2.2124,-2.1844,-2.159,-2.151,-2.1403,-2.1149,-2.1109,-2.1109,-2.1109,-2.1109,-2.1109,-2.1109,-2.1109,-2.1109,-2.1109,-2.1109,-2.1109,-2.1109,-2.1109,-2.1109,-2.1109,-2.1109,-2.1109,-2.1109,-2.1109,-2.1082,-2.1042,-2.0708,-2.0414,-2.016,-1.9867,-1.9599,-1.9372,-1.9372,-1.9372,-1.9372,-1.9372,-1.9372,-1.9372,-1.9372,-1.9372,-1.9707,-2.2379,-2.3599,-2.4156,-2.6952,-2.8067,-2.8301,-2.8301,-2.8301,-2.8301,-2.8301,-2.8301,-2.8301,-2.8301,-2.8301,-2.8301,-2.8301,-2.8301,-2.8301,-2.8301,-2.8301,-2.8281,-2.8203,-2.8203,-2.8184,-2.8105,-2.7812,-2.7559,-2.7559,-2.7266,-2.7012,-2.7012,-2.7012,-2.7148,-2.7519,0.0,-2.7793,-2.8164,-2.8262,-2.8301,-2.8301,-2.8301,-2.8301,-2.8301,-2.8301,-2.8301,-2.8301,-2.8301,-2.8301,-2.8301,-2.8301,-2.8794,-3.0016,-3.152,-3.3055,-3.4385,-3.5763,-3.6358,-3.6358,-3.6358,-3.6358,-3.6408,-3.7538,-3.8015,-3.809,-3.922,-3.9697,-3.9697,-3.9697,-3.9697,-3.9697,-3.9697,-4.0567,-4.1789,-2.2659,-2.2418,-2.2178,-2.2044,-2.1764,-2.151,-2.1363,-2.1216,-2.1109,-2.1109,-2.1109,-2.1109,-2.1109,-2.1109,-2.1109,-2.1109,-2.1109,-2.1109,-2.1109,-2.1109,-2.1109,-2.1109,-2.1109,-2.1109,-2.1109,-2.1109,-2.1109,-2.1109,-2.0815,-2.0521,-2.0227,-1.9933,-1.9639,-1.9372,-1.9372,-1.9372,-1.9372,-1.9372,-1.9372,-1.9372,-1.9372,-1.9372,-1.9591,-2.1813,-2.3151,-2.4044,-2.6264,-2.7618,-2.8301,-2.8301,-2.8301,-2.8301,-2.8301,-2.8301,-2.8301,-2.8301,-2.8301,-2.8301,-2.8301,-2.8301,-2.8301,-2.8301,-2.8301,-2.8301,-2.8301,-2.8301,-2.8301,-2.8301,-2.8144,-2.8008,-2.8008,-2.7832,-2.7715,-2.7695,-2.7695,0.0,0.0,-2.8008,-2.8066,-2.8262,-2.8301,-2.8301,-2.8301,-2.8301,-2.8301,-2.8301,-2.8301,-2.8301,-2.8301,-2.8301,-2.8301,-2.8301,-2.8301,-2.8601,-2.9197,-3.0514,-3.1927,-3.3254,-3.4654,-3.5667,-3.6358,-3.6358,-3.6358,-3.6408,-3.7538,-3.8015,-3.809,-3.922,-3.9697,-3.9697,-3.9697,-3.9697,-3.9697,-3.9697,-4.0083,-4.0844,-2.2859,-2.2672,-2.2498,-2.2432,-2.2044,-2.171,-2.1577,-2.1363,-2.1189,-2.1122,-2.1109,-2.1109,-2.1109,-2.1109,-2.1109,-2.1109,-2.1109,-2.1109,-2.1109,-2.1109,-2.1109,-2.1109,-2.1109,-2.1109,-2.1109,-2.1109,-2.1109,-2.1109,-2.0882,-2.0628,-2.0334,-2.004,-1.9746,-1.9466,-1.9399,-1.9372,-1.9372,-1.9372,-1.9372,-1.9372,-1.9372,-1.9372,-1.9591,-2.1031,-2.2476,-2.4044,-2.559,-2.706,-2.8301,-2.8301,-2.8301,-2.8301,-2.8301,-2.8301,-2.8301,-2.8301,-2.8301,-2.8301,-2.8301,-2.8301,-2.8301,-2.8301,-2.8301,-2.8301,-2.8301,-2.8301,-2.8301,-2.8301,-2.8301,-2.8301,-2.8301,-2.8301,-2.8301,-2.8301,0.0,0.0,0.0,-2.8301,-2.8301,-2.8301,-2.8301,-2.8301,-2.8301,-2.8301,-2.8301,-2.8301,-2.8301,-2.8301,-2.8301,-2.8301,-2.8301,-2.8301,-2.8301,-2.8301,-2.8301,-2.9618,-3.0927,-3.2331,-3.3773,-3.5066,-3.6358,-3.6358,-3.6358,-3.6408,-3.7387,-3.7889,-3.809,-3.9094,-3.9572,-3.9697,-3.9697,-3.9697,-3.9697,-3.9697,-3.9697,-4.0083,-2.2859,-2.2846,-2.2739,-2.2472,-2.2378,-2.2178,-2.163,-2.1537,-2.1416,-2.1149,-2.1109,-2.1109,-2.1109,-2.1109,-2.1109,-2.1109,-2.1109,-2.1109,-2.1109,-2.1109,-2.1109,-2.1109,-2.1109,-2.1109,-2.1109,-2.1109,-2.1109,-2.1109,-2.1082,-2.0922,-2.0641,-2.0347,-2.004,-1.976,-1.9492,-1.9372,-1.9372,-1.9372,-1.9372,-1.9372,-1.9372,-1.9372,-1.9591,-2.1031,-2.2476,-2.4044,-2.559,-2.706,-2.8301,-2.8301,-2.8301,-2.8301,-2.8301,-2.8301,-2.8301,-2.8301,-2.8301,-2.8301,-2.8301,-2.8301,-2.8301,-2.8301,-2.8301,-2.8301,-2.8301,-2.8301,-2.8301,-2.8301,-2.8301,-2.8301,-2.8301,-2.8301,-2.8301,-2.8301,0.0,0.0,-2.8301,-2.8301,-2.8301,-2.8301,-2.8301,-2.8301,-2.8301,-2.8301,-2.8301,-2.8301,-2.8301,-2.8301,-2.8301,-2.8301,-2.8301,-2.8301,-2.8301,-2.8301,-2.8301,-2.9618,-3.0927,-3.2331,-3.3773,-3.5066,-3.6358,-3.6358,-3.6358,-3.6383,-3.6985,-3.7538,-3.8065,-3.8668,-3.922,-3.9697,-3.9697,-3.9697,-3.9697,-3.9697,-3.9697,-4.0083,-2.2859,-2.2859,-2.2819,-2.2712,-2.2539,-2.2338,-2.2124,-2.1777,-2.151,-2.1403,-2.1229,-2.1109,-2.1109,-2.1109,-2.1109,-2.1109,-2.1109,-2.1109,-2.1109,-2.1109,-2.1109,-2.1109,-2.1109,-2.1109,-2.1109,-2.1109,-2.1109,-2.1109,-2.1109,-2.0962,-2.0668,-2.0561,-2.0347,-2.0054,-1.976,-1.9639,-1.9626,-1.9439,-1.9372,-1.9372,-1.9372,-1.9372,-1.9591,-2.1031,-2.2476,-2.4044,-2.559,-2.706,-2.8301,-2.8301,-2.8301,-2.834,-2.8594,-2.8672,-2.8672,-2.8672,-2.8496,-2.8301,-2.8301,-2.8301,-2.8301,-2.8301,-2.8301,-2.8301,-2.8301,-2.8301,-2.8301,-2.8301,-2.8301,-2.8301,-2.8301,-2.8301,-2.8301,-2.8301,0.0,-2.8301,-2.8301,-2.8301,-2.8301,-2.8301,-2.8301,-2.8301,-2.8301,-2.8301,-2.8301,-2.8301,-2.8301,-2.8301,-2.8301,-2.8301,-2.8301,-2.8301,-2.8301,-2.8301,-2.8301,-2.8794,-3.012,-3.2331,-3.2855,-3.4264,-3.6358,-3.6358,-3.6358,-3.6383,-3.6935,-3.7487,-3.804,-3.8617,-3.9195,-3.9697,-3.9697,-3.9697,-3.9697,-3.9697,-3.9697,-3.9981,-2.2859,-2.2859,-2.2859,-2.2859,-2.2699,-2.2525,-2.2432,-2.2084,-2.1764,-2.1577,-2.1376,-2.1216,-2.1122,-2.1109,-2.1109,-2.1109,-2.1109,-2.1109,-2.1109,-2.1109,-2.1109,-2.1109,-2.1109,-2.1109,-2.1109,-2.1109,-2.1109,-2.1109,-2.1109,-2.1002,-2.0815,-2.0722,-2.0575,-2.0361,-2.0067,-1.9933,-1.992,-1.972,-1.9586,-1.9506,-1.9506,-1.9452,-1.9475,-2.0472,-2.1873,-2.3424,-2.4992,-2.6646,-2.8019,-2.8583,-2.8691,-2.875,-2.9043,-2.9121,-2.9121,-2.9121,-2.8926,-2.8691,-2.8691,-2.8594,-2.8457,-2.832,-2.8301,-2.8301,-2.8301,-2.8301,-2.8301,-2.8301,-2.8301,-2.8301,-2.8301,-2.8301,-2.8301,-2.8301,-2.8301,-2.8301,-2.8301,-2.8301,-2.8301,-2.8301,-2.8301,-2.8301,-2.8301,-2.8301,-2.8301,-2.8301,-2.8301,-2.8301,-2.8301,-2.8301,-2.8301,-2.8301,-2.8301,-2.8301,-2.8301,-2.8301,-2.9618,-3.2331,-3.2331,-3.3749,-3.6358,-3.6358,-3.6358,-3.6383,-3.6759,-3.7236,-3.7789,-3.8366,-3.8919,-3.9446,-3.9622,-3.9697,-3.9697,-3.9697,-3.9697,-3.9878,-2.2859,-2.2859,-2.2859,-2.2859,-2.2859,-2.2766,-2.2472,-2.2418,-2.2218,-2.163,-2.155,-2.1443,-2.1149,-2.1109,-2.1109,-2.1109,-2.1109,-2.1109,-2.1109,-2.1109,-2.1109,-2.1109,-2.1109,-2.1109,-2.1109,-2.1109,-2.1109,-2.1109,-2.1109,-2.1109,-2.1096,-2.0815,-2.0681,-2.0668,-2.0374,-2.0241,-2.0241,-2.0227,-2.0067,-1.98,-1.98,-1.9626,-1.9372,-1.9372,-2.0452,-2.218,-2.391,-2.5646,-2.735,-2.8991,-2.957,-2.957,-2.957,-2.957,-2.957,-2.957,-2.957,-2.957,-2.957,-2.9258,-2.8828,-2.8398,-2.8301,-2.8301,-2.8301,-2.8301,-2.8301,-2.8301,-2.8301,-2.8301,-2.8301,-2.8301,-2.8301,-2.8301,-2.8301,-2.8301,-2.8301,-2.8301,-2.8301,-2.8301,-2.8301,-2.8301,-2.8301,-2.8301,-2.8301,-2.8301,-2.8301,-2.8301,-2.8301,-2.8301,-2.8301,-2.8301,-2.8301,-2.8301,-2.8301,-2.8301,-2.9618,-3.2331,-3.2331,-3.3749,-3.6358,-3.6358,-3.6358,-3.6358,-3.6358,-3.6684,-3.7236,-3.7764,-3.8341,-3.8919,-3.9471,-3.9697,-3.9697,-3.9697,-3.9697,-3.9878,-2.2859,-2.2859,-2.2859,-2.2859,-2.2859,-2.2832,-2.2739,-2.2552,-2.2352,-2.2178,-2.1804,-2.1523,-2.143,-2.1229,-2.1109,-2.1109,-2.1109,-2.1109,-2.1109,-2.1109,-2.1109,-2.1109,-2.1109,-2.1109,-2.1109,-2.1109,-2.1109,-2.1109,-2.1109,-2.1109,-2.1109,-2.1015,-2.0975,-2.0962,-2.0668,-2.0548,-2.0535,-2.0321,-2.0187,-2.0107,-2.0107,-2.0054,-1.9973,-1.9973,-2.0956,-2.2438,-2.291,-2.4829,-2.7122,-2.771,-2.8634,-2.9629,-2.9922,-3.0,-3.0,-3.0,-2.9805,-2.957,-2.957,-2.9473,-2.9277,-2.8848,-2.8516,-2.8301,-2.8301,-2.8301,-2.8301,-2.8301,-2.8301,-2.8301,-2.8301,-2.8301,-2.8301,-2.8301,-2.8301,-2.8301,-2.8301,-2.8301,-2.8301,-2.8301,-2.8301,-2.8301,-2.8301,-2.8301,-2.8301,-2.8301,-2.8301,-2.8301,-2.8301,-2.8301,-2.8301,-2.8301,-2.8301,-2.8301,-2.8301,-2.8301,-2.9618,-3.2331,-3.2331,-3.3749,-3.6358,-3.6358,-3.6358,-3.6358,-3.6358,-3.6684,-3.7186,-3.7362,-3.7764,-3.8316,-3.8894,-3.912,-3.917,-3.9546,-3.9697,-3.98,-2.2859,-2.2859,-2.2859,-2.2859,-2.2859,-2.2859,-2.2859,-2.2712,-2.2552,-2.2432,-2.2111,-2.1857,-2.1737,-2.1563,-2.1456,-2.1456,-2.1456,-2.1403,-2.1296,-2.1283,-2.1229,-2.1109,-2.1109,-2.1109,-2.1109,-2.1109,-2.1109,-2.1109,-2.1109,-2.1109,-2.1109,-2.1109,-2.1109,-2.1096,-2.0922,-2.0842,-2.0828,-2.0655,-2.0508,-2.0401,-2.0401,-2.0334,-2.0227,-2.0227,-2.0901,-2.1833,-2.2556,-2.4055,-2.5932,-2.7239,-2.8782,-3.0137,-3.0391,-3.0469,-3.0469,-3.0469,-3.0293,-3.0098,-3.0098,-2.9961,-2.9746,-2.9492,-2.8984,-2.8535,-2.8535,-2.8418,-2.8301,-2.8301,-2.8301,-2.8301,-2.8301,-2.8301,-2.8301,-2.8301,-2.8301,-2.8301,-2.8301,-2.8301,-2.8301,-2.8301,-2.8301,-2.8301,-2.8301,-2.8301,-2.8301,-2.8301,-2.8301,-2.8301,-2.8301,-2.8301,-2.8301,-2.8301,-2.8301,-2.8301,-2.8301,-2.8301,-2.9618,-3.2331,-3.2331,-3.3749,-3.6358,-3.6358,-3.6358,-3.6358,-3.6358,-3.6558,-3.6885,-3.7086,-3.7387,-3.7739,-3.8316,-3.8668,-3.8919,-3.9245,-3.9496,-3.9697,-2.2859,-2.2859,-2.2859,-2.2859,-2.2859,-2.2859,-2.2859,-2.2859,-2.2766,-2.2485,-2.2432,-2.2311,-2.2058,-2.2004,-2.1991,-2.1991,-2.1991,-2.1871,-2.1617,-2.1563,-2.143,-2.1162,-2.1122,-2.1109,-2.1109,-2.1109,-2.1109,-2.1109,-2.1109,-2.1109,-2.1109,-2.1109,-2.1109,-2.1109,-2.1109,-2.1109,-2.1109,-2.1109,-2.0962,-2.0722,-2.0722,-2.0548,-2.0307,-2.0307,-2.0481,-2.0956,-2.2407,-2.3197,-2.4054,-2.7331,-2.9412,-3.0645,-3.0879,-3.0898,-3.0898,-3.0898,-3.0898,-3.0898,-3.0898,-3.0586,-3.0254,-3.0254,-2.9629,-2.9023,-2.8984,-2.8652,-2.834,-2.834,-2.832,-2.8301,-2.8301,-2.8301,-2.8301,-2.8301,-2.8301,-2.8301,-2.8301,-2.8301,-2.8301,-2.8301,-2.8301,-2.8301,-2.8301,-2.8301,-2.8301,-2.8301,-2.8301,-2.8301,-2.8301,-2.8301,-2.8301,-2.8301,-2.8301,-2.8301,-2.8301,-2.8301,-2.9618,-3.2331,-3.2331,-3.3749,-3.6358,-3.6358,-3.6358,-3.6358,-3.6358,-3.6358,-3.6408,-3.691,-3.7111,-3.7161,-3.7713,-3.8241,-3.8718,-3.8768,-3.9145,-3.9622,-2.2859,-2.2859,-2.2859,-2.2859,-2.2859,-2.2859,-2.2859,-2.2859,-2.2846,-2.2779,-2.2565,-2.2392,-2.2338,-2.2124,-2.1991,-2.1991,-2.1991,-2.1964,-2.1897,-2.1683,-2.1523,-2.1456,-2.1229,-2.1109,-2.1109,-2.1109,-2.1109,-2.1109,-2.1109,-2.1109,-2.1109,-2.1109,-2.1109,-2.1109,-2.1109,-2.1109,-2.1109,-2.1109,-2.1069,-2.1015,-2.1015,-2.0975,-2.0922,-2.0922,-2.0962,-2.1015,-2.1379,-2.2409,-2.4054,-2.7331,-2.8664,-2.9157,-3.0509,-3.0898,-3.0898,-3.0898,-3.0898,-3.0898,-3.0898,-3.082,-3.0742,-3.0742,-3.0332,-2.9824,-2.9512,-2.9101,-2.8789,-2.8789,-2.8516,-2.8301,-2.8301,-2.8301,-2.8301,-2.8301,-2.8301,-2.8301,-2.8301,-2.8301,-2.8301,-2.8301,-2.8301,-2.8301,-2.8301,-2.8301,-2.8301,-2.8301,-2.8301,-2.8301,-2.8301,-2.8301,-2.8301,-2.8301,-2.8301,-2.8301,-2.8301,-2.8301,-2.9618,-3.2331,-3.2331,-3.3749,-3.6358,-3.6358,-3.6358,-3.6358,-3.6358,-3.6358,-3.6358,-3.6483,-3.6533,-3.6584,-3.7136,-3.7437,-3.7613,-3.804,-3.8567,-3.9297,-2.2859,-2.2859,-2.2859,-2.2859,-2.2859,-2.2859,-2.2859,-2.2859,-2.2859,-2.2859,-2.2726,-2.2632,-2.2632,-2.2498,-2.2405,-2.2405,-2.2405,-2.2338,-2.2205,-2.2044,-2.1897,-2.1764,-2.1483,-2.1323,-2.1323,-2.1189,-2.1109,-2.1109,-2.1109,-2.1109,-2.1109,-2.1109,-2.1109,-2.1109,-2.1109,-2.1109,-2.1109,-2.1109,-2.1109,-2.1109,-2.1109,-2.1109,-2.1109,-2.1109,-2.1109,-2.1109,-2.1109,-2.2215,-2.3822,-2.5513,-2.7091,-2.8545,-2.9412,-3.0274,-3.0898,-3.0898,-3.0898,-3.0898,-3.0898,-3.0898,-3.0898,-3.0898,-3.0703,-3.041,-2.998,-2.9531,-2.916,-2.8965,-2.875,-2.8535,-2.832,-2.8301,-2.8301,-2.8301,-2.8301,-2.8301,-2.8301,-2.8301,-2.8301,-2.8301,-2.8301,-2.8301,-2.8301,-2.8301,-2.8301,-2.8301,-2.8301,-2.8301,-2.8301,-2.8301,-2.8301,-2.8301,-2.8301,-2.8301,-2.8301,-2.8301,-2.9303,-3.1316,-3.2028,-3.3429,-3.5475,-3.6073,-3.6358,-3.6358,-3.6358,-3.6358,-3.6358,-3.6358,-3.6358,-3.6383,-3.6684,-3.696,-3.7211,-3.7513,-3.7965,-3.8642,-2.2859,-2.2859,-2.2859,-2.2859,-2.2859,-2.2859,-2.2859,-2.2859,-2.2859,-2.2859,-2.2859,-2.2859,-2.2859,-2.2859,-2.2859,-2.2859,-2.2859,-2.2752,-2.2512,-2.2445,-2.2311,-2.2071,-2.1777,-2.163,-2.163,-2.139,-2.1216,-2.1109,-2.1109,-2.1109,-2.1109,-2.1109,-2.1109,-2.1109,-2.1109,-2.1109,-2.1109,-2.1109,-2.1109,-2.1109,-2.1109,-2.1109,-2.1109,-2.1109,-2.1109,-2.1109,-2.1109,-2.1978,-2.3201,-2.345,-2.5391,-2.7692,-2.817,-2.9394,-3.0509,-3.0762,-3.0898,-3.0898,-3.0898,-3.0898,-3.0898,-3.0898,-3.0898,-3.0801,-3.041,-2.998,-2.957,-2.9219,-2.9023,-2.8809,-2.8457,-2.834,-2.8301,-2.8301,-2.8301,-2.8301,-2.8301,-2.8301,-2.8301,-2.8301,-2.8301,-2.8301,-2.8301,-2.8301,-2.8301,-2.8301,-2.8301,-2.8301,-2.8301,-2.8301,-2.8301,-2.8301,-2.8301,-2.8301,-2.8301,-2.8301,-2.89,-3.0016,-3.152,-3.3055,-3.4483,-3.5571,-3.6168,-3.6358,-3.6358,-3.6358,-3.6358,-3.6358,-3.6358,-3.6358,-3.6358,-3.6634,-3.7061,-3.7161,-3.7462,-3.7939,-2.2859,-2.2859,-2.2859,-2.2859,-2.2859,-2.2859,-2.2859,-2.2859,-2.2859,-2.2859,-2.2859,-2.2859,-2.2859,-2.2859,-2.2859,-2.2859,-2.2859,-2.2846,-2.2806,-2.2565,-2.2405,-2.2365,-2.2084,-2.1924,-2.1924,-2.1884,-2.1617,-2.1109,-2.1109,-2.1109,-2.1109,-2.1109,-2.1109,-2.1109,-2.1109,-2.1109,-2.1109,-2.1109,-2.1109,-2.1109,-2.1109,-2.1109,-2.1109,-2.1109,-2.1109,-2.1109,-2.1109,-2.1235,-2.1601,-2.3076,-2.3946,-2.4794,-2.7572,-2.8545,-2.9039,-3.0509,-3.0898,-3.0898,-3.0898,-3.0898,-3.0898,-3.0898,-3.0898,-3.0879,-3.082,-3.0449,-3.0098,-3.0039,-2.9434,-2.8906,-2.8848,-2.8535,-2.8301,-2.8301,-2.8301,-2.8301,-2.8301,-2.8301,-2.8301,-2.8301,-2.8301,-2.8301,-2.8301,-2.8301,-2.8301,-2.8301,-2.8301,-2.8301,-2.8301,-2.8301,-2.8301,-2.8301,-2.8301,-2.8301,-2.8301,-2.8301,-2.8388,-2.8601,-3.1133,-3.3055,-3.4385,-3.4581,-3.5259,-3.6358,-3.6358,-3.6358,-3.6358,-3.6358,-3.6358,-3.6358,-3.6358,-3.6408,-3.6533,-3.701,-3.7236,-3.7387,-2.2859,-2.2859,-2.2859,-2.2859,-2.2859,-2.2859,-2.2859,-2.2859,-2.2859,-2.2859,-2.2859,-2.2859,-2.2859,-2.2859,-2.2859,-2.2859,-2.2859,-2.2859,-2.2859,-2.2739,-2.2672,-2.2672,-2.2378,-2.2231,-2.2231,-2.2071,-2.1857,-2.1603,-2.143,-2.1269,-2.1109,-2.1109,-2.1109,-2.1109,-2.1109,-2.1109,-2.1109,-2.1109,-2.1109,-2.1109,-2.1109,-2.1109,-2.1109,-2.1109,-2.1109,-2.1109,-2.1109,-2.1109,-2.1235,-2.1964,-2.2841,-2.3822,-2.5269,-2.697,-2.8545,-2.9275,-3.0157,-3.0898,-3.0898,-3.0898,-3.0898,-3.0898,-3.0898,-3.0898,-3.0898,-3.0742,-3.0508,-3.0254,-2.9902,-2.9492,-2.9004,-2.8769,-2.8574,-2.834,-2.8301,-2.8301,-2.8301,-2.8301,-2.8301,-2.8301,-2.8301,-2.8301,-2.8301,-2.8301,-2.8301,-2.8301,-2.8301,-2.8301,-2.8301,-2.8301,-2.8301,-2.8301,-2.8301,-2.8301,-2.8301,-2.8301,-2.8301,-2.8281,-2.9513,-3.1133,-3.3254,-3.4872,-3.5858,-3.6358,-3.6358,-3.6358,-3.6358,-3.6358,-3.6358,-3.6358,-3.6358,-3.6358,-3.6383,-3.6634,-3.6734,-3.681]}]]